[[{"header":{"parameterUnit":"m.s-1","parameterCategory":1,"la1":31.0,"la2":29.5877,"lo1":-88.7671,"lo2":-86.6584,"dy":0.0162,"dx":0.0185,"nx":115,"ny":88,"refTime":"2026-04-24T18:00:00:Z","depth":0,"parameterNumber":2,"parameterNumberName":"U-component_of_WINDS"},"data":[0.0,0.0,0.0,0.0,0.0,0.0,0.0,0.0,0.0,0.0,0.0,0.0,0.0,0.0,0.0,0.0,0.0,0.0,0.0,0.0,0.0,0.0,0.0,0.0,0.0,0.0,0.0,0.0,0.0,0.0,0.0,0.0,0.0,0.0,0.0,0.0,0.0,0.0,0.0,0.0,0.0,0.0,0.0,0.0,0.0,0.0,0.0,0.0,0.0,0.0,0.0,0.0,0.0,0.0,0.0,0.0,0.0,0.0,0.0,0.0,0.0,0.0,0.0,0.0,0.0,0.0,0.0,0.0,0.0,0.0,0.0,0.0,0.0,0.0,0.0,0.0,0.0,0.0,0.0,0.0,0.0,0.0,0.0,0.0,0.0,0.0,0.0,0.0,0.0,0.0,0.0,0.0,0.0,0.0,0.0,0.0,0.0,0.0,0.0,0.0,0.0,0.0,0.0,0.0,0.0,0.0,0.0,0.0,0.0,0.0,0.0,0.0,0.0,0.0,0.0,0.0,0.0,0.0,0.0,0.0,0.0,0.0,0.0,0.0,0.0,0.0,0.0,0.0,0.0,0.0,0.0,0.0,0.0,0.0,0.0,0.0,0.0,0.0,0.0,0.0,0.0,0.0,0.0,0.0,0.0,0.0,0.0,0.0,0.0,0.0,0.0,0.0,0.0,0.0,0.0,0.0,0.0,0.0,0.0,0.0,0.0,0.0,0.0,0.0,0.0,0.0,0.0,0.0,0.0,0.0,0.0,0.0,0.0,0.0,0.0,0.0,0.0,0.0,0.0,0.0,0.0,0.0,0.0,0.0,0.0,0.0,0.0,0.0,0.0,0.0,0.0,0.0,0.0,0.0,0.0,0.0,0.0,0.0,0.0,0.0,0.0,0.0,0.0,0.0,0.0,0.0,0.0,0.0,0.0,0.0,0.0,0.0,0.0,0.0,0.0,0.0,0.0,0.0,0.0,0.0,0.0,0.0,0.0,0.0,0.0,0.0,0.0,0.0,0.0,0.0,0.0,0.0,0.0,0.0,0.0,0.0,0.0,0.0,0.0,0.0,0.0,0.0,0.0,0.0,0.0,0.0,0.0,0.0,0.0,0.0,0.0,0.0,0.0,0.0,0.0,0.0,0.0,0.0,0.0,0.0,0.0,0.0,0.0,0.0,0.0,0.0,0.0,0.0,0.0,0.0,0.0,0.0,0.0,0.0,0.0,0.0,0.0,0.0,0.0,0.0,0.0,0.0,0.0,0.0,0.0,0.0,0.0,0.0,0.0,0.0,0.0,0.0,0.0,0.0,0.0,0.0,0.0,0.0,0.0,0.0,0.0,0.0,0.0,0.0,0.0,0.0,0.0,0.0,0.0,0.0,0.0,0.0,0.0,0.0,0.0,0.0,0.0,0.0,0.0,0.0,0.0,0.0,0.0,0.0,0.0,0.0,0.0,0.0,0.0,0.0,0.0,0.0,0.0,0.0,0.0,0.0,0.0,0.0,0.0,0.0,0.0,0.0,0.0,0.0,0.0,0.0,0.0,0.0,0.0,0.0,0.0,0.0,0.0,0.0,0.0,0.0,0.0,0.0,0.0,0.0,0.0,0.0,0.0,0.0,0.0,0.0,0.0,0.0,0.0,0.0,0.0,0.0,0.0,0.0,0.0,0.0,0.0,0.0,0.0,0.0,0.0,0.0,0.0,0.0,0.0,0.0,0.0,0.0,0.0,0.0,0.0,0.0,0.0,0.0,0.0,0.0,0.0,0.0,0.0,0.0,0.0,0.0,0.0,0.0,0.0,0.0,0.0,0.0,0.0,0.0,0.0,0.0,0.0,0.0,0.0,0.0,0.0,0.0,0.0,0.0,0.0,0.0,0.0,0.0,0.0,0.0,0.0,0.0,0.0,0.0,0.0,0.0,0.0,0.0,0.0,0.0,0.0,0.0,0.0,0.0,0.0,0.0,0.0,0.0,0.0,0.0,0.0,0.0,0.0,0.0,0.0,0.0,0.0,0.0,0.0,0.0,0.0,0.0,0.0,0.0,0.0,0.0,0.0,0.0,0.0,0.0,0.0,0.0,0.0,0.0,0.0,0.0,0.0,0.0,0.0,0.0,0.0,0.0,0.0,0.0,0.0,0.0,0.0,0.0,0.0,0.0,0.0,0.0,0.0,0.0,0.0,0.0,0.0,0.0,0.0,0.0,0.0,0.0,0.0,0.0,0.0,0.0,0.0,0.0,0.0,0.0,0.0,0.0,0.0,0.0,0.0,0.0,0.0,0.0,0.0,0.0,0.0,0.0,0.0,0.0,0.0,0.0,0.0,0.0,0.0,0.0,0.0,0.0,0.0,0.0,0.0,0.0,0.0,0.0,0.0,0.0,0.0,0.0,0.0,0.0,0.0,0.0,0.0,0.0,0.0,0.0,0.0,0.0,0.0,0.0,0.0,0.0,0.0,0.0,0.0,0.0,0.0,0.0,0.0,0.0,0.0,0.0,0.0,0.0,0.0,0.0,0.0,0.0,0.0,0.0,0.0,0.0,0.0,0.0,0.0,0.0,0.0,0.0,0.0,0.0,0.0,0.0,0.0,0.0,0.0,0.0,0.0,0.0,0.0,0.0,0.0,0.0,0.0,0.0,0.0,0.0,0.0,0.0,0.0,0.0,0.0,0.0,0.0,0.0,0.0,0.0,0.0,0.0,0.0,0.0,0.0,0.0,0.0,0.0,0.0,0.0,0.0,0.0,0.0,0.0,0.0,0.0,0.0,0.0,0.0,0.0,0.0,0.0,0.0,0.0,0.0,0.0,0.0,0.0,0.0,0.0,0.0,0.0,0.0,0.0,0.0,0.0,0.0,0.0,0.0,0.0,0.0,0.0,0.0,0.0,0.0,0.0,0.0,0.0,0.0,0.0,0.0,0.0,0.0,0.0,0.0,0.0,0.0,0.0,0.0,0.0,0.0,0.0,0.0,0.0,0.0,0.0,0.0,0.0,0.0,0.0,0.0,0.0,0.0,0.0,0.0,0.0,0.0,0.0,0.0,0.0,0.0,0.0,0.0,0.0,0.0,0.0,0.0,0.0,0.0,0.0,0.0,0.0,0.0,0.0,0.0,0.0,0.0,0.0,0.0,0.0,0.0,0.0,0.0,0.0,0.0,0.0,0.0,0.0,0.0,0.0,0.0,0.0,0.0,0.0,0.0,0.0,0.0,0.0,0.0,0.0,0.0,0.0,0.0,0.0,0.0,0.0,0.0,0.0,0.0,0.0,0.0,0.0,0.0,0.0,0.0,0.0,0.0,0.0,0.0,0.0,0.0,0.0,0.0,0.0,0.0,0.0,0.0,0.0,0.0,0.0,0.0,0.0,0.0,0.0,0.0,0.0,0.0,0.0,0.0,0.0,0.0,0.0,0.0,0.0,0.0,0.0,0.0,0.0,0.0,0.0,0.0,0.0,0.0,0.0,0.0,0.0,0.0,0.0,0.0,0.0,0.0,0.0,0.0,0.0,0.0,0.0,0.0,0.0,0.0,0.0,0.0,0.0,0.0,0.0,0.0,0.0,0.0,0.0,0.0,0.0,0.0,0.0,0.0,0.0,0.0,0.0,0.0,0.0,0.0,0.0,0.0,0.0,0.0,0.0,0.0,0.0,0.0,0.0,0.0,0.0,0.0,0.0,0.0,0.0,0.0,0.0,0.0,0.0,0.0,0.0,0.0,0.0,0.0,0.0,0.0,0.0,0.0,0.0,0.0,0.0,0.0,0.0,0.0,0.0,0.0,0.0,0.0,0.0,0.0,0.0,0.0,0.0,0.0,0.0,0.0,0.0,0.0,0.0,0.0,0.0,0.0,0.0,0.0,0.0,0.0,0.0,0.0,0.0,0.0,0.0,0.0,0.0,0.0,0.0,0.0,0.0,0.0,0.0,0.0,0.0,0.0,0.0,0.0,0.0,0.0,0.0,0.0,0.0,0.0,0.0,0.0,0.0,0.0,0.0,0.0,0.0,0.0,0.0,0.0,0.0,0.0,0.0,0.0,0.0,0.0,0.0,0.0,0.0,0.0,0.0,0.0,0.0,0.0,0.0,0.0,0.0,0.0,0.0,0.0,0.0,0.0,0.0,0.0,0.0,0.0,0.0,0.0,0.0,0.0,0.0,0.0,0.0,0.0,0.0,0.0,0.0,0.0,0.0,0.0,0.0,0.0,0.0,0.0,0.0,0.0,0.0,0.0,0.0,0.0,0.0,0.0,0.0,0.0,0.0,0.0,0.0,0.0,0.0,0.0,0.0,-1.2604,0.0,0.0,0.0,0.0,0.0,0.0,0.0,0.0,0.0,0.0,0.0,0.0,0.0,0.0,0.0,0.0,0.0,0.0,0.0,0.0,0.0,0.0,0.0,0.0,0.0,0.0,0.0,0.0,0.0,0.0,0.0,0.0,0.0,0.0,0.0,0.0,0.0,0.0,0.0,0.0,0.0,0.0,0.0,0.0,0.0,0.0,0.0,0.0,0.0,0.0,0.0,0.0,0.0,0.0,0.0,0.0,0.0,0.0,0.0,0.0,0.0,0.0,0.0,0.0,0.0,0.0,0.0,0.0,0.0,0.0,0.0,0.0,0.0,0.0,0.0,0.0,0.0,0.0,0.0,0.0,0.0,0.0,0.0,0.0,0.0,0.0,0.0,0.0,0.0,0.0,0.0,0.0,0.0,0.0,0.0,0.0,0.0,0.0,0.0,0.0,0.0,0.0,0.0,0.0,0.0,0.0,0.0,0.0,0.0,0.0,-1.3031,-1.2996,-1.2906,-1.2777,-1.2607,0.0,0.0,0.0,0.0,0.0,0.0,0.0,0.0,0.0,0.0,0.0,0.0,0.0,0.0,0.0,0.0,0.0,0.0,0.0,0.0,0.0,0.0,0.0,0.0,0.0,0.0,0.0,0.0,0.0,0.0,0.0,0.0,0.0,0.0,0.0,0.0,0.0,0.0,0.0,0.0,0.0,0.0,0.0,0.0,0.0,0.0,0.0,0.0,0.0,0.0,0.0,0.0,0.0,0.0,0.0,0.0,0.0,0.0,0.0,0.0,0.0,0.0,0.0,0.0,0.0,0.0,0.0,0.0,0.0,0.0,0.0,0.0,0.0,0.0,0.0,0.0,0.0,0.0,0.0,0.0,0.0,0.0,0.0,0.0,0.0,0.0,0.0,0.0,0.0,0.0,0.0,0.0,0.0,0.0,0.0,0.0,0.0,0.0,0.0,0.0,0.0,0.0,0.0,0.0,0.0,0.0,0.0,0.0,0.0,0.0,0.0,0.0,-1.2917,-1.2798,-1.2685,0.0,0.0,0.0,0.0,0.0,0.0,0.0,0.0,0.0,0.0,0.0,0.0,0.0,0.0,0.0,0.0,0.0,0.0,0.0,0.0,0.0,0.0,0.0,0.0,0.0,0.0,0.0,0.0,0.0,0.0,0.0,0.0,0.0,0.0,0.0,0.0,0.0,0.0,0.0,0.0,0.0,0.0,0.0,0.0,0.0,0.0,0.0,0.0,0.0,0.0,0.0,0.0,0.0,0.0,0.0,0.0,0.0,0.0,0.0,0.0,0.0,0.0,0.0,0.0,0.0,0.0,0.0,0.0,0.0,0.0,0.0,0.0,0.0,0.0,0.0,0.0,0.0,0.0,0.0,0.0,0.0,0.0,0.0,0.0,0.0,0.0,0.0,0.0,0.0,0.0,0.0,0.0,0.0,0.0,0.0,0.0,0.0,0.0,0.0,0.0,0.0,0.0,0.0,0.0,0.0,0.0,0.0,0.0,0.0,0.0,-1.3149,-1.3095,-1.3076,0.0,-1.2889,0.0,0.0,0.0,0.0,0.0,0.0,0.0,0.0,0.0,0.0,0.0,0.0,0.0,0.0,0.0,0.0,0.0,0.0,0.0,0.0,0.0,0.0,0.0,0.0,0.0,0.0,0.0,0.0,0.0,0.0,0.0,0.0,0.0,0.0,0.0,0.0,0.0,0.0,0.0,0.0,0.0,0.0,0.0,0.0,0.0,0.0,0.0,0.0,0.0,0.0,0.0,0.0,0.0,0.0,0.0,0.0,0.0,0.0,0.0,0.0,0.0,0.0,0.0,0.0,0.0,0.0,0.0,0.0,0.0,0.0,0.0,0.0,0.0,0.0,0.0,0.0,0.0,0.0,0.0,0.0,0.0,0.0,0.0,0.0,0.0,0.0,0.0,0.0,0.0,0.0,0.0,0.0,0.0,0.0,0.0,0.0,0.0,0.0,0.0,0.0,0.0,0.0,0.0,0.0,0.0,0.0,0.0,0.0,0.0,0.0,-1.3522,-1.3916,-1.394,-1.3494,0.0,0.0,0.0,0.0,0.0,0.0,0.0,0.0,0.0,0.0,0.0,0.0,0.0,0.0,0.0,0.0,0.0,0.0,0.0,0.0,0.0,0.0,0.0,0.0,0.0,0.0,0.0,0.0,0.0,0.0,0.0,0.0,0.0,0.0,0.0,0.0,0.0,0.0,0.0,0.0,0.0,0.0,0.0,0.0,0.0,0.0,0.0,0.0,0.0,0.0,0.0,0.0,0.0,0.0,0.0,0.0,0.0,0.0,0.0,0.0,0.0,0.0,0.0,0.0,0.0,0.0,0.0,0.0,0.0,0.0,0.0,0.0,0.0,0.0,0.0,0.0,0.0,0.0,0.0,0.0,0.0,0.0,0.0,0.0,0.0,0.0,0.0,0.0,0.0,0.0,0.0,0.0,0.0,0.0,0.0,0.0,0.0,0.0,0.0,0.0,0.0,0.0,0.0,0.0,0.0,0.0,0.0,0.0,0.0,0.0,-1.3396,-1.365,-1.4149,-1.42,-1.3591,-1.2348,0.0,0.0,0.0,0.0,0.0,0.0,0.0,0.0,0.0,0.0,0.0,0.0,0.0,0.0,0.0,0.0,0.0,0.0,0.0,0.0,0.0,0.0,0.0,0.0,0.0,0.0,0.0,0.0,0.0,0.0,0.0,0.0,0.0,0.0,0.0,0.0,0.0,0.0,0.0,0.0,0.0,0.0,0.0,0.0,0.0,0.0,0.0,0.0,0.0,0.0,0.0,0.0,0.0,0.0,0.0,0.0,0.0,0.0,0.0,0.0,0.0,0.0,0.0,0.0,0.0,0.0,0.0,0.0,0.0,0.0,0.0,0.0,0.0,0.0,0.0,0.0,0.0,0.0,0.0,0.0,0.0,0.0,0.0,0.0,0.0,0.0,0.0,0.0,0.0,0.0,0.0,0.0,0.0,0.0,0.0,0.0,0.0,0.0,0.0,0.0,0.0,0.0,0.0,0.0,0.0,0.0,0.0,0.0,0.0,-1.3413,-1.3405,-1.3472,-1.3455,-1.3092,0.0,0.0,0.0,0.0,0.0,0.0,0.0,0.0,0.0,0.0,0.0,0.0,0.0,0.0,0.0,0.0,0.0,0.0,0.0,0.0,0.0,0.0,0.0,0.0,0.0,0.0,0.0,0.0,0.0,0.0,0.0,0.0,0.0,0.0,0.0,0.0,0.0,0.0,0.0,0.0,0.0,0.0,0.0,0.0,0.0,0.0,0.0,0.0,0.0,0.0,0.0,0.0,0.0,0.0,0.0,0.0,0.0,0.0,0.0,0.0,0.0,0.0,0.0,0.0,0.0,0.0,0.0,0.0,0.0,0.0,0.0,0.0,0.0,0.0,0.0,0.0,0.0,0.0,0.0,0.0,0.0,0.0,0.0,0.0,0.0,0.0,0.0,0.0,0.0,0.0,0.0,0.0,0.0,0.0,0.0,0.0,0.0,0.0,0.0,0.0,0.0,0.0,0.0,0.0,0.0,0.0,0.0,0.0,0.0,-1.3422,-1.3853,-1.3879,-1.3447,-1.3862,-1.3303,0.0,0.0,0.0,0.0,0.0,0.0,0.0,0.0,0.0,0.0,0.0,0.0,0.0,0.0,0.0,0.0,0.0,0.0,0.0,0.0,0.0,0.0,0.0,0.0,0.0,0.0,0.0,0.0,0.0,0.0,0.0,0.0,0.0,0.0,0.0,0.0,0.0,0.0,0.0,0.0,0.0,0.0,0.0,0.0,0.0,0.0,0.0,0.0,0.0,0.0,0.0,0.0,0.0,0.0,0.0,0.0,0.0,0.0,0.0,0.0,0.0,0.0,0.0,0.0,0.0,0.0,0.0,0.0,0.0,0.0,0.0,0.0,0.0,0.0,0.0,0.0,0.0,0.0,0.0,0.0,0.0,0.0,0.0,0.0,0.0,0.0,0.0,0.0,0.0,0.0,0.0,0.0,0.0,0.0,0.0,0.0,0.0,0.0,0.0,0.0,0.0,0.0,0.0,0.0,0.0,0.0,0.0,0.0,0.0,-1.3422,0.0,-1.3904,-1.3464,-1.3878,-1.3303,0.0,0.0,0.0,0.0,0.0,0.0,0.0,0.0,0.0,0.0,0.0,0.0,0.0,0.0,0.0,0.0,0.0,0.0,0.0,0.0,0.0,0.0,0.0,0.0,0.0,0.0,0.0,0.0,0.0,0.0,0.0,0.0,0.0,0.0,0.0,0.0,0.0,0.0,0.0,0.0,0.0,0.0,0.0,0.0,0.0,0.0,0.0,0.0,0.0,0.0,0.0,0.0,0.0,0.0,0.0,0.0,0.0,0.0,0.0,0.0,0.0,0.0,0.0,0.0,0.0,0.0,0.0,0.0,0.0,0.0,0.0,0.0,0.0,0.0,0.0,0.0,0.0,0.0,0.0,0.0,0.0,0.0,0.0,0.0,0.0,0.0,0.0,0.0,0.0,0.0,0.0,0.0,0.0,0.0,0.0,0.0,0.0,0.0,0.0,0.0,0.0,0.0,0.0,0.0,0.0,0.0,0.0,0.0,-1.343,-1.343,-1.3439,-1.3481,-1.3413,-1.3439,-1.3058,0.0,0.0,0.0,0.0,0.0,0.0,0.0,0.0,0.0,0.0,0.0,0.0,0.0,0.0,0.0,0.0,0.0,0.0,0.0,0.0,0.0,0.0,0.0,0.0,0.0,0.0,0.0,0.0,0.0,0.0,0.0,0.0,0.0,0.0,0.0,0.0,0.0,0.0,0.0,0.0,0.0,0.0,0.0,0.0,0.0,0.0,0.0,0.0,0.0,0.0,0.0,0.0,0.0,0.0,0.0,0.0,0.0,0.0,0.0,0.0,0.0,0.0,0.0,0.0,0.0,0.0,0.0,0.0,0.0,0.0,0.0,0.0,0.0,0.0,0.0,0.0,0.0,0.0,0.0,0.0,0.0,0.0,0.0,0.0,0.0,0.0,0.0,0.0,0.0,0.0,0.0,0.0,0.0,0.0,0.0,0.0,0.0,0.0,0.0,0.0,0.0,0.0,0.0,0.0,0.0,0.0,0.0,0.0,0.0,-1.4157,-1.4149,-1.4149,-1.4149,-1.3667,-1.3041,0.0,0.0,0.0,0.0,0.0,0.0,0.0,0.0,0.0,0.0,0.0,0.0,0.0,0.0,0.0,0.0,0.0,0.0,0.0,0.0,0.0,0.0,0.0,0.0,0.0,0.0,0.0,0.0,0.0,0.0,0.0,0.0,0.0,0.0,0.0,0.0,0.0,0.0,0.0,0.0,0.0,0.0,0.0,0.0,0.0,0.0,0.0,0.0,0.0,0.0,0.0,0.0,0.0,0.0,0.0,0.0,0.0,0.0,0.0,0.0,0.0,0.0,0.0,0.0,0.0,0.0,0.0,0.0,0.0,0.0,0.0,0.0,0.0,0.0,0.0,0.0,0.0,0.0,0.0,0.0,0.0,0.0,0.0,0.0,0.0,0.0,0.0,0.0,0.0,0.0,0.0,0.0,0.0,0.0,0.0,0.0,0.0,0.0,0.0,0.0,0.0,0.0,0.0,0.0,0.0,0.0,0.0,0.0,0.0,-1.4909,-1.4909,-1.4774,-1.4504,-1.4039,-1.3464,-1.2736,0.0,0.0,0.0,0.0,0.0,0.0,0.0,0.0,0.0,0.0,0.0,0.0,0.0,0.0,0.0,0.0,0.0,0.0,0.0,0.0,0.0,0.0,0.0,0.0,0.0,0.0,0.0,0.0,0.0,0.0,0.0,0.0,0.0,0.0,0.0,0.0,0.0,0.0,0.0,0.0,0.0,0.0,0.0,0.0,0.0,0.0,0.0,0.0,0.0,0.0,0.0,0.0,0.0,0.0,0.0,0.0,0.0,0.0,0.0,0.0,0.0,0.0,0.0,0.0,0.0,0.0,0.0,0.0,0.0,0.0,0.0,0.0,0.0,0.0,0.0,0.0,0.0,0.0,0.0,0.0,0.0,0.0,0.0,0.0,0.0,0.0,0.0,0.0,0.0,0.0,0.0,0.0,0.0,0.0,0.0,0.0,0.0,0.0,0.0,0.0,0.0,0.0,0.0,0.0,0.0,0.0,0.0,0.0,-1.5595,-1.5671,-1.5367,-1.4605,-1.452,-1.4157,0.0,0.0,0.0,0.0,0.0,0.0,0.0,0.0,0.0,0.0,0.0,0.0,0.0,0.0,0.0,0.0,0.0,0.0,0.0,0.0,0.0,0.0,0.0,0.0,0.0,0.0,0.0,0.0,0.0,0.0,0.0,0.0,0.0,0.0,0.0,0.0,0.0,0.0,0.0,0.0,0.0,0.0,0.0,0.0,0.0,0.0,0.0,0.0,0.0,0.0,0.0,0.0,0.0,0.0,0.0,0.0,0.0,0.0,0.0,0.0,0.0,0.0,0.0,0.0,0.0,0.0,0.0,0.0,0.0,0.0,0.0,0.0,0.0,0.0,0.0,0.0,0.0,0.0,0.0,0.0,0.0,0.0,0.0,0.0,0.0,0.0,0.0,0.0,0.0,0.0,0.0,0.0,0.0,0.0,0.0,0.0,0.0,0.0,0.0,0.0,0.0,0.0,0.0,0.0,0.0,0.0,0.0,0.0,0.0,-1.5647,-1.6669,-1.6608,-1.535,-1.4782,-1.4157,0.0,0.0,0.0,0.0,0.0,0.0,0.0,0.0,0.0,0.0,0.0,0.0,0.0,0.0,0.0,0.0,0.0,0.0,0.0,0.0,0.0,0.0,0.0,0.0,0.0,0.0,0.0,0.0,0.0,0.0,0.0,0.0,0.0,0.0,0.0,0.0,0.0,0.0,0.0,0.0,0.0,0.0,0.0,0.0,0.0,0.0,0.0,0.0,0.0,0.0,0.0,0.0,0.0,0.0,0.0,0.0,0.0,0.0,0.0,0.0,0.0,0.0,0.0,0.0,0.0,0.0,0.0,0.0,0.0,0.0,0.0,0.0,0.0,0.0,0.0,0.0,0.0,0.0,0.0,0.0,0.0,0.0,0.0,0.0,0.0,0.0,0.0,0.0,0.0,0.0,0.0,0.0,0.0,0.0,0.0,0.0,0.0,0.0,0.0,0.0,0.0,0.0,0.0,0.0,0.0,0.0,0.0,0.0,-1.5595,-1.5604,-1.7031,-1.7253,-1.6096,-1.534,-1.4461,0.0,0.0,0.0,0.0,0.0,0.0,0.0,0.0,0.0,0.0,0.0,0.0,0.0,0.0,0.0,0.0,0.0,0.0,0.0,0.0,0.0,0.0,0.0,0.0,0.0,0.0,0.0,0.0,0.0,0.0,0.0,0.0,0.0,0.0,0.0,0.0,0.0,0.0,0.0,0.0,0.0,0.0,0.0,0.0,0.0,0.0,0.0,0.0,0.0,0.0,0.0,0.0,0.0,0.0,0.0,0.0,0.0,0.0,0.0,0.0,0.0,0.0,0.0,0.0,0.0,0.0,0.0,0.0,0.0,0.0,0.0,0.0,0.0,0.0,0.0,0.0,0.0,0.0,0.0,0.0,0.0,0.0,0.0,0.0,0.0,0.0,0.0,0.0,0.0,0.0,0.0,0.0,0.0,0.0,0.0,0.0,0.0,0.0,0.0,0.0,0.0,0.0,0.0,0.0,0.0,0.0,0.0,0.0,-1.5646,-1.5732,-1.7084,-1.7456,-1.6714,-1.5994,-1.4917,0.0,0.0,0.0,0.0,0.0,0.0,0.0,0.0,0.0,0.0,0.0,0.0,0.0,0.0,0.0,0.0,0.0,0.0,0.0,0.0,0.0,0.0,0.0,0.0,0.0,0.0,0.0,0.0,0.0,0.0,0.0,0.0,0.0,0.0,0.0,0.0,0.0,0.0,0.0,0.0,0.0,0.0,0.0,0.0,0.0,0.0,0.0,0.0,0.0,0.0,0.0,0.0,0.0,0.0,0.0,0.0,0.0,0.0,0.0,0.0,0.0,0.0,0.0,0.0,0.0,0.0,0.0,0.0,0.0,0.0,0.0,0.0,0.0,0.0,0.0,0.0,0.0,0.0,0.0,0.0,0.0,0.0,0.0,0.0,0.0,0.0,0.0,0.0,0.0,0.0,0.0,0.0,0.0,0.0,0.0,0.0,0.0,0.0,0.0,0.0,0.0,0.0,0.0,0.0,0.0,0.0,0.0,0.0,-1.5874,-1.6462,-1.7346,-1.7447,-1.6716,-1.5994,-1.5126,0.0,0.0,0.0,0.0,0.0,0.0,0.0,0.0,0.0,0.0,0.0,0.0,0.0,0.0,0.0,0.0,0.0,0.0,0.0,0.0,0.0,0.0,0.0,0.0,0.0,0.0,0.0,0.0,0.0,0.0,0.0,0.0,0.0,0.0,0.0,0.0,0.0,0.0,0.0,0.0,0.0,0.0,0.0,0.0,0.0,0.0,0.0,0.0,-0.9128,0.0,0.0,0.0,0.0,0.0,0.0,0.0,0.0,0.0,0.0,0.0,0.0,0.0,0.0,0.0,0.0,0.0,0.0,0.0,0.0,0.0,0.0,0.0,0.0,0.0,0.0,0.0,0.0,0.0,0.0,0.0,0.0,0.0,0.0,0.0,0.0,0.0,0.0,0.0,0.0,0.0,0.0,0.0,0.0,0.0,0.0,0.0,0.0,0.0,0.0,0.0,0.0,0.0,0.0,0.0,0.0,0.0,0.0,0.0,-1.6307,-1.6707,-1.7405,-1.7605,-1.7211,-1.6502,-1.5539,0.0,0.0,0.0,0.0,0.0,0.0,0.0,0.0,0.0,0.0,0.0,0.0,0.0,0.0,0.0,0.0,0.0,0.0,0.0,0.0,0.0,0.0,0.0,0.0,0.0,0.0,0.0,0.0,0.0,0.0,0.0,0.0,0.0,0.0,0.0,0.0,0.0,0.0,0.0,0.0,0.0,0.0,0.0,0.0,0.0,0.0,0.0,0.0,0.0,0.0,0.0,0.0,0.0,0.0,0.0,0.0,0.0,0.0,0.0,0.0,0.0,0.0,0.0,0.0,0.0,0.0,0.0,0.0,0.0,0.0,0.0,0.0,0.0,0.0,0.0,0.0,0.0,0.0,0.0,0.0,0.0,0.0,0.0,0.0,0.0,0.0,0.0,0.0,0.0,0.0,0.0,0.0,0.0,0.0,0.0,0.0,0.0,0.0,0.0,0.0,0.0,0.0,0.0,0.0,0.0,0.0,0.0,-1.6011,-1.6758,-1.6874,-1.7481,-1.7789,-1.7783,-1.6984,-1.5903,-1.4533,0.0,0.0,0.0,0.0,0.0,0.0,0.0,0.0,0.0,0.0,0.0,0.0,0.0,0.0,0.0,0.0,0.0,0.0,0.0,0.0,0.0,0.0,0.0,0.0,0.0,0.0,0.0,0.0,0.0,0.0,0.0,0.0,0.0,0.0,0.0,0.0,0.0,0.0,-0.8212,-0.9853,0.0,0.0,0.0,0.0,0.0,0.0,0.0,0.0,-0.9838,0.0,0.0,0.0,0.0,0.0,0.0,0.0,0.0,0.0,0.0,0.0,0.0,0.0,0.0,0.0,0.0,0.0,0.0,0.0,0.0,0.0,0.0,0.0,0.0,0.0,0.0,0.0,0.0,0.0,0.0,0.0,0.0,0.0,0.0,0.0,0.0,0.0,0.0,0.0,0.0,0.0,0.0,0.0,0.0,0.0,0.0,0.0,0.0,0.0,0.0,0.0,0.0,0.0,0.0,0.0,0.0,-1.541,-1.6265,-1.7001,-1.7616,-1.7732,-1.7789,-1.7774,-1.6483,-1.5635,-1.5287,0.0,0.0,0.0,0.0,0.0,0.0,0.0,0.0,0.0,0.0,0.0,0.0,0.0,0.0,0.0,0.0,0.0,0.0,0.0,0.0,0.0,0.0,0.0,0.0,0.0,0.0,0.0,0.0,0.0,0.0,0.0,0.0,0.0,0.0,0.0,0.0,0.0,0.0,0.0,-1.0487,-1.1104,0.0,0.0,0.0,0.0,0.0,0.0,0.0,0.0,-0.9052,0.0,0.0,0.0,0.0,0.0,0.0,0.0,0.0,0.0,0.0,0.0,0.0,0.0,0.0,0.0,0.0,0.0,0.0,0.0,0.0,0.0,0.0,0.0,0.0,0.0,0.0,0.0,0.0,0.0,0.0,0.0,0.0,0.0,0.0,0.0,0.0,0.0,0.0,0.0,0.0,0.0,0.0,0.0,0.0,0.0,0.0,0.0,0.0,0.0,0.0,0.0,0.0,0.0,0.0,0.0,-1.558,-1.6695,-1.7439,-1.7783,-1.7789,-1.7789,-1.7772,-1.6737,-1.5974,0.0,0.0,0.0,0.0,0.0,0.0,0.0,0.0,0.0,0.0,0.0,0.0,0.0,0.0,0.0,0.0,0.0,0.0,0.0,0.0,0.0,0.0,0.0,0.0,0.0,0.0,0.0,0.0,0.0,0.0,0.0,0.0,0.0,0.0,0.0,0.0,0.0,0.0,0.0,0.0,-1.124,-1.1722,-1.1713,0.0,0.0,0.0,0.0,0.0,0.0,-0.9466,-0.9322,0.0,0.0,0.0,0.0,0.0,0.0,0.0,0.0,0.0,0.0,0.0,0.0,0.0,0.0,0.0,0.0,0.0,0.0,0.0,0.0,0.0,0.0,0.0,0.0,0.0,0.0,0.0,0.0,0.0,0.0,0.0,0.0,0.0,0.0,0.0,0.0,0.0,0.0,0.0,0.0,0.0,0.0,0.0,0.0,0.0,0.0,0.0,0.0,0.0,0.0,0.0,0.0,0.0,0.0,0.0,-1.5597,-1.7048,-1.7789,-1.7789,-1.7789,-1.7789,-1.7783,-1.6931,-1.6187,0.0,0.0,0.0,0.0,0.0,0.0,0.0,0.0,0.0,0.0,0.0,0.0,0.0,0.0,0.0,0.0,0.0,0.0,0.0,0.0,0.0,0.0,0.0,0.0,0.0,0.0,0.0,0.0,0.0,0.0,0.0,0.0,0.0,0.0,0.0,0.0,0.0,0.0,0.0,0.0,0.0,-1.2356,-1.2499,-1.239,0.0,0.0,0.0,0.0,-1.0311,-1.0227,0.0,0.0,0.0,0.0,0.0,0.0,0.0,0.0,0.0,0.0,0.0,0.0,0.0,0.0,0.0,0.0,0.0,0.0,0.0,0.0,0.0,0.0,0.0,0.0,0.0,0.0,0.0,0.0,0.0,0.0,0.0,0.0,0.0,0.0,0.0,0.0,0.0,0.0,0.0,0.0,0.0,0.0,0.0,0.0,0.0,0.0,0.0,0.0,0.0,0.0,0.0,0.0,0.0,0.0,0.0,0.0,-1.5597,-1.7058,-1.7789,-1.7789,-1.7789,-1.7789,-1.7772,-1.6449,-1.566,0.0,0.0,0.0,0.0,0.0,0.0,0.0,0.0,0.0,0.0,0.0,0.0,0.0,0.0,0.0,0.0,0.0,0.0,0.0,0.0,0.0,0.0,0.0,0.0,0.0,0.0,0.0,0.0,0.0,0.0,0.0,0.0,0.0,0.0,0.0,0.0,0.0,0.0,0.0,0.0,0.0,-1.2525,-1.3193,-1.2719,-1.2271,0.0,0.0,-1.1078,-1.0978,-1.0969,0.0,0.0,0.0,0.0,0.0,0.0,0.0,0.0,0.0,0.0,0.0,0.0,0.0,0.0,0.0,0.0,0.0,0.0,0.0,0.0,0.0,0.0,0.0,0.0,0.0,0.0,0.0,0.0,0.0,0.0,0.0,0.0,0.0,0.0,0.0,0.0,0.0,0.0,0.0,0.0,0.0,0.0,0.0,0.0,0.0,0.0,0.0,0.0,0.0,0.0,0.0,0.0,0.0,0.0,0.0,-1.4124,-1.5587,-1.7048,-1.7789,-1.7789,-1.7789,-1.7789,-1.7789,-1.6771,-1.5989,0.0,0.0,0.0,0.0,0.0,0.0,0.0,0.0,0.0,0.0,0.0,0.0,0.0,0.0,0.0,0.0,0.0,0.0,0.0,0.0,0.0,0.0,0.0,0.0,0.0,0.0,0.0,0.0,0.0,0.0,0.0,0.0,0.0,0.0,0.0,0.0,0.0,0.0,0.0,0.0,0.0,0.0,-1.3354,-1.3117,0.0,0.0,0.0,-1.227,-1.184,0.0,0.0,0.0,0.0,0.0,0.0,0.0,0.0,0.0,0.0,0.0,0.0,0.0,0.0,0.0,0.0,0.0,0.0,0.0,0.0,0.0,0.0,0.0,0.0,0.0,0.0,0.0,0.0,0.0,0.0,0.0,0.0,0.0,0.0,0.0,0.0,0.0,0.0,0.0,0.0,0.0,0.0,0.0,0.0,0.0,0.0,0.0,0.0,0.0,0.0,0.0,0.0,0.0,0.0,0.0,0.0,0.0,-1.5578,-1.7058,-1.7789,-1.7789,-1.7789,-1.7789,-1.7783,-1.6906,0.0,0.0,0.0,0.0,0.0,0.0,0.0,0.0,0.0,0.0,0.0,0.0,0.0,0.0,0.0,0.0,0.0,0.0,0.0,0.0,0.0,0.0,0.0,0.0,0.0,0.0,0.0,-0.713,0.0,0.0,0.0,0.0,0.0,0.0,0.0,0.0,0.0,0.0,0.0,0.0,0.0,0.0,-1.3396,-1.3396,-1.3396,-1.3396,0.0,0.0,-1.3202,-1.2652,-1.2575,-1.2297,0.0,0.0,0.0,0.0,0.0,0.0,0.0,0.0,0.0,0.0,0.0,0.0,0.0,0.0,0.0,0.0,0.0,0.0,0.0,0.0,0.0,0.0,0.0,0.0,0.0,0.0,0.0,0.0,0.0,0.0,0.0,0.0,0.0,0.0,0.0,0.0,0.0,0.0,0.0,0.0,0.0,0.0,0.0,0.0,0.0,0.0,0.0,0.0,0.0,0.0,0.0,0.0,0.0,0.0,-1.4116,-1.5587,-1.7048,-1.7789,-1.7789,-1.7789,-1.7789,-1.7774,-1.6424,-1.5632,0.0,0.0,0.0,0.0,0.0,0.0,0.0,0.0,0.0,0.0,0.0,0.0,0.0,0.0,0.0,0.0,0.0,0.0,0.0,0.0,0.0,0.0,0.0,0.0,0.0,0.0,0.0,0.0,0.0,0.0,0.0,0.0,0.0,0.0,0.0,0.0,0.0,0.0,0.0,0.0,0.0,-1.3396,-1.3396,-1.3396,-1.3396,0.0,-1.3396,-1.3388,-1.3328,-1.332,-1.3066,-1.2339,0.0,0.0,0.0,0.0,0.0,0.0,0.0,0.0,0.0,0.0,0.0,0.0,0.0,0.0,0.0,0.0,0.0,0.0,0.0,0.0,0.0,0.0,0.0,0.0,0.0,0.0,0.0,0.0,0.0,0.0,0.0,0.0,0.0,0.0,0.0,0.0,0.0,0.0,0.0,0.0,0.0,0.0,0.0,0.0,0.0,0.0,0.0,0.0,0.0,0.0,0.0,0.0,0.0,-1.4571,-1.5604,-1.7048,-1.7789,-1.7789,-1.7789,-1.7789,-1.7791,-1.6824,-1.604,0.0,0.0,0.0,0.0,0.0,0.0,0.0,0.0,0.0,0.0,0.0,0.0,0.0,0.0,0.0,0.0,0.0,0.0,0.0,0.0,0.0,0.0,0.0,0.0,0.0,0.0,0.0,0.0,-0.7783,-0.7995,-0.8128,0.0,0.0,0.0,0.0,0.0,0.0,0.0,0.0,0.0,0.0,-1.3396,-1.3396,-1.3396,0.0,0.0,-1.3777,-1.3912,-1.3464,-1.3777,-1.3819,-1.31,-1.2609,0.0,0.0,0.0,0.0,0.0,0.0,0.0,0.0,0.0,0.0,0.0,0.0,0.0,0.0,0.0,0.0,0.0,0.0,0.0,0.0,0.0,0.0,0.0,0.0,0.0,0.0,0.0,0.0,0.0,0.0,0.0,0.0,0.0,0.0,0.0,0.0,0.0,0.0,0.0,0.0,0.0,0.0,0.0,0.0,0.0,0.0,0.0,0.0,0.0,0.0,0.0,0.0,-1.485,-1.5595,-1.7039,-1.7789,-1.7789,-1.7789,-1.7789,-1.7774,-1.6872,-1.6099,0.0,0.0,0.0,0.0,0.0,0.0,0.0,0.0,0.0,0.0,0.0,0.0,0.0,0.0,0.0,0.0,0.0,0.0,0.0,0.0,0.0,0.0,0.0,0.0,0.0,0.0,0.0,0.0,-0.8415,-0.8399,-0.8575,0.0,0.0,0.0,0.0,0.0,0.0,0.0,0.0,0.0,0.0,-1.3481,-1.3701,-1.3726,-1.3794,-1.4031,-1.4301,-1.4326,-1.3811,-1.3988,-1.3979,-1.3489,0.0,0.0,0.0,0.0,0.0,0.0,0.0,0.0,0.0,0.0,0.0,0.0,0.0,0.0,0.0,0.0,0.0,0.0,0.0,0.0,0.0,0.0,0.0,0.0,0.0,0.0,0.0,-1.476,0.0,0.0,-1.3692,0.0,0.0,0.0,0.0,0.0,0.0,0.0,0.0,0.0,0.0,0.0,0.0,0.0,0.0,0.0,0.0,0.0,0.0,0.0,0.0,0.0,0.0,-1.4867,-1.5613,-1.705,-1.7789,-1.7789,-1.7789,-1.7789,-1.7755,-1.6399,-1.5584,-1.5443,0.0,0.0,0.0,0.0,0.0,0.0,0.0,0.0,0.0,0.0,0.0,0.0,0.0,0.0,0.0,0.0,0.0,0.0,0.0,0.0,0.0,0.0,0.0,0.0,0.0,0.0,-0.8988,-0.8665,-0.8444,0.0,0.0,0.0,0.0,0.0,0.0,0.0,0.0,0.0,-1.3295,-1.3396,-1.3667,-1.436,-1.4478,-1.4715,-1.5401,-1.4952,-1.4504,-1.4461,-1.3895,-1.3413,0.0,0.0,0.0,0.0,0.0,0.0,0.0,0.0,0.0,0.0,0.0,0.0,0.0,0.0,0.0,0.0,0.0,0.0,0.0,0.0,0.0,0.0,0.0,0.0,0.0,0.0,0.0,-1.6039,-1.5432,0.0,0.0,0.0,0.0,0.0,0.0,0.0,0.0,0.0,0.0,0.0,-1.5396,-1.542,0.0,0.0,0.0,0.0,0.0,0.0,0.0,0.0,0.0,0.0,0.0,0.0,-1.5358,-1.5646,-1.7039,-1.7789,-1.7789,-1.7789,-1.7789,-1.7791,-1.6365,-1.4901,-1.3422,0.0,0.0,0.0,0.0,0.0,0.0,0.0,0.0,0.0,0.0,0.0,0.0,0.0,0.0,0.0,0.0,0.0,0.0,0.0,0.0,0.0,0.0,0.0,0.0,0.0,-0.8231,0.0,0.0,0.0,0.0,0.0,0.0,0.0,0.0,0.0,0.0,0.0,-1.2567,-1.3312,-1.3811,-1.4216,-1.4461,-1.4918,-1.5316,0.0,0.0,0.0,0.0,0.0,0.0,0.0,0.0,0.0,0.0,0.0,0.0,0.0,0.0,-1.2546,-1.239,-1.1942,-1.1496,-1.1186,0.0,0.0,0.0,0.0,0.0,0.0,0.0,0.0,0.0,0.0,0.0,0.0,0.0,0.0,-1.6832,-1.6428,-1.5994,0.0,0.0,0.0,0.0,0.0,0.0,0.0,0.0,-1.6458,-1.6721,-1.6137,-1.5996,-1.6086,0.0,-1.6268,-1.5794,0.0,0.0,0.0,0.0,0.0,0.0,0.0,0.0,-1.5723,-1.602,-1.7185,-1.7789,-1.7789,-1.7789,-1.7673,-1.7413,-1.5974,-1.4301,-1.2373,-1.2298,-1.1925,0.0,0.0,0.0,0.0,0.0,0.0,0.0,0.0,0.0,0.0,0.0,0.0,0.0,0.0,0.0,0.0,0.0,0.0,0.0,0.0,0.0,0.0,0.0,-0.867,0.0,0.0,0.0,0.0,0.0,0.0,0.0,0.0,0.0,-1.151,-1.2195,-1.2948,-1.3684,-1.4191,-1.4672,-1.5198,0.0,0.0,0.0,0.0,0.0,0.0,0.0,-1.3954,-1.3481,-1.3396,-1.3396,-1.3396,-1.3396,-1.3396,-1.3396,0.0,0.0,-1.3218,-1.2824,-1.2456,-1.2432,-1.2064,-1.1785,-1.1825,-1.1872,-1.1893,0.0,0.0,0.0,0.0,0.0,0.0,0.0,0.0,-1.7742,-1.7712,0.0,-1.7661,0.0,0.0,0.0,0.0,-1.4977,-1.6159,0.0,0.0,-1.7109,-1.7158,-1.6268,-1.6594,-1.6914,-1.7216,-1.7575,-1.7347,-1.6565,-1.4964,0.0,0.0,0.0,0.0,0.0,0.0,-1.5986,-1.6663,-1.7433,-1.7789,-1.7789,-1.7789,-1.743,-1.6671,-1.5274,-1.3827,-1.2432,-1.2356,-1.1983,-1.1179,-1.0407,0.0,0.0,0.0,0.0,0.0,0.0,0.0,0.0,0.0,0.0,0.0,0.0,0.0,0.0,0.0,0.0,0.0,0.0,0.0,0.0,-1.0193,0.0,0.0,0.0,0.0,0.0,0.0,0.0,0.0,0.0,0.0,-1.2331,-1.2965,-1.3692,-1.4394,0.0,0.0,0.0,0.0,-1.6984,-1.7656,-1.6576,-1.5629,-1.5587,-1.4395,-1.3447,-1.3396,0.0,0.0,-1.3396,-1.3396,-1.3396,-1.3396,-1.3439,-1.3439,-1.3447,-1.3413,-1.3371,-1.3413,-1.3337,-1.3371,-1.3371,-1.3227,-1.3269,-2.1078,0.0,0.0,0.0,0.0,-1.9121,-1.9129,-1.9084,-1.8627,-1.8409,-1.8395,-1.7908,0.0,0.0,0.0,0.0,0.0,0.0,-1.707,-1.6495,-1.7317,-1.7135,-1.6153,-1.6482,-1.6789,-1.706,-1.7476,-1.7535,-1.7269,-1.6294,-1.5512,-1.4916,0.0,0.0,0.0,0.0,-1.6485,-1.6722,-1.7422,-1.7789,-1.7789,-1.7789,-1.7191,-1.5944,-1.4994,-1.4056,-1.3125,-1.3083,-1.2736,-1.1984,-1.1679,0.0,0.0,0.0,0.0,0.0,0.0,0.0,0.0,0.0,0.0,0.0,0.0,0.0,0.0,0.0,0.0,0.0,0.0,0.0,-0.9627,-1.0137,-1.0042,0.0,0.0,0.0,0.0,0.0,0.0,0.0,0.0,0.0,-1.3041,-1.3726,-1.4258,0.0,0.0,-1.6223,-1.6648,-1.7154,-1.7563,-1.7766,-1.6999,0.0,-1.568,-1.4817,-1.4014,-1.3498,-1.3396,-1.3396,-1.3396,-1.3396,-1.3396,-1.3405,-1.3819,-1.4183,-1.4157,-1.3743,-1.3616,-1.4005,-1.3769,-1.3413,-1.3396,-1.3396,-1.3396,-2.1827,-2.046,-2.0206,-1.9955,-1.9715,-1.9715,-1.9715,-1.967,-1.9263,-1.9091,-1.9069,-1.868,-1.8117,-1.7473,-1.7219,0.0,0.0,0.0,-1.7743,-1.7122,-1.7503,-1.7263,-1.651,-1.6474,-1.662,-1.6896,-1.7292,-1.7494,-1.7544,-1.7188,-1.6744,-1.6211,0.0,0.0,-1.5883,-1.6416,-1.6841,-1.7137,-1.7572,-1.7789,-1.778,-1.7225,-1.6373,-1.5198,-1.4462,-1.3845,-1.3422,-1.3396,-1.3193,-1.2745,-1.2384,-1.1743,0.0,0.0,0.0,0.0,0.0,0.0,0.0,0.0,0.0,0.0,0.0,-0.7042,-0.7435,0.0,0.0,0.0,-0.9217,-0.9579,-1.001,-1.0685,0.0,0.0,0.0,0.0,0.0,0.0,0.0,-1.2415,-1.263,-1.2905,-1.3354,-1.4301,-1.4935,-1.4944,-1.596,-1.6798,-1.7054,0.0,-1.7622,-1.733,-1.6665,-1.5942,-1.5227,-1.4529,-1.3895,-1.3472,-1.3396,-1.3396,-1.3396,-1.3396,-1.3515,-1.3802,-1.4199,-1.4698,-1.5248,-1.4776,-1.4386,-1.4816,-1.4352,-1.387,-1.3845,-1.3625,-1.3396,-2.2368,-2.1724,-2.1134,-2.0483,-1.9872,-1.9805,-1.9775,-1.9783,-1.973,-1.9715,-1.9715,-1.9715,-1.9333,-1.8665,-1.8005,0.0,-1.7802,-1.8416,-1.8356,-1.7781,-1.7781,-1.7502,-1.6977,-1.6554,-1.6475,-1.6691,-1.7089,-1.7344,-1.7482,-1.7673,-1.7789,-1.7746,-1.6317,-1.595,-1.666,-1.6758,-1.7128,-1.7783,-1.78,-1.7766,-1.769,-1.6262,-1.5181,-1.452,-1.3777,-1.3396,-1.3396,-1.3396,-1.3396,-1.3371,-1.2696,-1.2244,-1.2079,0.0,0.0,0.0,0.0,0.0,0.0,0.0,0.0,0.0,0.0,0.0,0.0,0.0,0.0,0.0,-1.0576,0.0,-1.1005,-1.1601,0.0,0.0,0.0,-1.1002,-1.1727,-1.1959,-1.2348,-1.3038,0.0,0.0,-1.3481,-1.4699,-1.5621,-1.5661,-1.6314,-1.6997,-1.7606,-1.761,-1.7321,-1.6639,-1.5942,-1.5223,-1.4587,-1.3894,-1.3455,-1.3405,-1.3396,-1.3396,-1.3413,-1.3506,-1.3777,-1.4344,-1.4596,-1.5019,-1.6375,-1.5969,-1.568,-1.5671,-1.5037,-1.4478,-1.4419,-1.3887,-1.3396,-2.3019,-2.2456,-2.2306,-2.1849,-2.1198,-2.0685,-2.0468,-2.0423,-1.9925,-1.9715,-1.9715,-1.9715,-1.9323,-1.8672,-1.7997,-1.7975,-1.8468,-1.8635,-1.8603,-1.8461,-1.8478,-1.7906,-1.6955,-1.6914,-1.677,-1.6506,-1.6825,-1.7073,-1.728,-1.7522,-1.7681,-1.7712,-1.7392,-1.7319,-1.7499,-1.7529,-1.7625,-1.7794,-1.7789,-1.7532,-1.6931,-1.5518,-1.4673,-1.4504,-1.3786,-1.3396,-1.3396,-1.3396,-1.3396,-1.3396,-1.3219,-1.2839,-1.2274,-1.1323,0.0,0.0,0.0,0.0,0.0,0.0,0.0,0.0,0.0,-0.773,-0.8466,0.0,-0.9931,0.0,-1.1382,-1.1806,-1.1806,-1.1964,0.0,0.0,-1.1646,-1.1687,-1.1926,-1.2429,-1.2876,-1.3147,-1.3217,-1.3479,-1.4095,-1.4992,-1.5797,-1.6294,-1.7034,-1.7572,-1.7618,-1.7462,-1.7128,-1.6481,-1.6127,-1.5609,-1.451,-1.3799,-1.3396,-1.3396,-1.3396,-1.3396,-1.3396,-1.387,-1.4292,-1.4537,-1.5451,-1.6028,-1.596,-1.6138,-1.6426,-1.635,-1.5409,-1.4495,-1.4487,-1.3895,-1.3312,-2.34,-2.3115,-2.31,-2.2897,-2.2473,-2.1545,-2.0957,-2.0658,-2.0303,-1.9992,-1.9715,-1.9715,-1.9473,-1.9129,-1.877,-1.8782,-1.9136,-1.9154,-1.9144,-1.9114,-1.8829,-1.833,-1.7667,-1.7174,-1.6832,-1.6675,-1.6637,-1.6747,-1.6977,-1.7296,-1.7514,-1.7598,-1.7746,-1.7789,-1.7789,-1.7789,-1.7789,-1.7791,-1.7473,-1.6959,-1.6206,-1.5096,-1.4343,-1.4014,-1.3616,-1.3396,-1.3396,-1.3396,-1.3396,-1.3396,-1.3396,-1.3227,-1.2804,-1.2068,-1.1299,0.0,0.0,0.0,0.0,0.0,0.0,0.0,0.0,0.0,0.0,0.0,-1.1267,-1.2,-1.2151,-1.2327,-1.2647,-1.2672,-1.2656,-1.2623,-1.2598,-1.2557,-1.2531,-1.2811,-1.3022,-1.3102,-1.3395,-1.379,-1.4307,-1.536,-1.6199,-1.6533,-1.7152,-1.7561,-1.7511,-1.7349,-1.6883,-1.5962,-1.575,-1.5291,-1.4088,-1.3624,-1.3396,-1.3396,-1.3396,-1.3396,-1.3413,-1.4014,-1.4596,-1.4995,-1.5927,-1.6697,-1.6602,-1.6872,-1.7185,-1.705,-1.6289,-1.5561,-1.5468,-1.482,-1.4206,-2.3571,-2.3504,-2.3565,-2.3557,-2.34,-2.2368,-2.1515,-2.0815,-2.0725,-2.0333,-1.9715,-1.9715,-1.9715,-1.9715,-1.9715,-1.9715,-1.9715,-1.9715,-1.9715,-1.9678,-1.9091,-1.8785,-1.8642,-1.7421,-1.6878,-1.6977,-1.653,-1.644,-1.6722,-1.7118,-1.7368,-1.7517,-1.7704,-1.7789,-1.7789,-1.7789,-1.7789,-1.7783,-1.6984,-1.6248,-1.5605,-1.4791,-1.4056,-1.3439,-1.3396,-1.3396,-1.3396,-1.3396,-1.3396,-1.3396,-1.3396,-1.3396,-1.3388,-1.2711,-1.1992,0.0,-1.0563,0.0,0.0,0.0,0.0,0.0,0.0,0.0,0.0,-1.1983,-1.2719,-1.3337,-1.2804,-1.2711,-1.3345,-1.3489,-1.3506,-1.3413,-1.3472,-1.3447,-1.3226,-1.3161,-1.3118,-1.3135,-1.3761,-1.428,-1.4618,-1.5797,-1.661,-1.665,-1.6999,-1.73,-1.7333,-1.7183,-1.6637,-1.5463,-1.5213,-1.4907,-1.4095,-1.3777,-1.376,-1.3726,-1.3794,-1.3693,-1.3752,-1.4352,-1.5019,-1.5637,-1.6367,-1.701,-1.7563,-1.7616,-1.7614,-1.7529,-1.701,-1.6587,-1.6517,-1.5876,-1.5344,-2.3324,-2.292,-2.3393,-2.3303,-2.289,-2.3116,-2.2577,-2.1478,-2.0946,-2.0326,-1.9715,-1.9715,-1.9715,-1.9715,-1.9715,-1.9715,-1.9715,-1.9715,-1.9715,-1.9682,-1.9573,-1.9226,-1.8672,-1.7885,-1.7336,-1.6977,-1.6508,-1.6469,-1.6802,-1.713,-1.7392,-1.7569,-1.7724,-1.7789,-1.7789,0.0,0.0,0.0,-1.6492,-1.5749,-1.5571,-1.4302,-1.3549,-1.3405,-1.3396,0.0,-1.3396,-1.3396,-1.3396,-1.3396,-1.3396,0.0,0.0,0.0,0.0,0.0,0.0,0.0,0.0,0.0,0.0,0.0,-1.2499,-1.255,-1.2128,-1.2753,-1.3235,-1.3388,-1.3269,-1.3244,-1.3379,-1.3938,-1.4056,-1.3506,-1.3946,-1.4012,-1.3319,-1.3565,-1.3805,-1.382,-1.4412,-1.5095,-1.5704,-1.6166,-1.658,-1.702,-1.7158,-1.7138,-1.7146,-1.7004,-1.6616,-1.5967,-1.5553,-1.5312,-1.5204,-1.513,-1.5046,-1.5172,-1.5181,-1.5138,-1.5156,-1.5732,-1.6248,-1.6477,-1.7103,-1.7397,-1.7044,-1.6908,-1.701,-1.6936,-1.6826,-1.6697,-1.668,-1.5982,-1.5232,-2.3243,-2.2755,-2.3369,-2.3251,0.0,-2.3362,-2.3064,-2.2149,-2.1485,-2.064,-1.9723,-1.9715,-1.9715,-1.9715,-1.9715,-1.9715,-1.9715,-1.9715,-1.9715,-1.9715,-1.9715,-1.9528,-1.9166,-1.8169,-1.7629,-1.7478,-1.6669,-1.6448,-1.6747,-1.7138,-1.738,-1.7549,-1.7724,-1.7789,-1.7791,-1.7439,-1.7272,-1.7261,-1.618,-1.5426,-1.5029,-1.398,-1.3396,-1.3396,-1.3396,0.0,0.0,0.0,0.0,0.0,0.0,0.0,0.0,0.0,0.0,-1.2314,-1.1916,-1.1695,-1.1705,-1.206,-1.2458,-1.2829,-1.3523,-1.3642,-1.2914,-1.3515,-1.3938,-1.3963,-1.4276,-1.4497,-1.4496,-1.4826,-1.4893,-1.4564,-1.4817,-1.4839,-1.4452,-1.4481,-1.4554,-1.4576,-1.5016,-1.5573,-1.5965,-1.6333,-1.6654,-1.6999,-1.7013,-1.6963,-1.6986,-1.6914,-1.6659,-1.6165,-1.5697,-1.5439,-1.5566,-1.5595,-1.5612,-1.5595,-1.5595,-1.5595,-1.5595,-1.6206,-1.6697,-1.6747,-1.7304,-1.765,-1.7354,-1.7238,-1.7255,-1.7236,-1.7206,-1.7173,-1.7143,-1.6697,-1.622,-2.3189,-2.2598,-2.3309,-2.3204,-2.2568,-2.3309,-2.3272,-2.2643,0.0,0.0,0.0,-1.9715,-1.9715,-1.9715,-1.9715,-1.9726,-1.9718,-1.9759,-1.9762,-1.9764,-1.9797,-1.973,-1.9564,-1.8367,-1.7815,-1.7868,-1.6863,-1.6499,-1.6786,-1.7154,-1.7415,-1.7541,-1.7704,-1.7789,-1.7749,-1.7061,-1.6639,-1.6477,-1.5781,-1.5122,-1.4504,-1.3777,-1.3396,-1.3396,-1.3396,-1.3396,-1.3396,-1.3396,-1.3396,-1.3396,-1.3396,-1.3464,-1.3591,-1.3599,-1.3388,-1.2931,-1.2889,-1.2864,-1.288,-1.2889,-1.3143,-1.3752,-1.4352,-1.4386,-1.3659,-1.4267,-1.4698,-1.4707,-1.5257,-1.5587,-1.5595,-1.5722,-1.5747,-1.5621,-1.5723,-1.5718,-1.5501,-1.544,-1.5328,-1.525,-1.5629,-1.5927,-1.5958,-1.6392,-1.673,-1.6771,-1.6797,-1.6818,-1.6876,-1.6902,-1.6802,-1.649,-1.6171,-1.5898,-1.5979,-1.6077,-1.5984,-1.6103,-1.6069,-1.5984,-1.6079,-1.6494,-1.6857,-1.6948,-1.7422,-1.7715,-1.778,-1.7749,-1.7789,-1.7789,-1.7729,-1.765,-1.7541,-1.74,-1.7126,-2.2914,-2.1926,-2.3108,-2.2929,-2.1919,-2.3101,-2.3272,-2.2598,-2.1388,-2.0423,-1.9723,-1.9715,-1.9715,-1.9715,-1.9715,-1.9733,-1.9797,-1.9902,-1.9983,-2.0055,-2.0168,-1.9886,-1.9246,-1.8497,-1.7938,-1.7543,-1.6932,-1.6812,-1.7113,-1.7364,-1.7552,-1.7676,-1.7758,-1.7789,-1.7741,-1.7069,-1.6392,-1.5766,-1.5019,-1.4605,-1.4495,-1.3777,-1.3396,-1.3396,-1.3396,-1.3396,-1.3396,-1.3396,-1.3396,-1.3396,-1.3396,-1.3684,-1.4292,-1.4344,-1.458,-1.5079,-1.513,-1.5138,-1.5123,-1.513,-1.5172,-1.5275,-1.5384,-1.513,-1.4444,-1.5029,-1.5451,-1.5443,-1.5587,-1.5595,-1.5629,-1.6189,-1.6307,-1.5791,-1.6199,-1.6258,-1.5613,-1.5843,-1.5984,-1.5818,-1.6196,-1.6415,-1.6294,-1.6372,-1.6477,-1.661,-1.6727,-1.6818,-1.6831,-1.6912,-1.7027,-1.7128,-1.7183,-1.7283,-1.7283,-1.747,-1.736,-1.7479,-1.7394,-1.731,-1.7293,-1.7419,-1.7546,-1.7614,-1.7698,-1.7772,-1.7789,-1.7789,-1.7789,-1.7789,-1.7721,-1.7569,-1.738,-1.715,-1.6904,-2.2899,-2.2131,-2.2624,-2.2533,-2.2139,-2.3418,-2.3403,-2.2466,-2.1843,-2.1065,-2.0247,-1.9862,-1.9715,-1.9715,-1.9715,-1.9787,-1.9919,-2.0075,-2.0224,-2.0354,-2.0171,-1.9908,-1.9492,-1.8488,-1.7914,-1.7727,-1.7265,-1.713,-1.7356,-1.7552,-1.7704,-1.7749,-1.7789,-1.7789,-1.7749,-1.7069,-1.6527,-1.6172,-1.507,-1.4327,-1.3921,-1.3566,-1.3396,-1.3396,-1.3396,-1.3396,-1.3396,-1.3396,-1.3396,-1.3396,-1.3396,-1.3735,-1.4453,-1.4495,-1.4834,-1.5536,-1.5595,-1.5595,-1.5595,-1.5595,-1.5595,-1.5604,-1.5977,-1.607,-1.5732,-1.6003,-1.6208,-1.6214,-1.6553,-1.6796,-1.6805,-1.7101,-1.7143,-1.6838,-1.7109,-1.7108,-1.6697,-1.6691,-1.6704,-1.6479,-1.643,-1.6396,-1.6248,-1.613,-1.6165,-1.635,-1.6639,-1.6813,-1.6818,-1.6877,-1.6996,-1.7171,-1.734,-1.7537,-1.7746,-1.7789,-1.7789,-1.7789,-1.7789,-1.7789,-1.7789,-1.7789,-1.7789,-1.7789,-1.7789,-1.7789,-1.7789,-1.7789,-1.7789,-1.7789,-1.765,-1.7462,-1.7236,-1.6825,-1.6461,-2.2847,-2.2234,-2.2333,-2.2403,-2.2541,-2.3572,-2.3417,-2.249,-2.2296,-2.1773,-2.0942,-2.0174,-1.9841,-1.9826,-1.9851,-1.9947,-2.0143,-2.0345,-2.0549,-2.0699,-2.0408,-2.0109,-1.9716,-1.8639,-1.8065,-1.7851,-1.7502,-1.7407,-1.7561,-1.7704,-1.7789,-1.7789,-1.7789,-1.7789,-1.7783,-1.69,-1.6443,-1.635,-1.5003,-1.4064,-1.3658,-1.3498,-1.3396,-1.3396,-1.3396,-1.3396,-1.3396,-1.3396,-1.3396,-1.3396,-1.3396,-1.3819,-1.4673,-1.474,-1.5146,-1.5967,-1.6103,-1.6086,-1.6103,-1.6094,-1.6103,-1.6103,-1.6627,-1.6951,-1.6942,-1.6942,-1.6942,-1.701,-1.7422,-1.7749,-1.7724,-1.7758,-1.7791,-1.7789,-1.7789,-1.7684,-1.7584,-1.738,-1.7142,-1.6863,-1.6501,-1.622,-1.6067,-1.5906,-1.5962,-1.6295,-1.6612,-1.6808,-1.6818,-1.6873,-1.6995,-1.7072,-1.7224,-1.7455,-1.7724,-1.7789,-1.7789,-1.7789,-1.7789,-1.7789,-1.7789,-1.7789,-1.7789,-1.7789,-1.7789,-1.7789,-1.7789,-1.7789,-1.7789,-1.7789,-1.7627,-1.7356,-1.6977,-1.6474,-1.6089,-2.2647,-2.2158,-2.2645,-2.2928,-2.2913,-2.3079,-2.3063,-2.2851,-2.2309,-2.1975,-2.1705,-2.073,-2.0245,-2.0252,-2.026,-2.0367,-2.0563,-2.0771,-2.0982,-2.1214,-2.1313,-2.0687,-1.959,-1.9296,-1.8626,-1.7629,-1.7497,-1.7552,-1.7676,-1.7752,-1.7789,-1.7789,-1.7789,-1.7789,-1.7648,-1.6424,-1.5722,-1.569,-1.426,-1.3794,-1.4326,-1.3735,-1.3396,-1.3396,-1.3396,-1.3396,-1.3396,-1.3396,-1.3396,-1.3396,-1.3396,-1.4031,-1.5275,-1.5468,-1.6111,-1.7411,-1.7555,-1.7597,-1.758,-1.7597,-1.7538,-1.7605,-1.7597,-1.7667,-1.7648,-1.7673,-1.7701,-1.7701,-1.7741,-1.7789,-1.7789,-1.7789,-1.7789,-1.7789,-1.7789,-1.7726,-1.7517,-1.7264,-1.6994,-1.6667,-1.632,-1.6069,-1.5949,-1.5863,-1.6011,-1.6415,-1.6602,-1.6738,-1.6802,-1.6929,-1.7054,-1.7051,-1.7134,-1.7384,-1.7689,-1.7789,-1.7789,-1.7789,-1.7789,-1.7789,-1.7789,-1.7789,-1.7789,-1.7789,-1.7789,-1.7789,-1.7789,-1.7789,-1.7789,-1.7724,-1.7534,-1.7216,-1.6628,-1.6143,-1.5906,-2.2612,-2.2345,-2.2183,-2.2361,-2.2798,-2.3168,-2.3129,-2.2741,-2.2467,-2.211,-2.1681,-2.1199,-2.091,-2.0721,-2.0713,-2.0828,-2.1023,-2.1229,-2.1431,-2.162,-2.1431,-2.1019,-2.0456,-1.9486,-1.8797,-1.8284,-1.7871,-1.7704,-1.7758,-1.7789,-1.7789,-1.7789,-1.7789,-1.7789,-1.7718,-1.6771,-1.6257,-1.6214,-1.4792,-1.4208,-1.4377,-1.3786,-1.3396,-1.3396,-1.3396,-1.3396,-1.3396,-1.3396,-1.3396,-1.3396,-1.3396,-1.387,-1.4885,-1.4952,-1.5612,-1.701,-1.7574,-1.7789,-1.7789,-1.7789,-1.7789,-1.7789,-1.7789,-1.7789,-1.7789,-1.7789,-1.7789,-1.7789,-1.7789,-1.7789,-1.7789,-1.7789,-1.7789,-1.7789,-1.7789,-1.7701,-1.7467,-1.7126,-1.6815,-1.6496,-1.6165,-1.5913,-1.5856,-1.5891,-1.606,-1.6375,-1.6514,-1.6633,-1.6776,-1.6925,-1.7063,-1.7171,-1.7284,-1.7479,-1.7735,-1.7789,-1.7789,-1.7789,-1.7789,-1.7789,-1.7789,-1.7789,-1.7789,-1.7789,-1.7789,-1.7789,-1.7789,-1.7758,-1.7738,-1.7615,-1.7207,-1.6776,-1.6365,-1.6033,-1.5856,-2.2506,-2.244,-2.1928,-2.2027,-2.2555,-2.3012,-2.297,-2.2547,-2.2514,-2.22,-2.1738,-2.1713,-2.1584,-2.1362,-2.1213,-2.1253,-2.1447,-2.1622,-2.1786,-2.1922,-2.1641,-2.141,-2.108,-1.9858,-1.9096,-1.88,-1.8138,-1.7789,-1.7789,-1.7789,-1.7789,-1.7789,-1.7789,-1.7698,-1.7428,-1.6775,-1.6282,-1.5977,-1.4834,-1.42,-1.4124,-1.3684,-1.3396,-1.3396,-1.3396,-1.3396,-1.3396,-1.3396,-1.3396,-1.3396,-1.3396,-1.3726,-1.4444,-1.4495,-1.5061,-1.6257,-1.6889,-1.7202,-1.7211,-1.7377,-1.7507,-1.7495,-1.7656,-1.7789,-1.7789,-1.7789,-1.7789,-1.7789,-1.7789,-1.7789,-1.7789,-1.7789,-1.7789,-1.7789,-1.7789,-1.7681,-1.7428,-1.7035,-1.6699,-1.6409,-1.6075,-1.5814,-1.582,-1.5891,-1.6039,-1.6226,-1.6382,-1.6562,-1.6771,-1.6955,-1.7122,-1.7324,-1.7462,-1.7607,-1.7758,-1.7789,-1.7789,-1.7789,-1.7789,-1.7789,-1.7789,-1.7789,-1.7789,-1.7789,-1.7789,-1.7789,-1.778,-1.7738,-1.7552,-1.7349,-1.6955,-1.6477,-1.6228,-1.597,-1.5835,-2.2319,-2.2321,-2.2285,-2.2257,-2.2336,-2.2375,-2.2372,-2.2329,-2.2324,-2.2288,-2.224,-2.2231,-2.2245,-2.2143,-2.1698,-2.1593,-2.1766,-2.1869,-2.2003,-2.216,-2.22,-2.1854,-2.1165,-2.0327,-1.9583,-1.897,-1.8172,-1.7789,-1.7789,-1.7789,-1.7789,-1.7789,-1.7789,-1.7439,-1.6815,-1.6096,-1.5316,-1.4732,-1.3946,-1.3489,-1.3481,-1.343,-1.3396,-1.3396,-1.3396,-1.3396,-1.3396,-1.3396,-1.3396,-1.3396,-1.3396,-1.3726,-1.4377,-1.4495,-1.4858,-1.5553,-1.5722,-1.5747,-1.5874,-1.6384,-1.6773,-1.6857,-1.738,-1.7783,-1.7789,-1.7789,-1.7789,-1.7789,-1.7789,-1.7789,-1.7789,-1.7789,-1.7789,-1.7789,-1.7789,-1.7681,-1.7432,-1.7027,-1.6707,-1.6417,-1.6055,-1.5828,-1.5813,-1.5856,-1.5948,-1.6088,-1.626,-1.649,-1.6771,-1.7018,-1.7244,-1.7459,-1.7607,-1.7726,-1.7789,-1.7789,-1.7789,-1.7789,-1.7789,-1.7789,-1.7789,-1.7789,-1.7789,-1.7789,-1.778,-1.7772,-1.7769,-1.7604,-1.7332,-1.7039,-1.6672,-1.6295,-1.6111,-1.5942,-1.5835,-2.2305,-2.2305,-2.2305,-2.2305,-2.2305,-2.2305,-2.2305,-2.2305,-2.2305,-2.2305,-2.2305,-2.2305,-2.2305,-2.2274,-2.2092,-2.204,-2.2123,-2.2135,-2.2194,-2.2254,-2.2305,-2.2175,-2.1803,-2.0623,-1.9892,-1.9473,-1.8374,-1.7789,-1.7789,-1.7789,-1.7789,-1.7789,-1.7789,-1.743,-1.6697,-1.5969,-1.524,-1.4495,-1.3777,-1.3396,-1.3396,-1.3396,-1.3396,-1.3396,-1.3396,-1.3396,-1.3396,-1.3396,-1.3396,-1.3396,-1.3396,-1.3515,-1.3794,-1.4259,-1.4605,-1.491,-1.535,-1.5595,-1.5621,-1.5842,-1.6214,-1.6673,-1.6925,-1.7337,-1.7681,-1.7789,-1.7789,-1.7789,-1.7789,-1.7789,-1.7789,-1.7789,-1.7789,-1.7789,-1.7789,-1.7701,-1.7416,-1.7047,-1.6693,-1.6425,-1.6047,-1.5814,-1.582,-1.5827,-1.5856,-1.592,-1.6109,-1.6417,-1.6746,-1.703,-1.7313,-1.7601,-1.7735,-1.776,-1.7789,-1.7789,-1.7789,-1.7789,-1.7789,-1.7789,-1.7789,-1.7789,-1.7789,-1.7789,-1.7772,-1.7673,-1.7615,-1.7284,-1.7019,-1.6712,-1.6322,-1.6151,-1.5998,-1.587,-1.582,-2.2305,-2.2305,-2.2305,-2.2305,-2.2305,-2.2305,-2.2305,-2.2305,-2.2305,-2.2305,-2.2305,-2.2305,-2.2305,-2.2305,-2.2305,-2.2305,-2.2305,-2.2305,-2.2305,-2.2305,-2.2305,-2.2305,-2.2093,-2.0995,-2.0251,-1.9799,-1.849,-1.7789,-1.7789,-1.7789,-1.7789,-1.7789,-1.7789,-1.7295,-1.6426,-1.5833,-1.5155,-1.4242,-1.365,-1.3396,-1.3396,-1.3396,-1.3396,-1.3396,-1.3396,-1.3396,-1.3396,-1.3396,-1.3396,-1.3396,-1.3396,-1.3396,-1.3455,-1.387,-1.4141,-1.42,-1.4597,-1.4876,-1.4928,-1.5096,-1.5563,-1.6282,-1.6595,-1.701,-1.769,-1.7789,-1.7789,-1.7789,-1.7789,-1.7789,-1.7789,-1.7789,-1.7789,-1.7789,-1.7789,-1.7692,-1.7464,-1.7113,-1.672,-1.6328,-1.6032,-1.5891,-1.587,-1.5891,-1.5906,-1.592,-1.6159,-1.6463,-1.6802,-1.7093,-1.7381,-1.7704,-1.7777,-1.778,-1.7808,-1.7808,-1.7842,-1.785,-1.7789,-1.7789,-1.7789,-1.7789,-1.7789,-1.7789,-1.7712,-1.7581,-1.7328,-1.6981,-1.6665,-1.6377,-1.6159,-1.597,-1.5885,-1.5842,-1.5806,-2.2355,-2.2372,-2.2313,-2.2347,-2.2305,-2.2305,-2.2305,-2.2305,-2.2305,-2.2305,-2.2305,-2.2305,-2.2305,-2.2305,-2.2305,-2.2305,-2.2305,-2.2305,-2.2305,-2.2305,-2.2305,-2.2305,-2.2237,-2.1456,-2.0593,-1.9862,-1.8527,-1.785,-1.7789,-1.7789,-1.7789,-1.7789,-1.7789,-1.7109,-1.5654,-1.5578,-1.4876,-1.3777,-1.3422,-1.3396,-1.3396,-1.3396,-1.3396,-1.3396,-1.3396,-1.3396,-1.3396,-1.3396,-1.3396,-1.3396,-1.3396,-1.3396,-1.3396,-1.3481,-1.3439,-1.3489,-1.3481,-1.3464,-1.3574,-1.4157,-1.4817,-1.5536,-1.6258,-1.6883,-1.7498,-1.7741,-1.7789,-1.7789,-1.7789,-1.7789,-1.7789,-1.7789,-1.7789,-1.7789,-1.7789,-1.7715,-1.7502,-1.7216,-1.6755,-1.6203,-1.6018,-1.6018,-1.6018,-1.6081,-1.6137,-1.6256,-1.6444,-1.6693,-1.6968,-1.724,-1.7487,-1.7701,-1.7805,-1.7822,-1.7825,-1.7825,-1.7876,-1.7901,-1.7822,-1.7789,-1.7789,-1.7789,-1.7766,-1.7735,-1.7511,-1.7361,-1.6977,-1.6644,-1.6421,-1.6159,-1.597,-1.5863,-1.5835,-1.5806,-1.5806,-2.3503,-2.308,-2.3063,-2.2744,-2.2338,-2.2305,-2.2305,-2.2305,-2.2305,-2.2305,-2.2305,-2.2305,-2.2305,-2.2305,-2.2305,-2.2305,-2.2305,-2.2305,-2.2305,-2.2305,-2.2305,-2.2305,-2.2153,-2.1532,-2.0522,-1.9384,-1.88,-1.8276,-1.7876,-1.7789,-1.7789,-1.7789,-1.7789,-1.7033,-1.5671,-1.5561,-1.4877,-1.3583,-1.3396,-1.3396,-1.3396,-1.3396,-1.3396,-1.3396,-1.3396,-1.3396,-1.3396,-1.3396,-1.3396,-1.3396,-1.3396,-1.3396,-1.3396,-1.3396,-1.3396,-1.3396,-1.3396,-1.3396,-1.3413,-1.3625,-1.4099,-1.48,-1.5536,-1.6257,-1.6993,-1.7523,-1.7774,-1.7789,-1.7789,-1.7789,-1.7789,-1.7789,-1.7789,-1.7789,-1.7789,-1.7735,-1.7557,-1.7207,-1.6747,-1.6334,-1.6213,-1.6226,-1.6246,-1.6301,-1.6458,-1.6652,-1.6811,-1.7016,-1.7212,-1.7529,-1.7546,-1.7738,-1.7803,-1.8138,-1.84,-1.8603,-1.8662,-1.8603,-1.8434,-1.8121,-1.8028,-1.7906,-1.785,-1.7546,-1.7316,-1.7027,-1.6644,-1.6367,-1.6143,-1.6019,-1.5899,-1.5835,-1.5814,-1.5814,-1.5814,-2.4237,-2.3797,-2.3511,-2.3139,-2.2682,-2.2431,-2.2305,-2.2305,-2.2305,-2.2305,-2.2305,-2.2305,-2.2305,-2.2305,-2.2305,-2.2305,-2.2305,-2.2305,-2.2305,-2.2305,-2.2305,-2.2305,-2.2127,-2.1219,-2.0331,-1.9359,-1.8758,-1.8259,-1.7825,-1.7789,-1.7789,-1.7789,-1.7789,-1.7056,-1.5739,-1.5553,-1.4877,-1.3616,-1.3396,-1.3396,-1.3396,-1.3396,-1.3396,-1.3396,-1.3396,-1.3396,-1.3396,-1.3396,-1.3396,-1.3396,-1.3396,-1.3396,-1.3396,-1.3396,-1.3396,-1.3396,-1.3396,-1.3396,-1.3396,-1.3422,-1.3718,-1.4453,-1.5181,-1.5918,-1.6637,-1.7363,-1.7774,-1.7789,-1.7789,-1.7789,-1.7789,-1.7789,-1.7789,-1.7789,-1.7789,-1.7724,-1.7537,-1.7236,-1.6876,-1.6581,-1.6482,-1.6469,-1.6488,-1.6599,-1.6896,-1.7208,-1.7483,-1.7805,-1.8075,-1.8372,-1.8447,-1.855,-1.8777,-1.9059,-1.9237,-1.938,-1.949,-1.938,-1.9228,-1.8806,-1.8513,-1.831,-1.8183,-1.7379,-1.6964,-1.6691,-1.6334,-1.6136,-1.5948,-1.587,-1.5835,-1.582,-1.5814,-1.5814,-1.5814,-2.4618,-2.4465,-2.378,-2.3444,-2.3257,-2.2592,-2.2305,-2.2305,-2.2305,-2.2305,-2.2305,-2.2305,-2.2305,-2.2305,-2.2305,-2.2305,-2.2305,-2.2305,-2.2305,-2.2305,-2.2296,-2.2254,-2.1964,-2.0906,-2.0158,-1.9608,-1.8569,-1.7935,-1.7789,-1.7789,-1.7789,-1.7789,-1.7738,-1.7115,-1.5984,-1.5663,-1.4919,-1.376,-1.3455,-1.3396,-1.3396,-1.3396,-1.3396,-1.3396,-1.3396,-1.3396,-1.3396,-1.3396,-1.3396,-1.3396,-1.3396,-1.3396,-1.3396,-1.3396,-1.3396,-1.3396,-1.3396,-1.3396,-1.3396,-1.3396,-1.3709,-1.4444,-1.5189,-1.5901,-1.6639,-1.7346,-1.7789,-1.7789,-1.7789,-1.7789,-1.7789,-1.7789,-1.7789,-1.7789,-1.7789,-1.7715,-1.7541,-1.734,-1.7101,-1.6842,-1.6773,-1.6855,-1.6898,-1.7079,-1.7561,-1.8176,-1.8526,-1.8893,-1.9277,-1.9479,-1.9833,-1.9812,-1.9571,-1.9811,-1.9959,-2.0111,-2.0264,-2.0572,-2.031,-1.9794,-1.9149,-1.8833,-1.8539,-1.7688,-1.6963,-1.6577,-1.626,-1.6196,-1.5983,-1.5835,-1.5814,-1.5814,-1.5814,-1.5814,-1.5829,-2.5795,-2.5245,-2.4516,-2.3907,-2.3334,-2.26,-2.2305,-2.2305,-2.2305,-2.2305,-2.2305,-2.2305,-2.2305,-2.2305,-2.2305,-2.2305,-2.2305,-2.2305,-2.2305,-2.2305,-2.2305,-2.1964,-2.158,-2.1097,-2.0247,-1.9274,-1.8733,-1.8327,-1.7822,-1.7789,-1.7789,-1.7789,-1.7772,-1.7354,-1.6485,-1.5857,-1.5138,-1.4242,-1.3616,-1.3396,-1.3396,-1.3396,-1.3396,-1.3396,-1.3396,-1.3396,-1.3396,-1.3396,-1.3396,-1.3396,-1.3396,-1.3396,-1.3396,-1.3396,-1.3396,-1.3396,-1.3396,-1.3396,-1.3396,-1.3396,-1.3752,-1.4444,-1.5189,-1.5908,-1.6639,-1.7371,-1.7741,-1.7789,-1.7789,-1.7789,-1.7789,-1.7789,-1.7789,-1.7789,-1.7789,-1.7789,-1.7712,-1.7589,-1.7408,-1.7183,-1.7163,-1.7424,-1.7764,-1.809,-1.8526,-1.9269,-1.9576,-1.9723,-2.0127,-2.0207,-2.0386,-2.0111,-1.9968,-2.0352,-2.0636,-2.0788,-2.1109,-2.1662,-2.1502,-2.0995,-2.0203,-1.9449,-1.9093,-1.8529,-1.7874,-1.7417,-1.6944,-1.6676,-1.6323,-1.5949,-1.5821,-1.5821,-1.5814,-1.5814,-1.5851,-2.6446,-2.5964,-2.4948,-2.4254,-2.3738,-2.2742,-2.2305,-2.2305,-2.2305,-2.2305,-2.2305,-2.2305,-2.2305,-2.2305,-2.2305,-2.2305,-2.2305,-2.2305,-2.2305,-2.2229,-2.1972,-2.1613,-2.1207,-2.0911,-2.0044,-1.8978,-1.8589,-1.82,-1.7859,-1.7789,-1.7789,-1.7789,-1.7789,-1.7403,-1.6673,-1.5959,-1.524,-1.4487,-1.3785,-1.3396,-1.3396,-1.3396,-1.3396,-1.3396,-1.3396,-1.3396,-1.3396,-1.3396,-1.3396,-1.3396,-1.3396,-1.3396,-1.3396,-1.3396,-1.3396,-1.3396,-1.3396,-1.3396,-1.3396,-1.3405,-1.3752,-1.4453,-1.5171,-1.59,-1.6629,-1.7363,-1.7789,-1.7789,-1.7789,-1.7789,-1.7789,-1.7789,-1.7789,-1.7789,-1.7789,-1.7789,-1.7789,-1.7692,-1.7581,-1.7505,-1.7685,-1.7987,-1.8497,-1.8885,-1.958,-2.0229,-2.0478,-2.0711,-2.0995,-2.091,-2.0876,-2.0766,-2.0792,-2.1189,-2.1388,-2.1498,-2.1507,-2.2068,-2.211,-2.1721,-2.1022,-2.0085,-1.9534,-1.9104,-1.8657,-1.8207,-1.7708,-1.7151,-1.6608,-1.6263,-1.6024,-1.5881,-1.5903,-1.6076,-1.6069,-2.67,-2.6581,-2.521,-2.4567,-2.4262,-2.3029,-2.2406,-2.2305,-2.2305,-2.2305,-2.2305,-2.2305,-2.2305,-2.2305,-2.2305,-2.2305,-2.2305,-2.2305,-2.2305,-2.2085,-2.1659,-2.1178,-2.0894,-2.0196,-1.9465,-1.8699,-1.8082,-1.7884,-1.7789,-1.7789,-1.7789,-1.7789,-1.7789,-1.747,-1.6857,-1.6052,-1.5291,-1.4665,-1.3819,-1.3422,-1.3396,-1.3396,-1.3396,-1.3396,-1.3396,-1.3396,-1.3396,-1.3396,-1.3396,-1.3396,-1.3396,-1.3396,-1.3396,-1.3396,-1.3396,-1.3396,-1.3396,-1.3396,-1.3439,-1.3515,-1.3887,-1.4665,-1.5375,-1.6027,-1.6824,-1.7479,-1.7789,-1.7789,-1.7789,-1.7789,-1.7789,-1.7789,-1.7789,-1.7789,-1.7789,-1.7817,-1.7901,-1.7879,-1.7785,-1.7714,-1.8357,-1.8742,-1.9094,-1.9588,-2.0428,-2.1095,-2.1312,-2.1448,-2.1667,-2.1696,-2.1764,-2.1865,-2.1958,-2.2127,-2.2195,-2.2203,-2.2153,-2.2279,-2.2271,-2.1995,-2.1507,-2.0716,-2.0025,-1.9546,-1.9481,-1.9053,-1.8376,-1.7759,-1.7148,-1.6786,-1.6675,-1.6361,-1.6121,-1.6443,-1.6555,-2.67,-2.6615,-2.5744,-2.5017,-2.4406,-2.356,-2.2826,-2.2305,-2.2305,-2.2305,-2.2305,-2.2305,-2.2305,-2.2305,-2.2305,-2.2305,-2.2305,-2.2305,-2.2305,-2.2203,-2.1532,-2.0813,-2.0247,-1.9473,-1.8767,-1.8175,-1.7901,-1.7789,-1.7789,-1.7789,-1.7789,-1.7789,-1.778,-1.7724,-1.7394,-1.6221,-1.5544,-1.5138,-1.4082,-1.3422,-1.3396,-1.3396,-1.3396,-1.3396,-1.3396,-1.3396,-1.3396,-1.3396,-1.3396,-1.3396,-1.3396,-1.3396,-1.3396,-1.3396,-1.3396,-1.3396,-1.3396,-1.3396,-1.3489,-1.3912,-1.4572,-1.5248,-1.5952,-1.6762,-1.7453,-1.7656,-1.7789,-1.7789,-1.7789,-1.7789,-1.7789,-1.7789,-1.7789,-1.7789,-1.7859,-1.8082,-1.8504,-1.8611,-1.8545,-1.8733,-1.9247,-1.9951,-2.0499,-2.0634,-2.127,-2.1887,-2.2073,-2.2141,-2.2226,-2.2296,-2.2305,-2.2305,-2.2305,-2.2305,-2.2305,-2.2305,-2.2305,-2.2305,-2.2305,-2.2288,-2.1799,-2.1527,-2.0917,-2.0637,-2.0528,-1.9932,-1.9143,-1.8555,-1.796,-1.7654,-1.7316,-1.7078,-1.6937,-1.7071,-1.7176,-2.67,-2.6623,-2.5913,-2.5177,-2.4448,-2.3721,-2.2987,-2.2398,-2.2305,-2.2305,-2.2305,-2.2305,-2.2305,-2.2305,-2.2305,-2.2305,-2.2305,-2.2296,-2.2099,-2.1684,-2.0966,-2.02,-1.9477,-1.8784,-1.8129,-1.7805,-1.7789,-1.7789,-1.7789,-1.7789,-1.7789,-1.7789,-1.7789,-1.778,-1.7588,-1.6356,-1.5663,-1.5292,-1.4175,-1.3396,-1.3396,-1.3396,-1.3396,-1.3396,-1.3396,-1.3396,-1.3396,-1.3396,-1.3396,-1.3396,-1.3396,-1.3396,-1.3396,-1.3396,-1.3396,-1.3396,-1.3396,-1.3396,-1.3574,-1.409,-1.4799,-1.5553,-1.6274,-1.7016,-1.758,-1.7789,-1.7789,-1.7789,-1.7789,-1.7789,-1.7789,-1.7789,-1.7789,-1.7876,-1.8121,-1.8479,-1.88,-1.8894,-1.9063,-1.9435,-2.0082,-2.0619,-2.1089,-2.141,-2.171,-2.2144,-2.2169,-2.2243,-2.2251,-2.2305,-2.2305,-2.2305,-2.2305,-2.2305,-2.2305,-2.2305,-2.2305,-2.2305,-2.2305,-2.2305,-2.2116,-2.1995,-2.1882,-2.1506,-2.103,-2.0636,-1.9908,-1.9339,-1.8712,-1.8296,-1.7975,-1.7833,-1.7684,-1.758,-1.776,-2.67,-2.6657,-2.6023,-2.5354,-2.4618,-2.39,-2.319,-2.2541,-2.233,-2.2305,-2.2305,-2.2305,-2.2305,-2.2305,-2.2305,-2.2305,-2.2305,-2.2262,-2.2006,-2.1275,-2.0509,-1.9756,-1.9003,-1.8318,-1.7876,-1.7789,-1.7789,-1.7789,-1.7789,-1.7789,-1.7789,-1.7789,-1.7789,-1.7789,-1.7487,-1.6407,-1.5595,-1.5401,-1.4158,-1.3396,-1.3396,-1.3396,-1.3396,-1.3396,-1.3396,-1.3396,-1.3396,-1.3396,-1.3396,-1.3396,-1.3396,-1.3396,-1.3396,-1.3396,-1.3396,-1.3396,-1.3396,-1.3396,-1.3591,-1.4208,-1.5011,-1.5604,-1.6432,-1.7103,-1.7659,-1.7789,-1.7789,-1.7789,-1.7789,-1.7789,-1.7789,-1.7789,-1.7867,-1.8062,-1.8572,-1.8936,-1.9219,-1.9261,-1.968,-2.0145,-2.0839,-2.1405,-2.1608,-2.1854,-2.211,-2.2305,-2.2305,-2.2305,-2.2305,-2.2305,-2.2305,-2.2305,-2.2305,-2.2305,-2.2305,-2.2305,-2.2305,-2.2322,-2.2322,-2.233,-2.233,-2.224,-2.2071,-2.1744,-2.1322,-2.0878,-2.0355,-1.9651,-1.912,-1.8804,-1.868,-1.8575,-1.8343,-1.8059,-1.8393,-2.67,-2.6691,-2.6573,-2.6082,-2.5355,-2.4635,-2.3898,-2.3181,-2.2606,-2.2313,-2.233,-2.2305,-2.2305,-2.2305,-2.2305,-2.2305,-2.2305,-2.2271,-2.1862,-2.1106,-2.0327,-1.9608,-1.8758,-1.8141,-1.7817,-1.7789,-1.7789,-1.7789,-1.7789,-1.7789,-1.7789,-1.7789,-1.7789,-1.7789,-1.7411,-1.6424,-1.5671,-1.5426,-1.4251,-1.3549,-1.3405,-1.3396,-1.3396,-1.3396,-1.3396,-1.3396,-1.3396,-1.3396,-1.3396,-1.3396,-1.3396,-1.3396,-1.3396,-1.3396,-1.3396,-1.3396,-1.3396,-1.3396,-1.354,-1.4589,-1.5299,-1.5884,-1.6712,-1.7462,-1.7741,-1.7789,-1.7789,-1.7789,-1.7789,-1.7789,-1.7789,-1.7789,-1.8121,-1.8496,-1.8902,-1.9435,-2.0353,-2.0716,-2.0725,-2.1008,-2.1608,-2.2031,-2.2065,-2.2085,-2.2203,-2.2305,-2.2305,-2.2305,-2.2305,-2.2305,-2.2305,-2.2305,-2.2305,-2.2305,-2.2305,-2.2305,-2.2313,-2.2347,-2.2355,-2.2389,-2.2372,-2.2322,-2.2123,-2.1821,-2.1394,-2.0902,-2.0362,-1.9834,-1.9569,-1.9273,-1.9288,-1.9303,-1.9148,-1.8984,-1.9309,-2.67,-2.67,-2.67,-2.6268,-2.5617,-2.5228,-2.466,-2.3924,-2.3198,-2.2877,-2.2744,-2.2499,-2.2305,-2.2305,-2.2305,-2.2305,-2.2305,-2.2305,-2.1659,-2.0707,-2.0149,-1.9363,-1.8467,-1.7946,-1.7842,-1.7789,-1.7789,-1.7789,-1.7789,-1.7789,-1.7789,-1.7789,-1.7789,-1.7789,-1.758,-1.6762,-1.601,-1.5487,-1.4555,-1.3752,-1.3439,-1.3396,-1.3396,-1.3396,-1.3396,-1.3396,-1.3396,-1.3396,-1.3396,-1.3396,-1.3396,-1.3396,-1.3396,-1.3396,-1.3405,-1.3413,-1.343,-1.3413,-1.3532,-1.4454,-1.5113,-1.5671,-1.6686,-1.7388,-1.7681,-1.7789,-1.7789,-1.7789,-1.7789,-1.7789,-1.7789,-1.7805,-1.8155,-1.8775,-1.9232,-2.0018,-2.0919,-2.1495,-2.1664,-2.1684,-2.1972,-2.22,-2.2237,-2.2262,-2.2296,-2.2305,-2.2305,-2.2305,-2.2305,-2.2305,-2.2305,-2.2305,-2.2305,-2.2305,-2.2305,-2.2305,-2.244,-2.2482,-2.2567,-2.26,-2.2691,-2.2744,-2.2356,-2.1875,-2.1425,-2.1054,-2.0473,-1.9974,-1.9849,-1.9715,-1.9621,-1.9581,-1.9821,-1.9995,-2.0187,-2.67,-2.67,-2.67,-2.6353,-2.5854,-2.5651,-2.527,-2.4651,-2.3932,-2.3511,-2.3331,-2.2818,-2.2457,-2.233,-2.2305,-2.2305,-2.2288,-2.22,-2.1248,-2.0263,-1.9786,-1.9025,-1.8146,-1.7789,-1.7789,-1.7789,-1.7789,-1.7789,-1.7789,-1.7789,-1.7789,-1.7789,-1.7789,-1.7789,-1.7605,-1.6976,-1.6358,-1.5773,-1.4892,-1.4149,-1.3591,-1.3396,-1.3396,-1.3396,-1.3396,-1.3396,-1.3396,-1.3396,-1.3396,-1.3396,-1.3396,-1.3396,-1.3396,-1.3396,-1.3464,-1.3582,-1.3608,-1.3625,-1.3862,-1.4632,-1.5502,-1.5942,-1.6553,-1.7194,-1.758,-1.7789,-1.7789,-1.7789,-1.7789,-1.7789,-1.7814,-1.7969,-1.8408,-1.9084,-1.9837,-2.0547,-2.1312,-2.1854,-2.2107,-2.2186,-2.2305,-2.2305,-2.2305,-2.2305,-2.2305,-2.2305,-2.2305,-2.2305,-2.2305,-2.2305,-2.2305,-2.2305,-2.2305,-2.2305,-2.2305,-2.2305,-2.2539,-2.2801,-2.2978,-2.3122,-2.3224,-2.3334,-2.2865,-2.2488,-2.1759,-2.1341,-2.0716,-2.0118,-1.9879,-1.9726,-1.9744,-1.9869,-2.0098,-2.0342,-2.0554,-2.67,-2.67,-2.6691,-2.6649,-2.6454,-2.5905,-2.5576,-2.5397,-2.4694,-2.3983,-2.3486,-2.3289,-2.2868,-2.2423,-2.2305,-2.2305,-2.2141,-2.1656,-2.094,-2.0048,-1.9406,-1.8707,-1.7918,-1.7797,-1.7789,-1.7789,-1.7789,-1.7789,-1.7789,-1.7789,-1.7789,-1.7789,-1.7789,-1.7789,-1.7724,-1.7177,-1.6682,-1.6333,-1.5215,-1.42,-1.3608,-1.3481,-1.3489,-1.3413,-1.3404,-1.3421,-1.3421,-1.343,-1.3421,-1.3396,-1.3396,-1.3396,-1.3396,-1.3396,-1.3786,-1.414,-1.4368,-1.4386,-1.4572,-1.5377,-1.6147,-1.6443,-1.7075,-1.7608,-1.7774,-1.7789,-1.7789,-1.7789,-1.7789,-1.7789,-1.7918,-1.8374,-1.9034,-1.9727,-2.0395,-2.1202,-2.1947,-2.2006,-2.2262,-2.2305,-2.2305,-2.2305,-2.2305,-2.2305,-2.2305,-2.2305,-2.2305,-2.2305,-2.2305,-2.2305,-2.2305,-2.2305,-2.2305,-2.2305,-2.2457,-2.2431,-2.2742,-2.308,-2.3537,-2.3748,-2.3807,-2.3912,-2.3885,-2.3402,-2.2508,-2.1477,-2.0702,-2.0177,-1.9861,-1.9808,-1.9879,-2.0108,-2.0409,-2.0646,-2.0918,-2.6475,-2.6666,-2.6251,-2.6327,-2.6657,-2.6336,-2.6226,-2.6065,-2.5431,-2.4704,-2.4034,-2.3551,-2.2987,-2.2406,-2.2305,-2.2305,-2.2141,-2.1503,-2.0763,-1.998,-1.9223,-1.8496,-1.7952,-1.7789,-1.7789,-1.7789,-1.7789,-1.7789,-1.7789,-1.7789,-1.7789,-1.7789,-1.7789,-1.7789,-1.7789,-1.7487,-1.7094,-1.6557,-1.573,-1.4876,-1.4332,-1.4144,-1.3998,-1.3587,-1.3562,-1.3588,-1.3581,-1.3488,-1.3446,-1.3404,-1.3396,-1.3396,-1.3396,-1.3447,-1.3726,-1.4436,-1.4919,-1.5096,-1.5215,-1.5825,-1.629,-1.6665,-1.7061,-1.7306,-1.7639,-1.7789,-1.7789,-1.7789,-1.7789,-1.7805,-1.7952,-1.8488,-1.9186,-1.9947,-2.083,-2.149,-2.209,-2.2203,-2.2305,-2.2305,-2.2305,-2.2305,-2.2305,-2.2305,-2.2305,-2.2305,-2.2305,-2.2305,-2.2305,-2.2305,-2.2305,-2.2305,-2.2305,-2.2305,-2.2524,-2.2682,-2.3071,-2.3545,-2.4526,-2.4644,-2.4508,-2.4498,-2.444,-2.3751,-2.2573,-2.1606,-2.0719,-2.016,-1.979,-1.9879,-2.0048,-2.0334,-2.0655,-2.1087,-2.1369,-2.5945,-2.634,-2.5896,-2.606,-2.657,-2.6731,-2.6816,-2.674,-2.6263,-2.5473,-2.4508,-2.3604,-2.2781,-2.242,-2.2305,-2.2296,-2.2212,-2.1321,-2.0636,-1.9896,-1.9105,-1.8344,-1.7935,-1.7789,-1.7789,-1.7789,-1.7789,-1.7789,-1.7789,-1.7789,-1.7789,-1.7789,-1.7789,-1.7789,-1.7789,-1.769,-1.7416,-1.6763,-1.637,-1.5751,-1.5211,-1.5167,-1.4861,-1.4538,-1.4304,-1.4297,-1.4233,-1.4237,-1.4178,-1.3786,-1.3752,-1.3701,-1.3489,-1.3676,-1.4141,-1.4851,-1.5478,-1.6001,-1.6145,-1.6441,-1.6494,-1.6764,-1.6993,-1.7363,-1.7681,-1.7789,-1.7789,-1.7789,-1.7789,-1.7884,-1.8172,-1.8792,-1.9587,-2.0344,-2.1092,-2.1684,-2.215,-2.2245,-2.2305,-2.2305,-2.2305,-2.2305,-2.2305,-2.2305,-2.2305,-2.2305,-2.2305,-2.2305,-2.2322,-2.2338,-2.2516,-2.2584,-2.275,-2.286,-2.3198,-2.3376,-2.3638,-2.402,-2.5009,-2.5533,-2.5397,-2.513,-2.495,-2.3975,-2.2818,-2.1894,-2.112,-2.0398,-1.9754,-1.996,-2.0197,-2.0556,-2.0926,-2.1392,-2.1749,-2.4874,-2.5613,-2.5917,-2.6079,-2.6167,-2.689,-2.7122,-2.6974,-2.6976,-2.6076,-2.4621,-2.3295,-2.2499,-2.2327,-2.2305,-2.2305,-2.2237,-2.0758,-2.0259,-1.9625,-1.8679,-1.807,-1.7834,-1.7789,-1.7789,-1.7789,-1.7789,-1.7789,-1.7789,-1.7789,-1.7789,-1.7789,-1.7789,-1.7789,-1.78,-1.7788,-1.7605,-1.7175,-1.7017,-1.6707,-1.6264,-1.6155,-1.614,-1.6095,-1.6112,-1.6142,-1.599,-1.5679,-1.5271,-1.4624,-1.4475,-1.4226,-1.398,-1.4208,-1.4783,-1.5495,-1.607,-1.6671,-1.7081,-1.7293,-1.7546,-1.7665,-1.7667,-1.7597,-1.7763,-1.7789,-1.7789,-1.7822,-1.7918,-1.8217,-1.875,-1.9502,-2.0247,-2.0779,-2.1388,-2.1882,-2.2229,-2.2254,-2.2305,-2.2305,-2.2305,-2.2305,-2.2305,-2.2305,-2.2305,-2.2305,-2.2305,-2.2305,-2.2389,-2.2457,-2.2818,-2.3029,-2.3289,-2.3611,-2.4169,-2.4398,-2.4492,-2.475,-2.5443,-2.6007,-2.6269,-2.5958,-2.5488,-2.458,-2.3502,-2.2503,-2.1498,-2.073,-2.0212,-2.0177,-2.0378,-2.0796,-2.1253,-2.1721,-2.1997,-2.495,-2.4433,-2.5541,-2.5932,-2.577,-2.6041,-2.6163,-2.6163,-2.614,-2.548,-2.4235,-2.3084,-2.2446,-2.2352,-2.2305,-2.2305,-2.2161,-2.1262,-2.056,-1.9828,-1.9017,-1.8285,-1.802,-1.7814,-1.7789,-1.7789,-1.7789,-1.7789,-1.7789,-1.7789,-1.7789,-1.7789,-1.7789,-1.7789,-1.78,-1.7878,-1.7817,-1.7867,-1.7818,-1.7627,-1.7214,-1.7119,-1.7022,-1.6545,-1.6526,-1.6456,-1.6283,-1.6124,-1.581,-1.552,-1.5293,-1.4964,-1.4716,-1.5012,-1.5502,-1.6113,-1.6587,-1.7084,-1.7622,-1.7789,-1.7789,-1.7789,-1.7791,-1.7789,-1.7789,-1.7789,-1.7789,-1.791,-1.8214,-1.8606,-1.8919,-1.9968,-2.0928,-2.13,-2.1701,-2.2144,-2.2305,-2.2305,-2.2305,-2.2305,-2.2305,-2.2305,-2.2305,-2.2305,-2.2305,-2.2305,-2.2305,-2.2347,-2.2491,-2.2736,-2.3139,-2.3621,-2.3924,-2.4195,-2.4719,-2.5008,-2.5263,-2.5544,-2.5857,-2.6143,-2.6462,-2.6412,-2.5865,-2.5024,-2.4104,-2.3024,-2.2004,-2.1095,-2.0602,-2.0393,-2.0655,-2.111,-2.1577,-2.2084,-2.2174,-2.5296,-2.4626,-2.5432,-2.5605,-2.5372,-2.5803,-2.5856,-2.571,-2.5976,-2.5226,-2.3981,-2.3136,-2.2614,-2.246,-2.2427,-2.2427,-2.2237,-2.1607,-2.0989,-2.0246,-1.9445,-1.8697,-1.8217,-1.7918,-1.7789,-1.7789,-1.7789,-1.7789,-1.7789,-1.7789,-1.7789,-1.7789,-1.7789,-1.7789,-1.7833,-1.7968,-1.8161,-1.8342,-1.8505,-1.8502,-1.8088,-1.815,-1.8115,-1.7576,-1.7576,-1.75,-1.7375,-1.7197,-1.6763,-1.6396,-1.6068,-1.5811,-1.574,-1.585,-1.6206,-1.657,-1.6959,-1.7278,-1.7631,-1.7789,-1.7789,-1.7789,-1.7789,-1.7789,-1.7789,-1.7817,-1.7859,-1.8242,-1.864,-1.9063,-1.9371,-2.0589,-2.1326,-2.1651,-2.1938,-2.2305,-2.2305,-2.2305,-2.2305,-2.2305,-2.2305,-2.2322,-2.2474,-2.2499,-2.2516,-2.2448,-2.2305,-2.2499,-2.2877,-2.3181,-2.3613,-2.4129,-2.4636,-2.4898,-2.5202,-2.5583,-2.5906,-2.5824,-2.6066,-2.6088,-2.6279,-2.6229,-2.5918,-2.4968,-2.4097,-2.3333,-2.2494,-2.1561,-2.0941,-2.0475,-2.0989,-2.1633,-2.2117,-2.2548,-2.2307,-2.5848,-2.6418,-2.5757,-2.5293,-2.5158,-2.6472,-2.6655,-2.6095,-2.6532,-2.5845,-2.4199,-2.3336,-2.2889,-2.2734,-2.2699,-2.2708,-2.2565,-2.1958,-2.143,-2.0947,-2.0035,-1.92,-1.8629,-1.8265,-1.7952,-1.7814,-1.7789,-1.7789,-1.7789,-1.7789,-1.7789,-1.7789,-1.7789,-1.7811,-1.7833,-1.8059,-1.8291,-1.852,-1.8807,-1.8902,-1.8938,-1.8979,-1.8898,-1.8831,-1.8767,-1.8636,-1.845,-1.8209,-1.7752,-1.7256,-1.6874,-1.6492,-1.6091,-1.646,-1.6722,-1.6834,-1.7397,-1.769,-1.7789,-1.7789,-1.7789,-1.7789,-1.7789,-1.7789,-1.7817,-1.7893,-1.8121,-1.8581,-1.9054,-1.9769,-2.0488,-2.1224,-2.1651,-2.1938,-2.2203,-2.2305,-2.2305,-2.2305,-2.2305,-2.2305,-2.2305,-2.2347,-2.2567,-2.2719,-2.2767,-2.2665,-2.2398,-2.2643,-2.3249,-2.3799,-2.4306,-2.4704,-2.5262,-2.5625,-2.5938,-2.6302,-2.6514,-2.6368,-2.6185,-2.6093,-2.5906,-2.5741,-2.5313,-2.4751,-2.4309,-2.3762,-2.2916,-2.2003,-2.1642,-2.1403,-2.1705,-2.2235,-2.2725,-2.3063,-2.2961,-2.6346,-2.664,-2.688,-2.6603,-2.6036,-2.5954,-2.6116,-2.6306,-2.5973,-2.5129,-2.4048,-2.3444,-2.3221,-2.308,-2.3028,-2.3037,-2.2946,-2.2824,-2.2362,-2.1474,-2.0793,-1.989,-1.919,-1.8677,-1.8276,-1.7918,-1.7808,-1.7789,-1.7789,-1.7789,-1.7789,-1.7789,-1.78,-1.7867,-1.802,-1.8224,-1.8447,-1.8688,-1.8931,-1.9108,-1.9223,-1.9259,-1.9288,-1.9288,-1.9288,-1.9227,-1.9101,-1.8816,-1.8428,-1.799,-1.7638,-1.7314,-1.7014,-1.7364,-1.7363,-1.7397,-1.7774,-1.7783,-1.7789,-1.7789,-1.7789,-1.7789,-1.7789,-1.7789,-1.7808,-1.8318,-1.864,-1.9125,-1.9811,-2.0505,-2.1085,-2.1698,-2.209,-2.2144,-2.2305,-2.2305,-2.2305,-2.2305,-2.2305,-2.2305,-2.2305,-2.2305,-2.2448,-2.3097,-2.3266,-2.3562,-2.3469,-2.3613,-2.4127,-2.4678,-2.5203,-2.5448,-2.5862,-2.6277,-2.6623,-2.6674,-2.659,-2.634,-2.6077,-2.5832,-2.5605,-2.5415,-2.5361,-2.5135,-2.4718,-2.4217,-2.3143,-2.2306,-2.2456,-2.2507,-2.2848,-2.3208,-2.3734,-2.4008,-2.4008,-2.6923,-2.7436,-2.7677,-2.7677,-2.7308,-2.6577,-2.6429,-2.6389,-2.5363,-2.4391,-2.3856,-2.3649,-2.3502,-2.3369,-2.3335,-2.3346,-2.3335,-2.3236,-2.3019,-2.2124,-2.1699,-2.0888,-2.0035,-1.9178,-1.8655,-1.8211,-1.7901,-1.7789,-1.7789,-1.7789,-1.7789,-1.7789,-1.78,-1.7939,-1.8123,-1.8345,-1.8574,-1.8825,-1.9051,-1.9214,-1.9269,-1.9291,-1.9288,-1.9288,-1.928,-1.9243,-1.9106,-1.893,-1.8735,-1.8526,-1.8285,-1.8053,-1.7968,-1.7878,-1.7811,-1.7789,-1.7789,-1.7789,-1.7789,-1.7789,-1.7789,-1.7789,-1.7789,-1.7789,-1.7927,-1.8417,-1.8953,-1.9579,-2.0547,-2.114,-2.1597,-2.2175,-2.2237,-2.2305,-2.2305,-2.2305,-2.2305,-2.2305,-2.2305,-2.2305,-2.2305,-2.2305,-2.2482,-2.3266,-2.3856,-2.4245,-2.4618,-2.4795,-2.4931,-2.5329,-2.5795,-2.6048,-2.6218,-2.6488,-2.6657,-2.6683,-2.6555,-2.6321,-2.5975,-2.5602,-2.5519,-2.5352,-2.5435,-2.54,-2.4791,-2.4057,-2.3114,-2.2583,-2.2916,-2.3447,-2.4042,-2.4417,-2.4814,-2.4804,-2.4728,-2.7519,-2.8757,-2.8154,-2.8264,-2.8675,-2.7732,-2.709,-2.6409,-2.4892,-2.4126,-2.3916,-2.3855,-2.3755,-2.3651,-2.3619,-2.3621,-2.361,-2.3556,-2.3352,-2.2988,-2.2384,-2.1718,-2.091,-1.9945,-1.9268,-1.8731,-1.8327,-1.7994,-1.7842,-1.7789,-1.7789,-1.7789,-1.7789,-1.797,-1.8187,-1.8427,-1.866,-1.8896,-1.9115,-1.9243,-1.9289,-1.9288,-1.9288,-1.9288,-1.928,-1.926,-1.9157,-1.9042,-1.8887,-1.8669,-1.84,-1.8225,-1.8074,-1.792,-1.7842,-1.7789,-1.7789,-1.7789,-1.7789,-1.7789,-1.7789,-1.7789,-1.7789,-1.7789,-1.8045,-1.8569,-1.927,-1.9938,-2.0805,-2.1507,-2.2141,-2.2203,-2.2288,-2.2305,-2.2305,-2.2305,-2.2305,-2.2305,-2.2305,-2.2305,-2.2305,-2.2398,-2.2742,-2.3416,-2.4369,-2.4856,-2.5262,-2.5659,-2.5743,-2.5634,-2.6074,-2.6429,-2.6564,-2.6623,-2.67,-2.67,-2.6513,-2.6304,-2.5705,-2.5341,-2.5299,-2.5277,-2.5285,-2.5109,-2.4625,-2.3991,-2.3399,-2.332,-2.3555,-2.4162,-2.4813,-2.5029,-2.5228,-2.5227,-2.5134,-2.7209,-2.8154,-2.8512,-2.8475,-2.7961,-2.6677,-2.5934,-2.565,-2.5152,-2.4719,-2.4094,-2.4094,-2.4026,-2.4035,-2.4026,-2.4006,-2.3976,-2.3895,-2.3732,-2.3394,-2.3017,-2.2341,-2.1637,-2.0879,-2.0034,-1.9229,-1.8682,-1.8378,-1.796,-1.7867,-1.7873,-1.7789,-1.791,-1.8046,-1.8225,-1.8466,-1.8688,-1.8913,-1.9146,-1.9257,-1.9288,-1.9288,-1.9288,-1.9288,-1.9288,-1.9268,-1.9223,-1.9142,-1.9008,-1.8834,-1.8577,-1.8373,-1.8229,-1.8044,-1.7917,-1.78,-1.7789,-1.7789,-1.7789,-1.7789,-1.7789,-1.7817,-1.7842,-1.7789,-1.8121,-1.8831,-1.9672,-2.0352,-2.1147,-2.1924,-2.2203,-2.2262,-2.2305,-2.2305,-2.2305,-2.2305,-2.2305,-2.2319,-2.2319,-2.2392,-2.2392,-2.2768,-2.3099,-2.3922,-2.4829,-2.537,-2.5845,-2.6242,-2.6412,-2.6251,-2.626,-2.6607,-2.67,-2.67,-2.67,-2.67,-2.6496,-2.6208,-2.5641,-2.519,-2.511,-2.5106,-2.5095,-2.4858,-2.4481,-2.4273,-2.4033,-2.4002,-2.3908,-2.4726,-2.5357,-2.5491,-2.5609,-2.5642,-2.5775,-2.6594,-2.7356,-2.7842,-2.7585,-2.6751,-2.5815,-2.5237,-2.498,-2.4915,-2.4603,-2.4236,-2.419,-2.4208,-2.418,-2.418,-2.418,-2.417,-2.4064,-2.3907,-2.3751,-2.3576,-2.2962,-2.2326,-2.1671,-2.087,-2.0025,-1.9443,-1.9169,-1.8679,-1.8603,-1.8653,-1.8273,-1.8239,-1.8191,-1.8284,-1.8448,-1.8697,-1.8921,-1.9121,-1.9257,-1.9288,-1.9288,-1.9288,-1.9288,-1.9288,-1.9291,-1.9286,-1.9205,-1.9133,-1.9025,-1.8798,-1.8623,-1.844,-1.8213,-1.7961,-1.7842,-1.7789,-1.7789,-1.7789,-1.7789,-1.7789,-1.7876,-1.8053,-1.8248,-1.8611,-1.9253,-1.9955,-2.064,-2.1569,-2.2305,-2.2305,-2.2305,-2.2305,-2.2305,-2.2305,-2.2305,-2.2319,-2.2333,-2.2406,-2.2478,-2.275,-2.315,-2.3747,-2.4584,-2.5244,-2.5723,-2.6169,-2.6579,-2.6673,-2.6581,-2.6522,-2.6666,-2.67,-2.67,-2.67,-2.6649,-2.6461,-2.6147,-2.5623,-2.5229,-2.5044,-2.4645,-2.437,-2.4374,-2.4394,-2.4317,-2.432,-2.4147,-2.4188,-2.5008,-2.5609,-2.5659,-2.5862,-2.6182,-2.6376,-2.5843,-2.6502,-2.6501,-2.6181,-2.5467,-2.5301,-2.4879,-2.4245,-2.4282,-2.4208,-2.4208,-2.4208,-2.4208,-2.4208,-2.4208,-2.4208,-2.4199,-2.4132,-2.4055,-2.3916,-2.3707,-2.3275,-2.2763,-2.2147,-2.1481,-2.1011,-2.0504,-1.993,-1.9909,-1.9681,-1.9321,-1.8987,-1.8809,-1.8682,-1.8532,-1.8528,-1.8715,-1.8904,-1.9121,-1.9288,-1.9288,-1.9288,-1.9288,-1.9288,-1.9288,-1.9288,-1.9288,-1.9282,-1.9286,-1.9193,-1.9078,-1.8887,-1.8594,-1.8338,-1.8074,-1.7897,-1.7833,-1.7811,-1.78,-1.7789,-1.7789,-1.802,-1.8445,-1.8775,-1.9177,-1.9815,-2.0509,-2.0949,-2.1786,-2.222,-2.2305,-2.2305,-2.2305,-2.2305,-2.2305,-2.2305,-2.2319,-2.2399,-2.2557,-2.2766,-2.3301,-2.3726,-2.4386,-2.5218,-2.6015,-2.6292,-2.6522,-2.6921,-2.6875,-2.6783,-2.6716,-2.67,-2.67,-2.6683,-2.6657,-2.659,-2.6426,-2.6085,-2.5521,-2.5129,-2.4859,-2.4257,-2.3556,-2.4095,-2.4731,-2.463,-2.4559,-2.468,-2.4886,-2.5199,-2.5659,-2.5743,-2.6063,-2.6552,-2.6795,-2.5494,-2.5686,-2.5686,-2.5549,-2.5328,-2.4741,-2.441,-2.4208,-2.4208,-2.4208,-2.4208,-2.4208,-2.4208,-2.4208,-2.4208,-2.4208,-2.419,-2.418,-2.4142,-2.4035,-2.3854,-2.3538,-2.3185,-2.2681,-2.2065,-2.139,-2.0898,-2.064,-2.0352,-2.0141,-1.998,-1.9705,-1.9425,-1.9092,-1.8942,-1.8881,-1.8832,-1.894,-1.9138,-1.928,-1.9288,-1.9288,-1.9288,-1.9288,-1.9288,-1.9288,-1.9288,-1.9288,-1.9294,-1.9249,-1.9142,-1.8904,-1.8567,-1.8371,-1.8163,-1.7977,-1.79,-1.7867,-1.7811,-1.7789,-1.7789,-1.8036,-1.8488,-1.9122,-1.9748,-2.0467,-2.1025,-2.1402,-2.174,-2.2099,-2.2305,-2.2305,-2.2305,-2.2305,-2.2305,-2.2305,-2.2319,-2.2516,-2.2691,-2.3193,-2.3766,-2.4466,-2.5117,-2.5864,-2.6648,-2.6993,-2.7067,-2.7188,-2.7006,-2.6866,-2.6733,-2.67,-2.67,-2.6683,-2.6624,-2.6444,-2.6261,-2.586,-2.5294,-2.495,-2.4627,-2.4318,-2.3994,-2.4692,-2.5182,-2.5176,-2.5392,-2.5907,-2.6084,-2.5939,-2.6044,-2.6264,-2.6568,-2.7023,-2.7137,-2.486,-2.485,-2.486,-2.4879,-2.4787,-2.4374,-2.4208,-2.4208,-2.4208,-2.4208,-2.4208,-2.4208,-2.4208,-2.4208,-2.4208,-2.4208,-2.4208,-2.4208,-2.419,-2.4122,-2.3946,-2.3639,-2.3347,-2.3079,-2.2561,-2.192,-2.173,-2.1431,-2.0983,-2.1095,-2.1108,-2.0684,-2.0179,-1.9848,-1.9625,-1.9233,-1.9074,-1.9019,-1.9232,-1.9273,-1.9288,-1.9288,-1.9288,-1.9288,-1.9288,-1.9288,-1.9288,-1.9288,-1.9282,-1.927,-1.919,-1.9042,-1.8789,-1.8603,-1.8351,-1.8142,-1.8012,-1.7942,-1.7887,-1.7881,-1.7898,-1.8172,-1.8927,-1.9701,-2.0023,-2.0733,-2.1617,-2.1972,-2.2006,-2.2305,-2.2305,-2.2305,-2.2305,-2.2305,-2.2324,-2.233,-2.2479,-2.2686,-2.2897,-2.3219,-2.407,-2.5228,-2.5963,-2.6876,-2.7494,-2.7492,-2.7574,-2.7345,-2.7149,-2.6899,-2.6783,-2.67,-2.67,-2.6615,-2.6513,-2.6288,-2.6031,-2.5567,-2.5098,-2.442,-2.4007,-2.4302,-2.4563,-2.4931,-2.5407,-2.5913,-2.622,-2.6521,-2.6615,-2.6404,-2.6604,-2.6889,-2.7184,-2.7408,-2.7571,-2.4227,-2.4208,-2.4218,-2.4218,-2.4208,-2.4208,-2.4208,-2.4208,-2.4208,-2.4208,-2.4208,-2.4208,-2.4208,-2.4208,-2.4208,-2.4208,-2.4208,-2.4208,-2.4208,-2.4152,-2.4006,-2.3744,-2.3484,-2.3215,-2.2797,-2.2484,-2.2241,-2.225,-2.2124,-2.2151,-2.1983,-2.1738,-2.1448,-2.1115,-2.0301,-1.9816,-1.9722,-1.944,-1.9397,-1.93,-1.9288,-1.9288,-1.9288,-1.9288,-1.9288,-1.9288,-1.9288,-1.9288,-1.9288,-1.9275,-1.9239,-1.9118,-1.9101,-1.8967,-1.8799,-1.861,-1.8706,-1.8554,-1.8373,-1.8371,-1.8295,-1.8527,-1.9541,-2.0192,-2.0513,-2.1121,-2.1997,-2.2276,-2.2296,-2.2305,-2.2305,-2.2305,-2.2305,-2.2319,-2.233,-2.2391,-2.2624,-2.2893,-2.3176,-2.3443,-2.4644,-2.588,-2.6793,-2.7713,-2.8012,-2.8012,-2.7815,-2.7552,-2.7284,-2.6965,-2.6733,-2.67,-2.67,-2.6573,-2.6444,-2.6182,-2.5923,-2.5489,-2.4989,-2.4028,-2.3531,-2.4181,-2.4618,-2.4756,-2.5261,-2.602,-2.6409,-2.664,-2.67,-2.67,-2.6891,-2.7087,-2.7378,-2.7633,-2.7991,-2.4208,-2.4208,-2.4208,-2.4208,-2.4208,-2.4208,-2.4208,-2.4208,-2.4208,-2.4208,-2.4208,-2.4208,-2.4208,-2.4208,-2.4208,-2.4208,-2.4208,-2.4208,-2.4208,-2.417,-2.4045,-2.3837,-2.3606,-2.3318,-2.301,-2.2681,-2.241,-2.2377,-2.2492,-2.2607,-2.2708,-2.2635,-2.2139,-2.1885,-2.1722,-2.1111,-2.03,-2.0052,-1.9734,-1.96,-1.9481,-1.9435,-1.9297,-1.9288,-1.9288,-1.9288,-1.9288,-1.9288,-1.9288,-1.9291,-1.9344,-1.9301,-1.9402,-1.9552,-1.9539,-1.9425,-1.9512,-1.9461,-1.9328,-1.924,-1.9174,-1.933,-2.0225,-2.0788,-2.1152,-2.1578,-2.2158,-2.2279,-2.2305,-2.2305,-2.2305,-2.2305,-2.2305,-2.2319,-2.2338,-2.2487,-2.2677,-2.315,-2.3567,-2.4418,-2.5554,-2.6538,-2.7344,-2.8042,-2.8499,-2.8361,-2.7986,-2.7698,-2.7347,-2.7046,-2.67,-2.67,-2.67,-2.6615,-2.6486,-2.6181,-2.5876,-2.5449,-2.504,-2.4452,-2.4217,-2.447,-2.4799,-2.5072,-2.5512,-2.6192,-2.6504,-2.67,-2.67,-2.6733,-2.6948,-2.7174,-2.7498,-2.7844,-2.8192]},{"header":{"parameterUnit":"m.s-1","parameterCategory":1,"la1":31.0,"la2":29.5877,"lo1":-88.7671,"lo2":-86.6584,"dy":0.0162,"dx":0.0185,"nx":115,"ny":88,"refTime":"2026-04-24T18:00:00:Z","depth":0,"parameterNumber":3,"parameterNumberName":"V-component_of_WINDS"},"data":[0.0,0.0,0.0,0.0,0.0,0.0,0.0,0.0,0.0,0.0,0.0,0.0,0.0,0.0,0.0,0.0,0.0,0.0,0.0,0.0,0.0,0.0,0.0,0.0,0.0,0.0,0.0,0.0,0.0,0.0,0.0,0.0,0.0,0.0,0.0,0.0,0.0,0.0,0.0,0.0,0.0,0.0,0.0,0.0,0.0,0.0,0.0,0.0,0.0,0.0,0.0,0.0,0.0,0.0,0.0,0.0,0.0,0.0,0.0,0.0,0.0,0.0,0.0,0.0,0.0,0.0,0.0,0.0,0.0,0.0,0.0,0.0,0.0,0.0,0.0,0.0,0.0,0.0,0.0,0.0,0.0,0.0,0.0,0.0,0.0,0.0,0.0,0.0,0.0,0.0,0.0,0.0,0.0,0.0,0.0,0.0,0.0,0.0,0.0,0.0,0.0,0.0,0.0,0.0,0.0,0.0,0.0,0.0,0.0,0.0,0.0,0.0,0.0,0.0,0.0,0.0,0.0,0.0,0.0,0.0,0.0,0.0,0.0,0.0,0.0,0.0,0.0,0.0,0.0,0.0,0.0,0.0,0.0,0.0,0.0,0.0,0.0,0.0,0.0,0.0,0.0,0.0,0.0,0.0,0.0,0.0,0.0,0.0,0.0,0.0,0.0,0.0,0.0,0.0,0.0,0.0,0.0,0.0,0.0,0.0,0.0,0.0,0.0,0.0,0.0,0.0,0.0,0.0,0.0,0.0,0.0,0.0,0.0,0.0,0.0,0.0,0.0,0.0,0.0,0.0,0.0,0.0,0.0,0.0,0.0,0.0,0.0,0.0,0.0,0.0,0.0,0.0,0.0,0.0,0.0,0.0,0.0,0.0,0.0,0.0,0.0,0.0,0.0,0.0,0.0,0.0,0.0,0.0,0.0,0.0,0.0,0.0,0.0,0.0,0.0,0.0,0.0,0.0,0.0,0.0,0.0,0.0,0.0,0.0,0.0,0.0,0.0,0.0,0.0,0.0,0.0,0.0,0.0,0.0,0.0,0.0,0.0,0.0,0.0,0.0,0.0,0.0,0.0,0.0,0.0,0.0,0.0,0.0,0.0,0.0,0.0,0.0,0.0,0.0,0.0,0.0,0.0,0.0,0.0,0.0,0.0,0.0,0.0,0.0,0.0,0.0,0.0,0.0,0.0,0.0,0.0,0.0,0.0,0.0,0.0,0.0,0.0,0.0,0.0,0.0,0.0,0.0,0.0,0.0,0.0,0.0,0.0,0.0,0.0,0.0,0.0,0.0,0.0,0.0,0.0,0.0,0.0,0.0,0.0,0.0,0.0,0.0,0.0,0.0,0.0,0.0,0.0,0.0,0.0,0.0,0.0,0.0,0.0,0.0,0.0,0.0,0.0,0.0,0.0,0.0,0.0,0.0,0.0,0.0,0.0,0.0,0.0,0.0,0.0,0.0,0.0,0.0,0.0,0.0,0.0,0.0,0.0,0.0,0.0,0.0,0.0,0.0,0.0,0.0,0.0,0.0,0.0,0.0,0.0,0.0,0.0,0.0,0.0,0.0,0.0,0.0,0.0,0.0,0.0,0.0,0.0,0.0,0.0,0.0,0.0,0.0,0.0,0.0,0.0,0.0,0.0,0.0,0.0,0.0,0.0,0.0,0.0,0.0,0.0,0.0,0.0,0.0,0.0,0.0,0.0,0.0,0.0,0.0,0.0,0.0,0.0,0.0,0.0,0.0,0.0,0.0,0.0,0.0,0.0,0.0,0.0,0.0,0.0,0.0,0.0,0.0,0.0,0.0,0.0,0.0,0.0,0.0,0.0,0.0,0.0,0.0,0.0,0.0,0.0,0.0,0.0,0.0,0.0,0.0,0.0,0.0,0.0,0.0,0.0,0.0,0.0,0.0,0.0,0.0,0.0,0.0,0.0,0.0,0.0,0.0,0.0,0.0,0.0,0.0,0.0,0.0,0.0,0.0,0.0,0.0,0.0,0.0,0.0,0.0,0.0,0.0,0.0,0.0,0.0,0.0,0.0,0.0,0.0,0.0,0.0,0.0,0.0,0.0,0.0,0.0,0.0,0.0,0.0,0.0,0.0,0.0,0.0,0.0,0.0,0.0,0.0,0.0,0.0,0.0,0.0,0.0,0.0,0.0,0.0,0.0,0.0,0.0,0.0,0.0,0.0,0.0,0.0,0.0,0.0,0.0,0.0,0.0,0.0,0.0,0.0,0.0,0.0,0.0,0.0,0.0,0.0,0.0,0.0,0.0,0.0,0.0,0.0,0.0,0.0,0.0,0.0,0.0,0.0,0.0,0.0,0.0,0.0,0.0,0.0,0.0,0.0,0.0,0.0,0.0,0.0,0.0,0.0,0.0,0.0,0.0,0.0,0.0,0.0,0.0,0.0,0.0,0.0,0.0,0.0,0.0,0.0,0.0,0.0,0.0,0.0,0.0,0.0,0.0,0.0,0.0,0.0,0.0,0.0,0.0,0.0,0.0,0.0,0.0,0.0,0.0,0.0,0.0,0.0,0.0,0.0,0.0,0.0,0.0,0.0,0.0,0.0,0.0,0.0,0.0,0.0,0.0,0.0,0.0,0.0,0.0,0.0,0.0,0.0,0.0,0.0,0.0,0.0,0.0,0.0,0.0,0.0,0.0,0.0,0.0,0.0,0.0,0.0,0.0,0.0,0.0,0.0,0.0,0.0,0.0,0.0,0.0,0.0,0.0,0.0,0.0,0.0,0.0,0.0,0.0,0.0,0.0,0.0,0.0,0.0,0.0,0.0,0.0,0.0,0.0,0.0,0.0,0.0,0.0,0.0,0.0,0.0,0.0,0.0,0.0,0.0,0.0,0.0,0.0,0.0,0.0,0.0,0.0,0.0,0.0,0.0,0.0,0.0,0.0,0.0,0.0,0.0,0.0,0.0,0.0,0.0,0.0,0.0,0.0,0.0,0.0,0.0,0.0,0.0,0.0,0.0,0.0,0.0,0.0,0.0,0.0,0.0,0.0,0.0,0.0,0.0,0.0,0.0,0.0,0.0,0.0,0.0,0.0,0.0,0.0,0.0,0.0,0.0,0.0,0.0,0.0,0.0,0.0,0.0,0.0,0.0,0.0,0.0,0.0,0.0,0.0,0.0,0.0,0.0,0.0,0.0,0.0,0.0,0.0,0.0,0.0,0.0,0.0,0.0,0.0,0.0,0.0,0.0,0.0,0.0,0.0,0.0,0.0,0.0,0.0,0.0,0.0,0.0,0.0,0.0,0.0,0.0,0.0,0.0,0.0,0.0,0.0,0.0,0.0,0.0,0.0,0.0,0.0,0.0,0.0,0.0,0.0,0.0,0.0,0.0,0.0,0.0,0.0,0.0,0.0,0.0,0.0,0.0,0.0,0.0,0.0,0.0,0.0,0.0,0.0,0.0,0.0,0.0,0.0,0.0,0.0,0.0,0.0,0.0,0.0,0.0,0.0,0.0,0.0,0.0,0.0,0.0,0.0,0.0,0.0,0.0,0.0,0.0,0.0,0.0,0.0,0.0,0.0,0.0,0.0,0.0,0.0,0.0,0.0,0.0,0.0,0.0,0.0,0.0,0.0,0.0,0.0,0.0,0.0,0.0,0.0,0.0,0.0,0.0,0.0,0.0,0.0,0.0,0.0,0.0,0.0,0.0,0.0,0.0,0.0,0.0,0.0,0.0,0.0,0.0,0.0,0.0,0.0,0.0,0.0,0.0,0.0,0.0,0.0,0.0,0.0,0.0,0.0,0.0,0.0,0.0,0.0,0.0,0.0,0.0,0.0,0.0,0.0,0.0,0.0,0.0,0.0,0.0,0.0,0.0,0.0,0.0,0.0,0.0,0.0,0.0,0.0,0.0,0.0,0.0,0.0,0.0,0.0,0.0,0.0,0.0,0.0,0.0,0.0,0.0,0.0,0.0,0.0,0.0,0.0,0.0,0.0,0.0,0.0,0.0,0.0,0.0,0.0,0.0,0.0,0.0,0.0,0.0,0.0,0.0,0.0,0.0,0.0,0.0,0.0,0.0,0.0,0.0,0.0,0.0,0.0,0.0,0.0,0.0,0.0,0.0,0.0,0.0,0.0,0.0,0.0,0.0,0.0,0.0,0.0,0.0,0.0,0.0,0.0,0.0,0.0,0.0,0.0,0.0,0.0,0.0,0.0,0.0,0.0,0.0,0.0,0.0,0.0,0.0,0.0,0.0,0.0,0.0,0.0,0.0,0.0,0.0,0.0,0.0,0.0,0.0,0.0,-0.8866,0.0,0.0,0.0,0.0,0.0,0.0,0.0,0.0,0.0,0.0,0.0,0.0,0.0,0.0,0.0,0.0,0.0,0.0,0.0,0.0,0.0,0.0,0.0,0.0,0.0,0.0,0.0,0.0,0.0,0.0,0.0,0.0,0.0,0.0,0.0,0.0,0.0,0.0,0.0,0.0,0.0,0.0,0.0,0.0,0.0,0.0,0.0,0.0,0.0,0.0,0.0,0.0,0.0,0.0,0.0,0.0,0.0,0.0,0.0,0.0,0.0,0.0,0.0,0.0,0.0,0.0,0.0,0.0,0.0,0.0,0.0,0.0,0.0,0.0,0.0,0.0,0.0,0.0,0.0,0.0,0.0,0.0,0.0,0.0,0.0,0.0,0.0,0.0,0.0,0.0,0.0,0.0,0.0,0.0,0.0,0.0,0.0,0.0,0.0,0.0,0.0,0.0,0.0,0.0,0.0,0.0,0.0,0.0,0.0,0.0,-0.8262,-0.8299,-0.8421,-0.8598,-0.8828,0.0,0.0,0.0,0.0,0.0,0.0,0.0,0.0,0.0,0.0,0.0,0.0,0.0,0.0,0.0,0.0,0.0,0.0,0.0,0.0,0.0,0.0,0.0,0.0,0.0,0.0,0.0,0.0,0.0,0.0,0.0,0.0,0.0,0.0,0.0,0.0,0.0,0.0,0.0,0.0,0.0,0.0,0.0,0.0,0.0,0.0,0.0,0.0,0.0,0.0,0.0,0.0,0.0,0.0,0.0,0.0,0.0,0.0,0.0,0.0,0.0,0.0,0.0,0.0,0.0,0.0,0.0,0.0,0.0,0.0,0.0,0.0,0.0,0.0,0.0,0.0,0.0,0.0,0.0,0.0,0.0,0.0,0.0,0.0,0.0,0.0,0.0,0.0,0.0,0.0,0.0,0.0,0.0,0.0,0.0,0.0,0.0,0.0,0.0,0.0,0.0,0.0,0.0,0.0,0.0,0.0,0.0,0.0,0.0,0.0,0.0,0.0,-0.8368,-0.8531,-0.8698,0.0,0.0,0.0,0.0,0.0,0.0,0.0,0.0,0.0,0.0,0.0,0.0,0.0,0.0,0.0,0.0,0.0,0.0,0.0,0.0,0.0,0.0,0.0,0.0,0.0,0.0,0.0,0.0,0.0,0.0,0.0,0.0,0.0,0.0,0.0,0.0,0.0,0.0,0.0,0.0,0.0,0.0,0.0,0.0,0.0,0.0,0.0,0.0,0.0,0.0,0.0,0.0,0.0,0.0,0.0,0.0,0.0,0.0,0.0,0.0,0.0,0.0,0.0,0.0,0.0,0.0,0.0,0.0,0.0,0.0,0.0,0.0,0.0,0.0,0.0,0.0,0.0,0.0,0.0,0.0,0.0,0.0,0.0,0.0,0.0,0.0,0.0,0.0,0.0,0.0,0.0,0.0,0.0,0.0,0.0,0.0,0.0,0.0,0.0,0.0,0.0,0.0,0.0,0.0,0.0,0.0,0.0,0.0,0.0,0.0,-0.7999,-0.8123,-0.8191,0.0,-0.841,0.0,0.0,0.0,0.0,0.0,0.0,0.0,0.0,0.0,0.0,0.0,0.0,0.0,0.0,0.0,0.0,0.0,0.0,0.0,0.0,0.0,0.0,0.0,0.0,0.0,0.0,0.0,0.0,0.0,0.0,0.0,0.0,0.0,0.0,0.0,0.0,0.0,0.0,0.0,0.0,0.0,0.0,0.0,0.0,0.0,0.0,0.0,0.0,0.0,0.0,0.0,0.0,0.0,0.0,0.0,0.0,0.0,0.0,0.0,0.0,0.0,0.0,0.0,0.0,0.0,0.0,0.0,0.0,0.0,0.0,0.0,0.0,0.0,0.0,0.0,0.0,0.0,0.0,0.0,0.0,0.0,0.0,0.0,0.0,0.0,0.0,0.0,0.0,0.0,0.0,0.0,0.0,0.0,0.0,0.0,0.0,0.0,0.0,0.0,0.0,0.0,0.0,0.0,0.0,0.0,0.0,0.0,0.0,0.0,0.0,-0.7945,-0.8258,-0.8294,-0.8108,0.0,0.0,0.0,0.0,0.0,0.0,0.0,0.0,0.0,0.0,0.0,0.0,0.0,0.0,0.0,0.0,0.0,0.0,0.0,0.0,0.0,0.0,0.0,0.0,0.0,0.0,0.0,0.0,0.0,0.0,0.0,0.0,0.0,0.0,0.0,0.0,0.0,0.0,0.0,0.0,0.0,0.0,0.0,0.0,0.0,0.0,0.0,0.0,0.0,0.0,0.0,0.0,0.0,0.0,0.0,0.0,0.0,0.0,0.0,0.0,0.0,0.0,0.0,0.0,0.0,0.0,0.0,0.0,0.0,0.0,0.0,0.0,0.0,0.0,0.0,0.0,0.0,0.0,0.0,0.0,0.0,0.0,0.0,0.0,0.0,0.0,0.0,0.0,0.0,0.0,0.0,0.0,0.0,0.0,0.0,0.0,0.0,0.0,0.0,0.0,0.0,0.0,0.0,0.0,0.0,0.0,0.0,0.0,0.0,0.0,-0.7695,-0.7861,-0.8189,-0.8198,-0.7866,-0.7129,0.0,0.0,0.0,0.0,0.0,0.0,0.0,0.0,0.0,0.0,0.0,0.0,0.0,0.0,0.0,0.0,0.0,0.0,0.0,0.0,0.0,0.0,0.0,0.0,0.0,0.0,0.0,0.0,0.0,0.0,0.0,0.0,0.0,0.0,0.0,0.0,0.0,0.0,0.0,0.0,0.0,0.0,0.0,0.0,0.0,0.0,0.0,0.0,0.0,0.0,0.0,0.0,0.0,0.0,0.0,0.0,0.0,0.0,0.0,0.0,0.0,0.0,0.0,0.0,0.0,0.0,0.0,0.0,0.0,0.0,0.0,0.0,0.0,0.0,0.0,0.0,0.0,0.0,0.0,0.0,0.0,0.0,0.0,0.0,0.0,0.0,0.0,0.0,0.0,0.0,0.0,0.0,0.0,0.0,0.0,0.0,0.0,0.0,0.0,0.0,0.0,0.0,0.0,0.0,0.0,0.0,0.0,0.0,0.0,-0.7705,-0.77,-0.7739,-0.7729,-0.7539,0.0,0.0,0.0,0.0,0.0,0.0,0.0,0.0,0.0,0.0,0.0,0.0,0.0,0.0,0.0,0.0,0.0,0.0,0.0,0.0,0.0,0.0,0.0,0.0,0.0,0.0,0.0,0.0,0.0,0.0,0.0,0.0,0.0,0.0,0.0,0.0,0.0,0.0,0.0,0.0,0.0,0.0,0.0,0.0,0.0,0.0,0.0,0.0,0.0,0.0,0.0,0.0,0.0,0.0,0.0,0.0,0.0,0.0,0.0,0.0,0.0,0.0,0.0,0.0,0.0,0.0,0.0,0.0,0.0,0.0,0.0,0.0,0.0,0.0,0.0,0.0,0.0,0.0,0.0,0.0,0.0,0.0,0.0,0.0,0.0,0.0,0.0,0.0,0.0,0.0,0.0,0.0,0.0,0.0,0.0,0.0,0.0,0.0,0.0,0.0,0.0,0.0,0.0,0.0,0.0,0.0,0.0,0.0,0.0,-0.771,-0.7998,-0.7993,-0.7725,-0.7983,-0.7681,0.0,0.0,0.0,0.0,0.0,0.0,0.0,0.0,0.0,0.0,0.0,0.0,0.0,0.0,0.0,0.0,0.0,0.0,0.0,0.0,0.0,0.0,0.0,0.0,0.0,0.0,0.0,0.0,0.0,0.0,0.0,0.0,0.0,0.0,0.0,0.0,0.0,0.0,0.0,0.0,0.0,0.0,0.0,0.0,0.0,0.0,0.0,0.0,0.0,0.0,0.0,0.0,0.0,0.0,0.0,0.0,0.0,0.0,0.0,0.0,0.0,0.0,0.0,0.0,0.0,0.0,0.0,0.0,0.0,0.0,0.0,0.0,0.0,0.0,0.0,0.0,0.0,0.0,0.0,0.0,0.0,0.0,0.0,0.0,0.0,0.0,0.0,0.0,0.0,0.0,0.0,0.0,0.0,0.0,0.0,0.0,0.0,0.0,0.0,0.0,0.0,0.0,0.0,0.0,0.0,0.0,0.0,0.0,0.0,-0.771,0.0,-0.8027,-0.7734,-0.8013,-0.7681,0.0,0.0,0.0,0.0,0.0,0.0,0.0,0.0,0.0,0.0,0.0,0.0,0.0,0.0,0.0,0.0,0.0,0.0,0.0,0.0,0.0,0.0,0.0,0.0,0.0,0.0,0.0,0.0,0.0,0.0,0.0,0.0,0.0,0.0,0.0,0.0,0.0,0.0,0.0,0.0,0.0,0.0,0.0,0.0,0.0,0.0,0.0,0.0,0.0,0.0,0.0,0.0,0.0,0.0,0.0,0.0,0.0,0.0,0.0,0.0,0.0,0.0,0.0,0.0,0.0,0.0,0.0,0.0,0.0,0.0,0.0,0.0,0.0,0.0,0.0,0.0,0.0,0.0,0.0,0.0,0.0,0.0,0.0,0.0,0.0,0.0,0.0,0.0,0.0,0.0,0.0,0.0,0.0,0.0,0.0,0.0,0.0,0.0,0.0,0.0,0.0,0.0,0.0,0.0,0.0,0.0,0.0,0.0,-0.7715,-0.7715,-0.772,-0.7764,-0.7705,-0.7739,-0.752,0.0,0.0,0.0,0.0,0.0,0.0,0.0,0.0,0.0,0.0,0.0,0.0,0.0,0.0,0.0,0.0,0.0,0.0,0.0,0.0,0.0,0.0,0.0,0.0,0.0,0.0,0.0,0.0,0.0,0.0,0.0,0.0,0.0,0.0,0.0,0.0,0.0,0.0,0.0,0.0,0.0,0.0,0.0,0.0,0.0,0.0,0.0,0.0,0.0,0.0,0.0,0.0,0.0,0.0,0.0,0.0,0.0,0.0,0.0,0.0,0.0,0.0,0.0,0.0,0.0,0.0,0.0,0.0,0.0,0.0,0.0,0.0,0.0,0.0,0.0,0.0,0.0,0.0,0.0,0.0,0.0,0.0,0.0,0.0,0.0,0.0,0.0,0.0,0.0,0.0,0.0,0.0,0.0,0.0,0.0,0.0,0.0,0.0,0.0,0.0,0.0,0.0,0.0,0.0,0.0,0.0,0.0,0.0,0.0,-0.8174,-0.8189,-0.8189,-0.8169,-0.7871,-0.751,0.0,0.0,0.0,0.0,0.0,0.0,0.0,0.0,0.0,0.0,0.0,0.0,0.0,0.0,0.0,0.0,0.0,0.0,0.0,0.0,0.0,0.0,0.0,0.0,0.0,0.0,0.0,0.0,0.0,0.0,0.0,0.0,0.0,0.0,0.0,0.0,0.0,0.0,0.0,0.0,0.0,0.0,0.0,0.0,0.0,0.0,0.0,0.0,0.0,0.0,0.0,0.0,0.0,0.0,0.0,0.0,0.0,0.0,0.0,0.0,0.0,0.0,0.0,0.0,0.0,0.0,0.0,0.0,0.0,0.0,0.0,0.0,0.0,0.0,0.0,0.0,0.0,0.0,0.0,0.0,0.0,0.0,0.0,0.0,0.0,0.0,0.0,0.0,0.0,0.0,0.0,0.0,0.0,0.0,0.0,0.0,0.0,0.0,0.0,0.0,0.0,0.0,0.0,0.0,0.0,0.0,0.0,0.0,0.0,-0.863,-0.863,-0.8551,-0.8395,-0.8126,-0.7754,-0.7335,0.0,0.0,0.0,0.0,0.0,0.0,0.0,0.0,0.0,0.0,0.0,0.0,0.0,0.0,0.0,0.0,0.0,0.0,0.0,0.0,0.0,0.0,0.0,0.0,0.0,0.0,0.0,0.0,0.0,0.0,0.0,0.0,0.0,0.0,0.0,0.0,0.0,0.0,0.0,0.0,0.0,0.0,0.0,0.0,0.0,0.0,0.0,0.0,0.0,0.0,0.0,0.0,0.0,0.0,0.0,0.0,0.0,0.0,0.0,0.0,0.0,0.0,0.0,0.0,0.0,0.0,0.0,0.0,0.0,0.0,0.0,0.0,0.0,0.0,0.0,0.0,0.0,0.0,0.0,0.0,0.0,0.0,0.0,0.0,0.0,0.0,0.0,0.0,0.0,0.0,0.0,0.0,0.0,0.0,0.0,0.0,0.0,0.0,0.0,0.0,0.0,0.0,0.0,0.0,0.0,0.0,0.0,0.0,-0.9004,-0.9048,-0.8872,-0.8453,-0.8404,-0.8174,0.0,0.0,0.0,0.0,0.0,0.0,0.0,0.0,0.0,0.0,0.0,0.0,0.0,0.0,0.0,0.0,0.0,0.0,0.0,0.0,0.0,0.0,0.0,0.0,0.0,0.0,0.0,0.0,0.0,0.0,0.0,0.0,0.0,0.0,0.0,0.0,0.0,0.0,0.0,0.0,0.0,0.0,0.0,0.0,0.0,0.0,0.0,0.0,0.0,0.0,0.0,0.0,0.0,0.0,0.0,0.0,0.0,0.0,0.0,0.0,0.0,0.0,0.0,0.0,0.0,0.0,0.0,0.0,0.0,0.0,0.0,0.0,0.0,0.0,0.0,0.0,0.0,0.0,0.0,0.0,0.0,0.0,0.0,0.0,0.0,0.0,0.0,0.0,0.0,0.0,0.0,0.0,0.0,0.0,0.0,0.0,0.0,0.0,0.0,0.0,0.0,0.0,0.0,0.0,0.0,0.0,0.0,0.0,0.0,-0.9011,-0.9624,-0.9613,-0.8862,-0.8556,-0.8174,0.0,0.0,0.0,0.0,0.0,0.0,0.0,0.0,0.0,0.0,0.0,0.0,0.0,0.0,0.0,0.0,0.0,0.0,0.0,0.0,0.0,0.0,0.0,0.0,0.0,0.0,0.0,0.0,0.0,0.0,0.0,0.0,0.0,0.0,0.0,0.0,0.0,0.0,0.0,0.0,0.0,0.0,0.0,0.0,0.0,0.0,0.0,0.0,0.0,0.0,0.0,0.0,0.0,0.0,0.0,0.0,0.0,0.0,0.0,0.0,0.0,0.0,0.0,0.0,0.0,0.0,0.0,0.0,0.0,0.0,0.0,0.0,0.0,0.0,0.0,0.0,0.0,0.0,0.0,0.0,0.0,0.0,0.0,0.0,0.0,0.0,0.0,0.0,0.0,0.0,0.0,0.0,0.0,0.0,0.0,0.0,0.0,0.0,0.0,0.0,0.0,0.0,0.0,0.0,0.0,0.0,0.0,0.0,-0.9004,-0.9009,-0.9857,-0.9961,-0.927,-0.8879,-0.837,0.0,0.0,0.0,0.0,0.0,0.0,0.0,0.0,0.0,0.0,0.0,0.0,0.0,0.0,0.0,0.0,0.0,0.0,0.0,0.0,0.0,0.0,0.0,0.0,0.0,0.0,0.0,0.0,0.0,0.0,0.0,0.0,0.0,0.0,0.0,0.0,0.0,0.0,0.0,0.0,0.0,0.0,0.0,0.0,0.0,0.0,0.0,0.0,0.0,0.0,0.0,0.0,0.0,0.0,0.0,0.0,0.0,0.0,0.0,0.0,0.0,0.0,0.0,0.0,0.0,0.0,0.0,0.0,0.0,0.0,0.0,0.0,0.0,0.0,0.0,0.0,0.0,0.0,0.0,0.0,0.0,0.0,0.0,0.0,0.0,0.0,0.0,0.0,0.0,0.0,0.0,0.0,0.0,0.0,0.0,0.0,0.0,0.0,0.0,0.0,0.0,0.0,0.0,0.0,0.0,0.0,0.0,0.0,-0.9033,-0.906,-0.9863,-1.0078,-0.9625,-0.9211,-0.8656,0.0,0.0,0.0,0.0,0.0,0.0,0.0,0.0,0.0,0.0,0.0,0.0,0.0,0.0,0.0,0.0,0.0,0.0,0.0,0.0,0.0,0.0,0.0,0.0,0.0,0.0,0.0,0.0,0.0,0.0,0.0,0.0,0.0,0.0,0.0,0.0,0.0,0.0,0.0,0.0,0.0,0.0,0.0,0.0,0.0,0.0,0.0,0.0,0.0,0.0,0.0,0.0,0.0,0.0,0.0,0.0,0.0,0.0,0.0,0.0,0.0,0.0,0.0,0.0,0.0,0.0,0.0,0.0,0.0,0.0,0.0,0.0,0.0,0.0,0.0,0.0,0.0,0.0,0.0,0.0,0.0,0.0,0.0,0.0,0.0,0.0,0.0,0.0,0.0,0.0,0.0,0.0,0.0,0.0,0.0,0.0,0.0,0.0,0.0,0.0,0.0,0.0,0.0,0.0,0.0,0.0,0.0,0.0,-0.9165,-0.9456,-1.0015,-1.0073,-0.9602,-0.9211,-0.8821,0.0,0.0,0.0,0.0,0.0,0.0,0.0,0.0,0.0,0.0,0.0,0.0,0.0,0.0,0.0,0.0,0.0,0.0,0.0,0.0,0.0,0.0,0.0,0.0,0.0,0.0,0.0,0.0,0.0,0.0,0.0,0.0,0.0,0.0,0.0,0.0,0.0,0.0,0.0,0.0,0.0,0.0,0.0,0.0,0.0,0.0,0.0,0.0,-0.5244,0.0,0.0,0.0,0.0,0.0,0.0,0.0,0.0,0.0,0.0,0.0,0.0,0.0,0.0,0.0,0.0,0.0,0.0,0.0,0.0,0.0,0.0,0.0,0.0,0.0,0.0,0.0,0.0,0.0,0.0,0.0,0.0,0.0,0.0,0.0,0.0,0.0,0.0,0.0,0.0,0.0,0.0,0.0,0.0,0.0,0.0,0.0,0.0,0.0,0.0,0.0,0.0,0.0,0.0,0.0,0.0,0.0,0.0,0.0,-0.9391,-0.9597,-1.0049,-1.019,-0.9937,-0.9503,-0.9062,0.0,0.0,0.0,0.0,0.0,0.0,0.0,0.0,0.0,0.0,0.0,0.0,0.0,0.0,0.0,0.0,0.0,0.0,0.0,0.0,0.0,0.0,0.0,0.0,0.0,0.0,0.0,0.0,0.0,0.0,0.0,0.0,0.0,0.0,0.0,0.0,0.0,0.0,0.0,0.0,0.0,0.0,0.0,0.0,0.0,0.0,0.0,0.0,0.0,0.0,0.0,0.0,0.0,0.0,0.0,0.0,0.0,0.0,0.0,0.0,0.0,0.0,0.0,0.0,0.0,0.0,0.0,0.0,0.0,0.0,0.0,0.0,0.0,0.0,0.0,0.0,0.0,0.0,0.0,0.0,0.0,0.0,0.0,0.0,0.0,0.0,0.0,0.0,0.0,0.0,0.0,0.0,0.0,0.0,0.0,0.0,0.0,0.0,0.0,0.0,0.0,0.0,0.0,0.0,0.0,0.0,0.0,-0.9221,-0.9627,-0.9718,-1.0093,-1.0322,-1.0293,-0.9781,-0.9251,-0.8711,0.0,0.0,0.0,0.0,0.0,0.0,0.0,0.0,0.0,0.0,0.0,0.0,0.0,0.0,0.0,0.0,0.0,0.0,0.0,0.0,0.0,0.0,0.0,0.0,0.0,0.0,0.0,0.0,0.0,0.0,0.0,0.0,0.0,0.0,0.0,0.0,0.0,0.0,-0.4741,-0.5688,0.0,0.0,0.0,0.0,0.0,0.0,0.0,0.0,-0.5694,0.0,0.0,0.0,0.0,0.0,0.0,0.0,0.0,0.0,0.0,0.0,0.0,0.0,0.0,0.0,0.0,0.0,0.0,0.0,0.0,0.0,0.0,0.0,0.0,0.0,0.0,0.0,0.0,0.0,0.0,0.0,0.0,0.0,0.0,0.0,0.0,0.0,0.0,0.0,0.0,0.0,0.0,0.0,0.0,0.0,0.0,0.0,0.0,0.0,0.0,0.0,0.0,0.0,0.0,0.0,0.0,-0.8875,-0.9367,-0.9791,-1.0171,-1.0263,-1.0322,-1.0288,-0.9517,-0.9072,-0.9027,0.0,0.0,0.0,0.0,0.0,0.0,0.0,0.0,0.0,0.0,0.0,0.0,0.0,0.0,0.0,0.0,0.0,0.0,0.0,0.0,0.0,0.0,0.0,0.0,0.0,0.0,0.0,0.0,0.0,0.0,0.0,0.0,0.0,0.0,0.0,0.0,0.0,0.0,0.0,-0.6055,-0.6411,0.0,0.0,0.0,0.0,0.0,0.0,0.0,0.0,-0.52,0.0,0.0,0.0,0.0,0.0,0.0,0.0,0.0,0.0,0.0,0.0,0.0,0.0,0.0,0.0,0.0,0.0,0.0,0.0,0.0,0.0,0.0,0.0,0.0,0.0,0.0,0.0,0.0,0.0,0.0,0.0,0.0,0.0,0.0,0.0,0.0,0.0,0.0,0.0,0.0,0.0,0.0,0.0,0.0,0.0,0.0,0.0,0.0,0.0,0.0,0.0,0.0,0.0,0.0,0.0,-0.8972,-0.9639,-1.0068,-1.0293,-1.0322,-1.0322,-1.0312,-0.9663,-0.9246,0.0,0.0,0.0,0.0,0.0,0.0,0.0,0.0,0.0,0.0,0.0,0.0,0.0,0.0,0.0,0.0,0.0,0.0,0.0,0.0,0.0,0.0,0.0,0.0,0.0,0.0,0.0,0.0,0.0,0.0,0.0,0.0,0.0,0.0,0.0,0.0,0.0,0.0,0.0,0.0,-0.6489,-0.6768,-0.6763,0.0,0.0,0.0,0.0,0.0,0.0,-0.5479,-0.5396,0.0,0.0,0.0,0.0,0.0,0.0,0.0,0.0,0.0,0.0,0.0,0.0,0.0,0.0,0.0,0.0,0.0,0.0,0.0,0.0,0.0,0.0,0.0,0.0,0.0,0.0,0.0,0.0,0.0,0.0,0.0,0.0,0.0,0.0,0.0,0.0,0.0,0.0,0.0,0.0,0.0,0.0,0.0,0.0,0.0,0.0,0.0,0.0,0.0,0.0,0.0,0.0,0.0,0.0,0.0,-0.8982,-0.9867,-1.0322,-1.0322,-1.0322,-1.0322,-1.0293,-0.9775,-0.9346,0.0,0.0,0.0,0.0,0.0,0.0,0.0,0.0,0.0,0.0,0.0,0.0,0.0,0.0,0.0,0.0,0.0,0.0,0.0,0.0,0.0,0.0,0.0,0.0,0.0,0.0,0.0,0.0,0.0,0.0,0.0,0.0,0.0,0.0,0.0,0.0,0.0,0.0,0.0,0.0,0.0,-0.7134,-0.7198,-0.7153,0.0,0.0,0.0,0.0,-0.5968,-0.5919,0.0,0.0,0.0,0.0,0.0,0.0,0.0,0.0,0.0,0.0,0.0,0.0,0.0,0.0,0.0,0.0,0.0,0.0,0.0,0.0,0.0,0.0,0.0,0.0,0.0,0.0,0.0,0.0,0.0,0.0,0.0,0.0,0.0,0.0,0.0,0.0,0.0,0.0,0.0,0.0,0.0,0.0,0.0,0.0,0.0,0.0,0.0,0.0,0.0,0.0,0.0,0.0,0.0,0.0,0.0,0.0,-0.8982,-0.9849,-1.0322,-1.0322,-1.0322,-1.0322,-1.0312,-0.9497,-0.9087,0.0,0.0,0.0,0.0,0.0,0.0,0.0,0.0,0.0,0.0,0.0,0.0,0.0,0.0,0.0,0.0,0.0,0.0,0.0,0.0,0.0,0.0,0.0,0.0,0.0,0.0,0.0,0.0,0.0,0.0,0.0,0.0,0.0,0.0,0.0,0.0,0.0,0.0,0.0,0.0,0.0,-0.7231,-0.7579,-0.7325,-0.7085,0.0,0.0,-0.638,-0.6338,-0.6333,0.0,0.0,0.0,0.0,0.0,0.0,0.0,0.0,0.0,0.0,0.0,0.0,0.0,0.0,0.0,0.0,0.0,0.0,0.0,0.0,0.0,0.0,0.0,0.0,0.0,0.0,0.0,0.0,0.0,0.0,0.0,0.0,0.0,0.0,0.0,0.0,0.0,0.0,0.0,0.0,0.0,0.0,0.0,0.0,0.0,0.0,0.0,0.0,0.0,0.0,0.0,0.0,0.0,0.0,0.0,-0.8134,-0.8999,-0.9867,-1.0322,-1.0322,-1.0322,-1.0322,-1.0322,-0.9683,-0.9278,0.0,0.0,0.0,0.0,0.0,0.0,0.0,0.0,0.0,0.0,0.0,0.0,0.0,0.0,0.0,0.0,0.0,0.0,0.0,0.0,0.0,0.0,0.0,0.0,0.0,0.0,0.0,0.0,0.0,0.0,0.0,0.0,0.0,0.0,0.0,0.0,0.0,0.0,0.0,0.0,0.0,0.0,-0.7671,-0.7554,0.0,0.0,0.0,-0.7048,-0.6836,0.0,0.0,0.0,0.0,0.0,0.0,0.0,0.0,0.0,0.0,0.0,0.0,0.0,0.0,0.0,0.0,0.0,0.0,0.0,0.0,0.0,0.0,0.0,0.0,0.0,0.0,0.0,0.0,0.0,0.0,0.0,0.0,0.0,0.0,0.0,0.0,0.0,0.0,0.0,0.0,0.0,0.0,0.0,0.0,0.0,0.0,0.0,0.0,0.0,0.0,0.0,0.0,0.0,0.0,0.0,0.0,0.0,-0.8994,-0.9849,-1.0322,-1.0322,-1.0322,-1.0322,-1.0293,-0.9761,0.0,0.0,0.0,0.0,0.0,0.0,0.0,0.0,0.0,0.0,0.0,0.0,0.0,0.0,0.0,0.0,0.0,0.0,0.0,0.0,0.0,0.0,0.0,0.0,0.0,0.0,0.0,-0.497,0.0,0.0,0.0,0.0,0.0,0.0,0.0,0.0,0.0,0.0,0.0,0.0,0.0,0.0,-0.7695,-0.7695,-0.7695,-0.7695,0.0,0.0,-0.7603,-0.7305,-0.7242,-0.71,0.0,0.0,0.0,0.0,0.0,0.0,0.0,0.0,0.0,0.0,0.0,0.0,0.0,0.0,0.0,0.0,0.0,0.0,0.0,0.0,0.0,0.0,0.0,0.0,0.0,0.0,0.0,0.0,0.0,0.0,0.0,0.0,0.0,0.0,0.0,0.0,0.0,0.0,0.0,0.0,0.0,0.0,0.0,0.0,0.0,0.0,0.0,0.0,0.0,0.0,0.0,0.0,0.0,0.0,-0.8129,-0.8999,-0.9867,-1.0322,-1.0322,-1.0322,-1.0322,-1.0288,-0.9482,-0.9116,0.0,0.0,0.0,0.0,0.0,0.0,0.0,0.0,0.0,0.0,0.0,0.0,0.0,0.0,0.0,0.0,0.0,0.0,0.0,0.0,0.0,0.0,0.0,0.0,0.0,0.0,0.0,0.0,0.0,0.0,0.0,0.0,0.0,0.0,0.0,0.0,0.0,0.0,0.0,0.0,0.0,-0.7695,-0.7695,-0.7695,-0.7695,0.0,-0.7695,-0.7691,-0.7656,-0.7652,-0.7525,-0.7124,0.0,0.0,0.0,0.0,0.0,0.0,0.0,0.0,0.0,0.0,0.0,0.0,0.0,0.0,0.0,0.0,0.0,0.0,0.0,0.0,0.0,0.0,0.0,0.0,0.0,0.0,0.0,0.0,0.0,0.0,0.0,0.0,0.0,0.0,0.0,0.0,0.0,0.0,0.0,0.0,0.0,0.0,0.0,0.0,0.0,0.0,0.0,0.0,0.0,0.0,0.0,0.0,0.0,-0.8434,-0.9009,-0.9867,-1.0322,-1.0322,-1.0322,-1.0322,-1.0298,-0.9689,-0.9307,0.0,0.0,0.0,0.0,0.0,0.0,0.0,0.0,0.0,0.0,0.0,0.0,0.0,0.0,0.0,0.0,0.0,0.0,0.0,0.0,0.0,0.0,0.0,0.0,0.0,0.0,0.0,0.0,-0.5552,-0.5624,-0.5431,0.0,0.0,0.0,0.0,0.0,0.0,0.0,0.0,0.0,0.0,-0.7695,-0.7695,-0.7695,0.0,0.0,-0.7954,-0.8032,-0.7734,-0.7934,-0.7978,-0.7544,-0.7262,0.0,0.0,0.0,0.0,0.0,0.0,0.0,0.0,0.0,0.0,0.0,0.0,0.0,0.0,0.0,0.0,0.0,0.0,0.0,0.0,0.0,0.0,0.0,0.0,0.0,0.0,0.0,0.0,0.0,0.0,0.0,0.0,0.0,0.0,0.0,0.0,0.0,0.0,0.0,0.0,0.0,0.0,0.0,0.0,0.0,0.0,0.0,0.0,0.0,0.0,0.0,0.0,-0.8595,-0.9004,-0.9862,-1.0322,-1.0322,-1.0322,-1.0322,-1.0288,-0.9741,-0.9342,0.0,0.0,0.0,0.0,0.0,0.0,0.0,0.0,0.0,0.0,0.0,0.0,0.0,0.0,0.0,0.0,0.0,0.0,0.0,0.0,0.0,0.0,0.0,0.0,0.0,0.0,0.0,0.0,-0.6128,-0.5881,-0.5622,0.0,0.0,0.0,0.0,0.0,0.0,0.0,0.0,0.0,0.0,-0.7744,-0.787,-0.7905,-0.7964,-0.808,-0.8257,-0.8292,-0.7974,-0.8076,-0.8091,-0.7749,0.0,0.0,0.0,0.0,0.0,0.0,0.0,0.0,0.0,0.0,0.0,0.0,0.0,0.0,0.0,0.0,0.0,0.0,0.0,0.0,0.0,0.0,0.0,0.0,0.0,0.0,0.0,-1.2385,0.0,0.0,-1.1515,0.0,0.0,0.0,0.0,0.0,0.0,0.0,0.0,0.0,0.0,0.0,0.0,0.0,0.0,0.0,0.0,0.0,0.0,0.0,0.0,0.0,0.0,-0.8605,-0.8992,-0.9844,-1.0322,-1.0322,-1.0322,-1.0322,-1.0302,-0.9468,-0.9043,-0.9051,0.0,0.0,0.0,0.0,0.0,0.0,0.0,0.0,0.0,0.0,0.0,0.0,0.0,0.0,0.0,0.0,0.0,0.0,0.0,0.0,0.0,0.0,0.0,0.0,0.0,0.0,-0.6991,-0.6382,-0.5817,0.0,0.0,0.0,0.0,0.0,0.0,0.0,0.0,0.0,-0.7637,-0.7695,-0.7871,-0.8312,-0.838,-0.8517,-0.8892,-0.8633,-0.8395,-0.837,-0.8022,-0.7705,0.0,0.0,0.0,0.0,0.0,0.0,0.0,0.0,0.0,0.0,0.0,0.0,0.0,0.0,0.0,0.0,0.0,0.0,0.0,0.0,0.0,0.0,0.0,0.0,0.0,0.0,0.0,-1.3458,-1.292,0.0,0.0,0.0,0.0,0.0,0.0,0.0,0.0,0.0,0.0,0.0,-1.2302,-1.1779,0.0,0.0,0.0,0.0,0.0,0.0,0.0,0.0,0.0,0.0,0.0,0.0,-0.8867,-0.9033,-0.9862,-1.0322,-1.0322,-1.0322,-1.0322,-1.0298,-0.9448,-0.8625,-0.7788,0.0,0.0,0.0,0.0,0.0,0.0,0.0,0.0,0.0,0.0,0.0,0.0,0.0,0.0,0.0,0.0,0.0,0.0,0.0,0.0,0.0,0.0,0.0,0.0,0.0,-0.6373,0.0,0.0,0.0,0.0,0.0,0.0,0.0,0.0,0.0,0.0,0.0,-0.7256,-0.7647,-0.7974,-0.8228,-0.8391,-0.8634,-0.8843,0.0,0.0,0.0,0.0,0.0,0.0,0.0,0.0,0.0,0.0,0.0,0.0,0.0,0.0,-0.7409,-0.7611,-0.7444,-0.7236,-0.7178,0.0,0.0,0.0,0.0,0.0,0.0,0.0,0.0,0.0,0.0,0.0,0.0,0.0,0.0,-1.4155,-1.3785,-1.3421,0.0,0.0,0.0,0.0,0.0,0.0,0.0,0.0,-1.384,-1.3814,-1.275,-1.1972,-1.1368,0.0,-1.0067,-0.9513,0.0,0.0,0.0,0.0,0.0,0.0,0.0,0.0,-0.9055,-0.9226,-0.9922,-1.0322,-1.0322,-1.0322,-1.0229,-1.0054,-0.9246,-0.8257,-0.7144,-0.7118,-0.6885,0.0,0.0,0.0,0.0,0.0,0.0,0.0,0.0,0.0,0.0,0.0,0.0,0.0,0.0,0.0,0.0,0.0,0.0,0.0,0.0,0.0,0.0,0.0,-0.6652,0.0,0.0,0.0,0.0,0.0,0.0,0.0,0.0,0.0,-0.6645,-0.7041,-0.7457,-0.7881,-0.8193,-0.8513,-0.8774,0.0,0.0,0.0,0.0,0.0,0.0,0.0,-0.8057,-0.7744,-0.7695,-0.7695,-0.7695,-0.7695,-0.7695,-0.7695,0.0,0.0,-0.7922,-0.7705,-0.754,-0.7618,-0.7321,-0.7064,-0.7035,-0.6976,-0.6901,0.0,0.0,0.0,0.0,0.0,0.0,0.0,0.0,-1.4953,-1.4928,0.0,-1.4852,0.0,0.0,0.0,0.0,-1.2567,-1.3619,0.0,0.0,-1.4356,-1.4113,-1.271,-1.2084,-1.1597,-1.118,-1.0586,-1.0167,-0.9879,-0.926,0.0,0.0,0.0,0.0,0.0,0.0,-0.9206,-0.9596,-1.004,-1.0322,-1.0322,-1.0322,-1.0063,-0.9601,-0.8818,-0.8003,-0.7178,-0.7134,-0.6901,-0.6438,-0.6191,0.0,0.0,0.0,0.0,0.0,0.0,0.0,0.0,0.0,0.0,0.0,0.0,0.0,0.0,0.0,0.0,0.0,0.0,0.0,0.0,-0.7681,0.0,0.0,0.0,0.0,0.0,0.0,0.0,0.0,0.0,0.0,-0.7119,-0.7466,-0.7885,-0.8331,0.0,0.0,0.0,0.0,-0.9781,-1.0219,-0.957,-0.9023,-0.8999,-0.829,-0.7744,-0.7695,0.0,0.0,-0.7695,-0.7695,-0.7695,-0.7695,-0.772,-0.772,-0.7744,-0.7725,-0.77,-0.7725,-0.77,-0.7681,-0.7681,-0.7617,-0.7622,-1.7647,0.0,0.0,0.0,0.0,-1.6045,-1.6051,-1.6013,-1.563,-1.5481,-1.5436,-1.506,0.0,0.0,0.0,0.0,0.0,0.0,-1.4387,-1.3902,-1.4563,-1.4156,-1.2762,-1.2252,-1.1811,-1.1399,-1.0788,-1.0484,-1.0376,-0.9912,-0.9599,-0.9411,0.0,0.0,0.0,0.0,-0.9494,-0.963,-1.0059,-1.0322,-1.0322,-1.0322,-0.995,-0.9182,-0.8678,-0.8115,-0.754,-0.7515,-0.7335,-0.6919,-0.688,0.0,0.0,0.0,0.0,0.0,0.0,0.0,0.0,0.0,0.0,0.0,0.0,0.0,0.0,0.0,0.0,0.0,0.0,0.0,-0.6851,-0.7247,-0.7246,0.0,0.0,0.0,0.0,0.0,0.0,0.0,0.0,0.0,-0.7491,-0.7925,-0.8253,0.0,0.0,-0.9343,-0.9563,-0.9879,-1.0166,-1.0283,-0.9814,0.0,-0.9053,-0.8555,-0.8091,-0.7754,-0.7695,-0.7695,-0.7695,-0.7695,-0.7695,-0.77,-0.7978,-0.8188,-0.8194,-0.7915,-0.7842,-0.8086,-0.7929,-0.7705,-0.7695,-0.7695,-0.7695,-1.8274,-1.7168,-1.6955,-1.6707,-1.6506,-1.6506,-1.6506,-1.6469,-1.6164,-1.6019,-1.6001,-1.5674,-1.5236,-1.4727,-1.4513,0.0,0.0,0.0,-1.4921,-1.4431,-1.4752,-1.4294,-1.3192,-1.2555,-1.2048,-1.164,-1.1043,-1.072,-1.062,-1.0302,-1.0036,-0.9861,0.0,0.0,-0.9497,-0.9574,-0.9698,-0.9869,-1.0171,-1.0322,-1.0317,-0.997,-0.9453,-0.8774,-0.835,-0.7993,-0.771,-0.7695,-0.7579,-0.734,-0.724,-0.7039,0.0,0.0,0.0,0.0,0.0,0.0,0.0,0.0,0.0,0.0,0.0,-0.4977,-0.4991,0.0,0.0,0.0,-0.6173,-0.637,-0.6657,-0.7123,0.0,0.0,0.0,0.0,0.0,0.0,0.0,-0.7571,-0.7458,-0.7432,-0.7671,-0.8257,-0.8644,-0.8628,-0.9192,-0.9674,-0.9896,0.0,-1.0355,-1.0158,-0.9767,-0.932,-0.888,-0.8409,-0.8022,-0.7739,-0.7695,-0.7695,-0.7695,-0.7695,-0.7763,-0.7949,-0.8219,-0.8507,-0.8804,-0.8509,-0.8285,-0.8576,-0.8286,-0.7988,-0.7993,-0.7827,-0.7695,-1.8769,-1.8229,-1.7733,-1.7187,-1.6638,-1.6582,-1.6557,-1.6563,-1.6519,-1.6506,-1.6506,-1.6506,-1.6187,-1.5662,-1.5141,0.0,-1.5004,-1.5487,-1.5437,-1.4953,-1.4953,-1.4556,-1.3779,-1.2963,-1.2359,-1.1933,-1.1338,-1.0943,-1.0739,-1.0462,-1.0322,-1.0298,-0.9684,-0.9537,-0.9814,-0.9724,-0.9864,-1.0293,-1.0303,-1.0283,-1.0239,-0.9412,-0.8765,-0.8425,-0.7954,-0.7695,-0.7695,-0.7695,-0.7695,-0.7681,-0.7404,-0.7267,-0.7258,0.0,0.0,0.0,0.0,0.0,0.0,0.0,0.0,0.0,0.0,0.0,0.0,0.0,0.0,0.0,-0.6608,0.0,-0.6843,-0.7179,0.0,0.0,0.0,-0.7369,-0.7725,-0.76,-0.7641,-0.8049,0.0,0.0,-0.7764,-0.8486,-0.9019,-0.9065,-0.9419,-0.9838,-1.0345,-1.0529,-1.0459,-1.0022,-0.9626,-0.9192,-0.8657,-0.8103,-0.7729,-0.77,-0.7695,-0.7695,-0.7705,-0.7759,-0.7954,-0.8281,-0.8449,-0.8693,-0.943,-0.9196,-0.9053,-0.9048,-0.8682,-0.838,-0.8346,-0.8018,-0.7715,-1.9315,-1.8801,-1.8675,-1.8293,-1.7748,-1.7356,-1.7174,-1.7137,-1.6682,-1.6506,-1.6506,-1.6506,-1.6214,-1.5668,-1.5135,-1.5116,-1.5531,-1.5637,-1.5644,-1.5525,-1.5505,-1.4925,-1.3884,-1.3515,-1.2955,-1.2269,-1.1726,-1.1327,-1.1062,-1.0711,-1.0467,-1.0356,-1.0168,-1.01,-1.0179,-1.0146,-1.0176,-1.0273,-1.0322,-1.0122,-0.9775,-0.8982,-0.8493,-0.8395,-0.7939,-0.7695,-0.7695,-0.7695,-0.7695,-0.7695,-0.7632,-0.745,-0.7158,-0.6637,0.0,0.0,0.0,0.0,0.0,0.0,0.0,0.0,0.0,-0.4749,-0.5137,0.0,-0.5997,0.0,-0.6958,-0.7181,-0.7181,-0.726,0.0,0.0,-0.7419,-0.7518,-0.7579,-0.788,-0.8105,-0.8096,-0.7942,-0.798,-0.8261,-0.8721,-0.9143,-0.955,-0.9909,-1.0248,-1.0534,-1.0753,-1.0755,-1.0298,-1.0126,-0.9777,-0.8805,-0.8129,-0.7695,-0.7695,-0.7695,-0.7695,-0.7695,-0.7988,-0.8293,-0.8414,-0.8921,-0.9231,-0.9192,-0.9294,-0.946,-0.9416,-0.8896,-0.839,-0.8385,-0.8063,-0.7802,-1.9635,-1.9353,-1.934,-1.9171,-1.8857,-1.8078,-1.7624,-1.7373,-1.7036,-1.6738,-1.6506,-1.6506,-1.634,-1.6051,-1.575,-1.5795,-1.6057,-1.6036,-1.6063,-1.6038,-1.58,-1.5347,-1.4693,-1.4094,-1.3539,-1.2998,-1.2339,-1.1836,-1.1505,-1.1019,-1.0706,-1.0548,-1.0375,-1.0322,-1.0322,-1.0322,-1.0322,-1.0298,-1.0088,-0.9767,-0.9333,-0.8716,-0.8302,-0.8091,-0.7842,-0.7695,-0.7695,-0.7695,-0.7695,-0.7695,-0.7695,-0.7598,-0.7374,-0.695,-0.6523,0.0,0.0,0.0,0.0,0.0,0.0,0.0,0.0,0.0,0.0,0.0,-0.6637,-0.7104,-0.7194,-0.728,-0.7468,-0.7483,-0.7492,-0.7528,-0.7607,-0.7657,-0.7679,-0.8044,-0.8276,-0.8187,-0.8289,-0.8409,-0.8575,-0.898,-0.9423,-0.9836,-1.0306,-1.063,-1.0731,-1.0973,-1.0885,-1.0169,-1.0082,-0.9695,-0.8465,-0.7945,-0.7695,-0.7695,-0.7695,-0.7695,-0.7705,-0.8091,-0.8469,-0.8657,-0.9172,-0.9616,-0.9585,-0.9741,-0.9922,-0.9844,-0.9404,-0.8984,-0.8931,-0.8686,-0.8515,-1.9735,-1.9679,-1.9773,-1.9767,-1.9635,-1.8769,-1.8053,-1.7505,-1.7429,-1.7061,-1.6506,-1.6506,-1.6506,-1.6506,-1.6506,-1.6506,-1.6506,-1.6506,-1.6506,-1.6475,-1.6019,-1.5762,-1.5643,-1.4683,-1.4069,-1.3779,-1.2914,-1.2276,-1.1872,-1.1276,-1.0905,-1.0682,-1.0428,-1.0322,-1.0322,-1.0322,-1.0322,-1.0293,-0.9781,-0.9357,-0.8987,-0.8561,-0.8115,-0.772,-0.7695,-0.7695,-0.7695,-0.7695,-0.7695,-0.7695,-0.7695,-0.7695,-0.7691,-0.732,-0.6924,0.0,-0.6099,0.0,0.0,0.0,0.0,0.0,0.0,0.0,0.0,-0.6901,-0.7306,-0.7661,-0.7393,-0.732,-0.7686,-0.7749,-0.7778,-0.7725,-0.7739,-0.7822,-0.7908,-0.8184,-0.8398,-0.8408,-0.8788,-0.901,-0.9002,-0.9375,-0.9784,-1.0153,-1.0648,-1.0995,-1.1016,-1.1212,-1.1012,-0.997,-0.9762,-0.9315,-0.8282,-0.7934,-0.7905,-0.7905,-0.7924,-0.7866,-0.792,-0.8286,-0.8693,-0.9028,-0.9425,-0.9796,-1.0166,-1.0171,-1.0195,-1.0146,-0.9796,-0.9552,-0.9536,-0.9375,-0.9426,-1.9528,-1.919,-1.9629,-1.9554,-1.9164,-1.9397,-1.8945,-1.8022,-1.7576,-1.7055,-1.6506,-1.6506,-1.6506,-1.6506,-1.6506,-1.6506,-1.6506,-1.6506,-1.6506,-1.6515,-1.6387,-1.6132,-1.5668,-1.5041,-1.4419,-1.3779,-1.2926,-1.227,-1.1792,-1.1258,-1.0867,-1.0635,-1.0414,-1.0322,-1.0322,0.0,0.0,0.0,-0.9521,-0.907,-0.8967,-0.8236,-0.7803,-0.77,-0.7695,0.0,-0.7695,-0.7695,-0.7695,-0.7695,-0.7695,0.0,0.0,0.0,0.0,0.0,0.0,0.0,0.0,0.0,0.0,0.0,-0.7198,-0.7228,-0.7002,-0.7344,-0.7622,-0.7691,-0.7642,-0.7627,-0.7705,-0.8047,-0.8115,-0.7759,-0.8032,-0.8172,-0.7963,-0.8477,-0.8901,-0.9039,-0.9472,-0.9873,-1.0101,-1.0175,-1.036,-1.0817,-1.1089,-1.1263,-1.1375,-1.1551,-1.1393,-1.0644,-0.9884,-0.9291,-0.8822,-0.8735,-0.8665,-0.876,-0.8765,-0.874,-0.8729,-0.906,-0.9357,-0.9489,-0.9849,-1.0044,-0.9815,-0.9737,-0.9796,-0.9729,-0.9665,-0.9616,-0.9606,-0.9484,-0.9495,-1.9503,-1.9052,-1.9566,-1.951,0.0,-1.9559,-1.9353,-1.8544,-1.8028,-1.7319,-1.6513,-1.6506,-1.6506,-1.6506,-1.6506,-1.6506,-1.6506,-1.6506,-1.6506,-1.6506,-1.6506,-1.635,-1.6082,-1.528,-1.4662,-1.4154,-1.3053,-1.2282,-1.1836,-1.1263,-1.0886,-1.0649,-1.0414,-1.0322,-1.0298,-1.0068,-0.9947,-0.9966,-0.9318,-0.8906,-0.8677,-0.8051,-0.7695,-0.7695,-0.7695,0.0,0.0,0.0,0.0,0.0,0.0,0.0,0.0,0.0,0.0,-0.7109,-0.688,-0.6735,-0.6758,-0.6963,-0.7192,-0.7388,-0.7788,-0.7856,-0.7437,-0.7803,-0.8047,-0.8062,-0.8222,-0.8328,-0.8348,-0.856,-0.8599,-0.8387,-0.8555,-0.8654,-0.8598,-0.8983,-0.9361,-0.9579,-1.0081,-1.0529,-1.0718,-1.0939,-1.1128,-1.1385,-1.1503,-1.1577,-1.1647,-1.1734,-1.1503,-1.0699,-0.9856,-0.9231,-0.9055,-0.9004,-0.9014,-0.9004,-0.9004,-0.9004,-0.9004,-0.9333,-0.9616,-0.9645,-0.999,-1.019,-1.002,-0.9927,-0.9937,-0.9951,-0.9984,-1.004,-1.0073,-1.0132,-1.0309,-1.9415,-1.892,-1.9516,-1.9428,-1.8895,-1.9516,-1.9484,-1.8958,0.0,0.0,0.0,-1.6506,-1.6506,-1.6506,-1.6506,-1.6479,-1.6472,-1.647,-1.6436,-1.6402,-1.6392,-1.6336,-1.6199,-1.5242,-1.4621,-1.4277,-1.3027,-1.218,-1.1781,-1.122,-1.0829,-1.0644,-1.0428,-1.0322,-1.0273,-0.9825,-0.9558,-0.9489,-0.9111,-0.873,-0.8395,-0.7934,-0.7695,-0.7695,-0.7695,-0.7695,-0.7695,-0.7695,-0.7695,-0.7695,-0.7695,-0.7734,-0.7807,-0.7832,-0.771,-0.7466,-0.7441,-0.7446,-0.7437,-0.7441,-0.7588,-0.79,-0.8286,-0.8306,-0.7866,-0.8237,-0.8507,-0.8491,-0.8809,-0.8999,-0.9004,-0.9077,-0.9092,-0.9019,-0.9055,-0.9143,-0.9222,-0.9531,-0.9836,-1.0117,-1.0691,-1.1152,-1.1278,-1.1611,-1.1878,-1.1853,-1.1816,-1.1804,-1.1789,-1.1752,-1.1467,-1.0683,-1.0056,-0.9529,-0.9295,-0.9282,-0.9228,-0.9297,-0.9277,-0.9228,-0.926,-0.9499,-0.9708,-0.9785,-1.0059,-1.0254,-1.0317,-1.0273,-1.0322,-1.0322,-1.0365,-1.05,-1.0644,-1.0873,-1.1175,-1.9227,-1.8398,-1.939,-1.924,-1.8392,-1.9384,-1.9484,-1.892,-1.7947,-1.7137,-1.6513,-1.6506,-1.6506,-1.6506,-1.6506,-1.6485,-1.6392,-1.6297,-1.6182,-1.606,-1.5935,-1.5677,-1.5274,-1.4615,-1.3952,-1.3279,-1.2415,-1.1744,-1.13,-1.093,-1.0625,-1.0438,-1.0356,-1.0322,-1.0268,-0.983,-0.944,-0.9079,-0.8693,-0.8453,-0.839,-0.7934,-0.7695,-0.7695,-0.7695,-0.7695,-0.7695,-0.7695,-0.7695,-0.7695,-0.7695,-0.7881,-0.8272,-0.8281,-0.8439,-0.8706,-0.8735,-0.874,-0.8709,-0.8735,-0.876,-0.8797,-0.8882,-0.8735,-0.836,-0.8677,-0.8921,-0.8916,-0.8999,-0.9004,-0.9023,-0.9323,-0.9391,-0.9094,-0.9305,-0.9458,-0.9358,-0.99,-1.0405,-1.0795,-1.1499,-1.1981,-1.2112,-1.2253,-1.2276,-1.2095,-1.1932,-1.1804,-1.1785,-1.1651,-1.1377,-1.0991,-1.0685,-1.041,-1.0104,-1.0112,-1.0048,-1.0117,-1.0068,-1.0019,-1.0009,-1.0082,-1.0156,-1.0195,-1.0244,-1.0312,-1.0322,-1.0322,-1.0322,-1.0322,-1.0438,-1.0635,-1.0886,-1.1244,-1.1645,-1.8461,-1.7842,-1.832,-1.8247,-1.7848,-1.8922,-1.8909,-1.8112,-1.7609,-1.7249,-1.6951,-1.6666,-1.6506,-1.6506,-1.6506,-1.642,-1.6275,-1.6004,-1.58,-1.5583,-1.5097,-1.4764,-1.4489,-1.3712,-1.3075,-1.2615,-1.181,-1.1258,-1.0924,-1.0625,-1.0428,-1.0351,-1.0322,-1.0322,-1.0273,-0.983,-0.9518,-0.9313,-0.8722,-0.8271,-0.8017,-0.7812,-0.7695,-0.7695,-0.7695,-0.7695,-0.7695,-0.7695,-0.7695,-0.7695,-0.7695,-0.791,-0.8365,-0.839,-0.8564,-0.897,-0.9004,-0.9004,-0.9004,-0.9004,-0.9004,-0.9009,-0.9201,-0.9255,-0.906,-0.9216,-0.931,-0.9338,-0.9533,-0.9697,-0.9702,-0.9873,-0.9897,-0.9722,-0.9878,-0.9977,-1.0057,-1.0404,-1.0874,-1.1299,-1.191,-1.2383,-1.2609,-1.2744,-1.2715,-1.2461,-1.2089,-1.1827,-1.1804,-1.1736,-1.1545,-1.1231,-1.0967,-1.0668,-1.0375,-1.0322,-1.0322,-1.0322,-1.0322,-1.0322,-1.0322,-1.0322,-1.0322,-1.0322,-1.0322,-1.0322,-1.0322,-1.0322,-1.0322,-1.0322,-1.05,-1.0753,-1.1113,-1.1726,-1.2264,-1.7452,-1.6984,-1.7175,-1.7229,-1.7257,-1.8047,-1.7928,-1.7179,-1.7031,-1.6973,-1.6921,-1.6519,-1.6355,-1.6343,-1.6328,-1.6225,-1.5951,-1.5611,-1.531,-1.5039,-1.4389,-1.3982,-1.3709,-1.2931,-1.2387,-1.1956,-1.1258,-1.0824,-1.063,-1.0428,-1.0322,-1.0322,-1.0322,-1.0322,-1.0293,-0.9733,-0.9469,-0.9416,-0.8662,-0.812,-0.7886,-0.7754,-0.7695,-0.7695,-0.7695,-0.7695,-0.7695,-0.7695,-0.7695,-0.7695,-0.7695,-0.7959,-0.8493,-0.8532,-0.8767,-0.9219,-0.9297,-0.9287,-0.9297,-0.9292,-0.9297,-0.9297,-0.96,-0.9762,-0.9757,-0.9757,-0.9757,-0.9796,-1.0059,-1.0273,-1.0259,-1.0278,-1.0298,-1.0322,-1.0322,-1.0365,-1.0592,-1.0886,-1.1239,-1.1671,-1.221,-1.2644,-1.2838,-1.3053,-1.2984,-1.2532,-1.2125,-1.1851,-1.1804,-1.176,-1.1599,-1.138,-1.1132,-1.0802,-1.0414,-1.0322,-1.0322,-1.0322,-1.0322,-1.0322,-1.0322,-1.0322,-1.0322,-1.0322,-1.0322,-1.0322,-1.0322,-1.0322,-1.0322,-1.0322,-1.0539,-1.0924,-1.1505,-1.2246,-1.2826,-1.6229,-1.5805,-1.6265,-1.6506,-1.6495,-1.6615,-1.6603,-1.6413,-1.5913,-1.5674,-1.5698,-1.5799,-1.5852,-1.5859,-1.5865,-1.5663,-1.5355,-1.5091,-1.4795,-1.4478,-1.4174,-1.3563,-1.2813,-1.2621,-1.2038,-1.115,-1.0827,-1.0625,-1.0438,-1.0327,-1.0322,-1.0322,-1.0322,-1.0322,-1.0215,-0.9482,-0.9077,-0.9036,-0.8192,-0.7944,-0.8292,-0.791,-0.7695,-0.7695,-0.7695,-0.7695,-0.7695,-0.7695,-0.7695,-0.7695,-0.7695,-0.808,-0.8797,-0.8931,-0.9302,-1.0078,-1.0161,-1.0185,-1.0175,-1.0185,-1.0151,-1.019,-1.0185,-1.02,-1.0215,-1.0229,-1.022,-1.022,-1.0268,-1.0322,-1.0322,-1.0322,-1.0322,-1.0322,-1.0322,-1.039,-1.0682,-1.1051,-1.1462,-1.1999,-1.2467,-1.2868,-1.3031,-1.3135,-1.2908,-1.2342,-1.2089,-1.1884,-1.1792,-1.1662,-1.153,-1.1447,-1.1287,-1.0916,-1.0472,-1.0322,-1.0322,-1.0322,-1.0322,-1.0322,-1.0322,-1.0322,-1.0322,-1.0322,-1.0322,-1.0322,-1.0322,-1.0322,-1.0322,-1.0414,-1.0692,-1.118,-1.2053,-1.2726,-1.3053,-1.5252,-1.5037,-1.4998,-1.5154,-1.5414,-1.5738,-1.5674,-1.5375,-1.5154,-1.4879,-1.4624,-1.4706,-1.488,-1.5159,-1.5153,-1.4994,-1.4686,-1.4387,-1.4084,-1.3774,-1.323,-1.2723,-1.2352,-1.1824,-1.1322,-1.0905,-1.0606,-1.0428,-1.0356,-1.0322,-1.0322,-1.0322,-1.0322,-1.0322,-1.0229,-0.9683,-0.9362,-0.9338,-0.854,-0.8203,-0.8321,-0.7939,-0.7695,-0.7695,-0.7695,-0.7695,-0.7695,-0.7695,-0.7695,-0.7695,-0.7695,-0.7988,-0.8594,-0.8633,-0.9014,-0.9796,-1.0146,-1.0322,-1.0322,-1.0322,-1.0322,-1.0322,-1.0322,-1.0322,-1.0322,-1.0322,-1.0322,-1.0322,-1.0322,-1.0322,-1.0322,-1.0322,-1.0322,-1.0322,-1.0322,-1.0453,-1.0783,-1.1282,-1.1774,-1.2234,-1.2715,-1.306,-1.3129,-1.3071,-1.2832,-1.2395,-1.2192,-1.2029,-1.1829,-1.1632,-1.1428,-1.1231,-1.1038,-1.0764,-1.0395,-1.0322,-1.0322,-1.0322,-1.0322,-1.0322,-1.0322,-1.0322,-1.0322,-1.0322,-1.0322,-1.0322,-1.0322,-1.0356,-1.037,-1.0558,-1.1175,-1.1829,-1.2472,-1.2897,-1.3129,-1.42,-1.4158,-1.3835,-1.3898,-1.4231,-1.4625,-1.4563,-1.4226,-1.4205,-1.4007,-1.3716,-1.37,-1.3884,-1.4206,-1.441,-1.4369,-1.4095,-1.3808,-1.3547,-1.327,-1.2652,-1.233,-1.214,-1.1465,-1.1025,-1.0854,-1.0498,-1.0322,-1.0322,-1.0322,-1.0322,-1.0322,-1.0322,-1.0244,-1.0087,-0.9636,-0.9377,-0.9201,-0.8564,-0.8198,-0.8154,-0.7881,-0.7695,-0.7695,-0.7695,-0.7695,-0.7695,-0.7695,-0.7695,-0.7695,-0.7695,-0.7905,-0.836,-0.839,-0.8718,-0.9362,-0.9751,-0.9932,-0.9937,-1.0058,-1.0107,-1.0126,-1.0219,-1.0322,-1.0322,-1.0322,-1.0322,-1.0322,-1.0322,-1.0322,-1.0322,-1.0322,-1.0322,-1.0322,-1.0322,-1.0467,-1.0864,-1.1436,-1.1938,-1.2365,-1.2844,-1.321,-1.3187,-1.3071,-1.2873,-1.2621,-1.2401,-1.2144,-1.1853,-1.1571,-1.1306,-1.0957,-1.0753,-1.0553,-1.0356,-1.0322,-1.0322,-1.0322,-1.0322,-1.0322,-1.0322,-1.0322,-1.0322,-1.0322,-1.0322,-1.0322,-1.0317,-1.037,-1.0625,-1.0973,-1.1571,-1.2276,-1.265,-1.299,-1.317,-1.2983,-1.3017,-1.2964,-1.3012,-1.2993,-1.3081,-1.3047,-1.312,-1.3052,-1.2998,-1.3002,-1.2997,-1.2973,-1.3109,-1.3724,-1.3889,-1.3634,-1.3467,-1.3286,-1.3118,-1.2914,-1.2617,-1.2189,-1.1765,-1.1335,-1.0952,-1.0518,-1.0322,-1.0322,-1.0322,-1.0322,-1.0322,-1.0322,-1.0068,-0.9684,-0.927,-0.8843,-0.8527,-0.8032,-0.7749,-0.7744,-0.7715,-0.7695,-0.7695,-0.7695,-0.7695,-0.7695,-0.7695,-0.7695,-0.7695,-0.7695,-0.7905,-0.8321,-0.839,-0.86,-0.8979,-0.9077,-0.9092,-0.9165,-0.9435,-0.9659,-0.9708,-1.0034,-1.0293,-1.0322,-1.0322,-1.0322,-1.0322,-1.0322,-1.0322,-1.0322,-1.0322,-1.0322,-1.0322,-1.0322,-1.0467,-1.084,-1.1431,-1.1944,-1.2371,-1.2885,-1.3193,-1.3181,-1.3129,-1.3001,-1.2797,-1.2561,-1.2258,-1.1853,-1.1479,-1.1118,-1.0778,-1.0553,-1.039,-1.0322,-1.0322,-1.0322,-1.0322,-1.0322,-1.0322,-1.0322,-1.0322,-1.0322,-1.0322,-1.0317,-1.0312,-1.0337,-1.0577,-1.0962,-1.1412,-1.1975,-1.2532,-1.2815,-1.3025,-1.317,-1.291,-1.291,-1.291,-1.291,-1.291,-1.291,-1.291,-1.291,-1.291,-1.291,-1.291,-1.291,-1.291,-1.2925,-1.3176,-1.3243,-1.3162,-1.3104,-1.3041,-1.2978,-1.291,-1.2803,-1.2588,-1.1937,-1.1542,-1.1271,-1.0635,-1.0322,-1.0322,-1.0322,-1.0322,-1.0322,-1.0322,-1.0063,-0.9616,-0.9196,-0.8799,-0.839,-0.7934,-0.7695,-0.7695,-0.7695,-0.7695,-0.7695,-0.7695,-0.7695,-0.7695,-0.7695,-0.7695,-0.7695,-0.7695,-0.7783,-0.7944,-0.8232,-0.8453,-0.8608,-0.8862,-0.9004,-0.9019,-0.9123,-0.9338,-0.9578,-0.9747,-1.001,-1.0234,-1.0322,-1.0322,-1.0322,-1.0322,-1.0322,-1.0322,-1.0322,-1.0322,-1.0322,-1.0322,-1.0453,-1.0883,-1.1418,-1.1962,-1.2377,-1.2879,-1.321,-1.3187,-1.3163,-1.3129,-1.3036,-1.2785,-1.2371,-1.1889,-1.146,-1.1029,-1.0602,-1.0395,-1.0332,-1.0322,-1.0322,-1.0322,-1.0322,-1.0322,-1.0322,-1.0322,-1.0322,-1.0322,-1.0322,-1.0312,-1.0462,-1.0558,-1.1038,-1.1425,-1.192,-1.2496,-1.2733,-1.2955,-1.3112,-1.3187,-1.291,-1.291,-1.291,-1.291,-1.291,-1.291,-1.291,-1.291,-1.291,-1.291,-1.291,-1.291,-1.291,-1.291,-1.291,-1.291,-1.291,-1.291,-1.291,-1.291,-1.291,-1.291,-1.2788,-1.2152,-1.1721,-1.1489,-1.0729,-1.0322,-1.0322,-1.0322,-1.0322,-1.0322,-1.0322,-0.9985,-0.946,-0.9118,-0.875,-0.8223,-0.7841,-0.7695,-0.7695,-0.7695,-0.7695,-0.7695,-0.7695,-0.7695,-0.7695,-0.7695,-0.7695,-0.7695,-0.7695,-0.7695,-0.7729,-0.7988,-0.8164,-0.8198,-0.8428,-0.8589,-0.8597,-0.8716,-0.8963,-0.9377,-0.9557,-0.9796,-1.0239,-1.0322,-1.0322,-1.0322,-1.0322,-1.0322,-1.0322,-1.0322,-1.0322,-1.0322,-1.0322,-1.0448,-1.0807,-1.1354,-1.1926,-1.2473,-1.2867,-1.3071,-1.3112,-1.3071,-1.3053,-1.3036,-1.2739,-1.2294,-1.1792,-1.1367,-1.094,-1.0428,-1.0341,-1.0317,-1.0307,-1.0307,-1.0327,-1.0332,-1.0322,-1.0322,-1.0322,-1.0322,-1.0322,-1.0322,-1.0433,-1.0616,-1.0986,-1.1481,-1.1969,-1.2425,-1.2739,-1.299,-1.3094,-1.3146,-1.3204,-1.2939,-1.2949,-1.2915,-1.2935,-1.291,-1.291,-1.291,-1.291,-1.291,-1.291,-1.291,-1.291,-1.291,-1.291,-1.291,-1.291,-1.291,-1.291,-1.291,-1.291,-1.291,-1.291,-1.2871,-1.2388,-1.189,-1.1496,-1.0723,-1.0332,-1.0322,-1.0322,-1.0322,-1.0322,-1.0322,-0.9878,-0.9038,-0.8994,-0.8589,-0.7934,-0.771,-0.7695,-0.7695,-0.7695,-0.7695,-0.7695,-0.7695,-0.7695,-0.7695,-0.7695,-0.7695,-0.7695,-0.7695,-0.7695,-0.7695,-0.7744,-0.772,-0.7749,-0.7764,-0.7754,-0.7798,-0.8174,-0.8555,-0.897,-0.934,-0.9723,-1.0103,-1.0268,-1.0322,-1.0322,-1.0322,-1.0322,-1.0322,-1.0322,-1.0322,-1.0322,-1.0322,-1.0409,-1.0725,-1.118,-1.1842,-1.2603,-1.2884,-1.2884,-1.2884,-1.282,-1.275,-1.2615,-1.2335,-1.1962,-1.1553,-1.1142,-1.0769,-1.0453,-1.0332,-1.0342,-1.0317,-1.0317,-1.0347,-1.0361,-1.0342,-1.0322,-1.0322,-1.0322,-1.0361,-1.0395,-1.0731,-1.0954,-1.1505,-1.1982,-1.2318,-1.2739,-1.299,-1.3135,-1.317,-1.3204,-1.3204,-1.3569,-1.3325,-1.3315,-1.3164,-1.293,-1.291,-1.291,-1.291,-1.291,-1.291,-1.291,-1.291,-1.291,-1.291,-1.291,-1.291,-1.291,-1.291,-1.291,-1.291,-1.291,-1.291,-1.2822,-1.2432,-1.1818,-1.1191,-1.0854,-1.0552,-1.0347,-1.0322,-1.0322,-1.0322,-1.0322,-0.9834,-0.9048,-0.8984,-0.8568,-0.7802,-0.7695,-0.7695,-0.7695,-0.7695,-0.7695,-0.7695,-0.7695,-0.7695,-0.7695,-0.7695,-0.7695,-0.7695,-0.7695,-0.7695,-0.7695,-0.7695,-0.7695,-0.7695,-0.7695,-0.7695,-0.7705,-0.7846,-0.8119,-0.8545,-0.897,-0.9362,-0.9786,-1.0117,-1.0288,-1.0322,-1.0322,-1.0322,-1.0322,-1.0322,-1.0322,-1.0322,-1.0322,-1.0395,-1.0654,-1.1175,-1.1836,-1.2449,-1.2638,-1.2621,-1.2579,-1.2508,-1.2317,-1.2154,-1.1881,-1.1586,-1.1258,-1.1034,-1.0673,-1.037,-1.0356,-1.0498,-1.065,-1.0767,-1.0802,-1.0767,-1.067,-1.0488,-1.0435,-1.0469,-1.0488,-1.0673,-1.1005,-1.1431,-1.1982,-1.2389,-1.2726,-1.2914,-1.3077,-1.317,-1.321,-1.321,-1.321,-1.3958,-1.3704,-1.3574,-1.3359,-1.3096,-1.2983,-1.291,-1.291,-1.291,-1.291,-1.291,-1.291,-1.291,-1.291,-1.291,-1.291,-1.291,-1.291,-1.291,-1.291,-1.291,-1.291,-1.2807,-1.2251,-1.1738,-1.1177,-1.083,-1.0542,-1.0317,-1.0322,-1.0322,-1.0322,-1.0322,-0.9872,-0.9087,-0.8979,-0.8568,-0.7822,-0.7695,-0.7695,-0.7695,-0.7695,-0.7695,-0.7695,-0.7695,-0.7695,-0.7695,-0.7695,-0.7695,-0.7695,-0.7695,-0.7695,-0.7695,-0.7695,-0.7695,-0.7695,-0.7695,-0.7695,-0.7695,-0.771,-0.79,-0.8365,-0.8765,-0.9167,-0.9581,-1.0024,-1.0288,-1.0322,-1.0322,-1.0322,-1.0322,-1.0322,-1.0322,-1.0322,-1.0322,-1.0414,-1.0668,-1.1113,-1.1653,-1.2102,-1.2252,-1.227,-1.2228,-1.206,-1.1913,-1.1772,-1.1627,-1.1563,-1.1322,-1.1231,-1.0975,-1.0818,-1.0895,-1.1032,-1.1134,-1.1217,-1.1281,-1.1217,-1.1129,-1.0885,-1.0688,-1.0785,-1.0845,-1.1179,-1.1523,-1.1933,-1.2449,-1.272,-1.3001,-1.3112,-1.317,-1.3187,-1.321,-1.321,-1.321,-1.4177,-1.409,-1.3695,-1.3535,-1.3428,-1.3076,-1.291,-1.291,-1.291,-1.291,-1.291,-1.291,-1.291,-1.291,-1.291,-1.291,-1.291,-1.291,-1.291,-1.291,-1.2905,-1.2881,-1.2681,-1.207,-1.1667,-1.1349,-1.0748,-1.0381,-1.0322,-1.0322,-1.0322,-1.0322,-1.0293,-0.9906,-0.9228,-0.9043,-0.8613,-0.7924,-0.7729,-0.7695,-0.7695,-0.7695,-0.7695,-0.7695,-0.7695,-0.7695,-0.7695,-0.7695,-0.7695,-0.7695,-0.7695,-0.7695,-0.7695,-0.7695,-0.7695,-0.7695,-0.7695,-0.7695,-0.7695,-0.7695,-0.7895,-0.836,-0.877,-0.9157,-0.9558,-1.0015,-1.0322,-1.0322,-1.0322,-1.0322,-1.0322,-1.0322,-1.0322,-1.0322,-1.0322,-1.0409,-1.0644,-1.0967,-1.1319,-1.1684,-1.1799,-1.1802,-1.186,-1.1684,-1.1651,-1.1691,-1.1632,-1.1634,-1.1698,-1.1589,-1.1624,-1.1525,-1.1356,-1.1467,-1.1523,-1.1611,-1.1699,-1.1907,-1.1756,-1.1457,-1.1168,-1.1204,-1.15,-1.1847,-1.2156,-1.2549,-1.2847,-1.3145,-1.3205,-1.317,-1.321,-1.321,-1.321,-1.321,-1.3223,-1.4893,-1.4575,-1.4119,-1.3768,-1.3472,-1.3081,-1.291,-1.291,-1.291,-1.291,-1.291,-1.291,-1.291,-1.291,-1.291,-1.291,-1.291,-1.291,-1.291,-1.291,-1.291,-1.2681,-1.2428,-1.215,-1.1689,-1.1128,-1.0815,-1.0581,-1.0342,-1.0322,-1.0322,-1.0322,-1.0312,-1.002,-0.9494,-0.9155,-0.874,-0.8223,-0.7842,-0.7695,-0.7695,-0.7695,-0.7695,-0.7695,-0.7695,-0.7695,-0.7695,-0.7695,-0.7695,-0.7695,-0.7695,-0.7695,-0.7695,-0.7695,-0.7695,-0.7695,-0.7695,-0.7695,-0.7695,-0.7695,-0.792,-0.836,-0.877,-0.9185,-0.9558,-1.0029,-1.0268,-1.0322,-1.0322,-1.0322,-1.0322,-1.0322,-1.0322,-1.0322,-1.0322,-1.0322,-1.0433,-1.0621,-1.0878,-1.1159,-1.1226,-1.1397,-1.1591,-1.1608,-1.1521,-1.1635,-1.1675,-1.1676,-1.1856,-1.1873,-1.1859,-1.167,-1.1587,-1.178,-1.1914,-1.2002,-1.2187,-1.2538,-1.2445,-1.2152,-1.19,-1.1773,-1.2251,-1.2764,-1.3046,-1.3395,-1.3508,-1.3685,-1.3545,-1.3353,-1.3217,-1.3217,-1.321,-1.321,-1.3242,-1.5269,-1.499,-1.4367,-1.3968,-1.367,-1.313,-1.291,-1.291,-1.291,-1.291,-1.291,-1.291,-1.291,-1.291,-1.291,-1.291,-1.291,-1.291,-1.291,-1.2866,-1.2686,-1.2447,-1.2213,-1.2043,-1.1572,-1.0957,-1.0732,-1.0508,-1.0337,-1.0322,-1.0322,-1.0322,-1.0322,-1.0073,-0.9578,-0.9214,-0.8799,-0.8385,-0.7959,-0.7695,-0.7695,-0.7695,-0.7695,-0.7695,-0.7695,-0.7695,-0.7695,-0.7695,-0.7695,-0.7695,-0.7695,-0.7695,-0.7695,-0.7695,-0.7695,-0.7695,-0.7695,-0.7695,-0.7695,-0.77,-0.792,-0.8345,-0.8781,-0.918,-0.9577,-1.0024,-1.0322,-1.0322,-1.0322,-1.0322,-1.0322,-1.0322,-1.0322,-1.0322,-1.0322,-1.0322,-1.0322,-1.0448,-1.0616,-1.0833,-1.1024,-1.1185,-1.153,-1.1516,-1.1649,-1.1797,-1.1913,-1.2018,-1.2152,-1.2103,-1.2083,-1.202,-1.2034,-1.2264,-1.2349,-1.2412,-1.2417,-1.2773,-1.2798,-1.2573,-1.2414,-1.2248,-1.2595,-1.3099,-1.368,-1.4098,-1.4086,-1.4044,-1.3874,-1.3677,-1.3416,-1.3267,-1.3286,-1.346,-1.3453,-1.5415,-1.5347,-1.4518,-1.4148,-1.3973,-1.3296,-1.2969,-1.291,-1.291,-1.291,-1.291,-1.291,-1.291,-1.291,-1.291,-1.291,-1.291,-1.291,-1.291,-1.2783,-1.2505,-1.2166,-1.2033,-1.166,-1.1266,-1.0796,-1.0439,-1.0352,-1.0322,-1.0322,-1.0322,-1.0322,-1.0322,-1.0112,-0.9708,-0.9268,-0.8828,-0.8467,-0.7959,-0.771,-0.7695,-0.7695,-0.7695,-0.7695,-0.7695,-0.7695,-0.7695,-0.7695,-0.7695,-0.7695,-0.7695,-0.7695,-0.7695,-0.7695,-0.7695,-0.7695,-0.7695,-0.7695,-0.772,-0.7783,-0.8018,-0.8467,-0.8877,-0.9253,-0.9689,-1.0117,-1.0322,-1.0322,-1.0322,-1.0322,-1.0322,-1.0322,-1.0322,-1.0322,-1.0322,-1.0312,-1.0361,-1.04,-1.0502,-1.0697,-1.103,-1.1261,-1.1473,-1.1654,-1.1883,-1.2271,-1.2305,-1.2383,-1.251,-1.2558,-1.2597,-1.2656,-1.2709,-1.2807,-1.2846,-1.2851,-1.2822,-1.2895,-1.289,-1.2763,-1.2669,-1.2602,-1.2788,-1.3215,-1.4057,-1.4423,-1.4422,-1.4349,-1.4294,-1.4148,-1.3992,-1.3698,-1.3497,-1.3767,-1.3891,-1.5415,-1.5366,-1.4863,-1.4443,-1.4055,-1.3568,-1.3179,-1.291,-1.291,-1.291,-1.291,-1.291,-1.291,-1.291,-1.291,-1.291,-1.291,-1.291,-1.291,-1.2851,-1.2432,-1.2017,-1.1689,-1.1271,-1.0835,-1.0493,-1.0361,-1.0322,-1.0322,-1.0322,-1.0322,-1.0322,-1.0317,-1.0259,-1.0068,-0.9365,-0.8975,-0.874,-0.8089,-0.771,-0.7695,-0.7695,-0.7695,-0.7695,-0.7695,-0.7695,-0.7695,-0.7695,-0.7695,-0.7695,-0.7695,-0.7695,-0.7695,-0.7695,-0.7695,-0.7695,-0.7695,-0.7695,-0.7749,-0.8032,-0.8413,-0.8804,-0.9187,-0.9678,-1.0102,-1.0219,-1.0322,-1.0322,-1.0322,-1.0322,-1.0322,-1.0322,-1.0322,-1.0322,-1.0337,-1.0439,-1.0684,-1.0772,-1.0788,-1.0952,-1.1253,-1.1635,-1.1955,-1.2033,-1.228,-1.2637,-1.2744,-1.2783,-1.2832,-1.2905,-1.291,-1.291,-1.291,-1.291,-1.291,-1.291,-1.291,-1.291,-1.291,-1.29,-1.2808,-1.2903,-1.3039,-1.3692,-1.4575,-1.4749,-1.4755,-1.5059,-1.5104,-1.4846,-1.4595,-1.4362,-1.4212,-1.4325,-1.4412,-1.5415,-1.5371,-1.4961,-1.4536,-1.408,-1.3661,-1.3271,-1.2964,-1.291,-1.291,-1.291,-1.291,-1.291,-1.291,-1.291,-1.291,-1.291,-1.2905,-1.2759,-1.252,-1.2104,-1.1692,-1.1245,-1.0845,-1.0493,-1.0332,-1.0322,-1.0322,-1.0322,-1.0322,-1.0322,-1.0322,-1.0322,-1.0317,-1.018,-0.9443,-0.9043,-0.8807,-0.8143,-0.7695,-0.7695,-0.7695,-0.7695,-0.7695,-0.7695,-0.7695,-0.7695,-0.7695,-0.7695,-0.7695,-0.7695,-0.7695,-0.7695,-0.7695,-0.7695,-0.7695,-0.7695,-0.7695,-0.7798,-0.8135,-0.8566,-0.8979,-0.9372,-0.9824,-1.0175,-1.0322,-1.0322,-1.0322,-1.0322,-1.0322,-1.0322,-1.0322,-1.0322,-1.0347,-1.0488,-1.0669,-1.0854,-1.0908,-1.1006,-1.1221,-1.1623,-1.1904,-1.2145,-1.233,-1.2534,-1.2817,-1.2832,-1.2842,-1.2847,-1.291,-1.291,-1.291,-1.291,-1.291,-1.291,-1.291,-1.291,-1.291,-1.291,-1.291,-1.2865,-1.3053,-1.3278,-1.3933,-1.4521,-1.5027,-1.5138,-1.5486,-1.5666,-1.5387,-1.5116,-1.4997,-1.4871,-1.4751,-1.4902,-1.5415,-1.5352,-1.5024,-1.4601,-1.4177,-1.3799,-1.3389,-1.3047,-1.2925,-1.291,-1.291,-1.291,-1.291,-1.291,-1.291,-1.291,-1.291,-1.2886,-1.2705,-1.2252,-1.1841,-1.1406,-1.0972,-1.0576,-1.0347,-1.0322,-1.0322,-1.0322,-1.0322,-1.0322,-1.0322,-1.0322,-1.0322,-1.0322,-1.0122,-0.9473,-0.9004,-0.8892,-0.8153,-0.7695,-0.7695,-0.7695,-0.7695,-0.7695,-0.7695,-0.7695,-0.7695,-0.7695,-0.7695,-0.7695,-0.7695,-0.7695,-0.7695,-0.7695,-0.7695,-0.7695,-0.7695,-0.7695,-0.7807,-0.8203,-0.8688,-0.9009,-0.9487,-0.9849,-1.0195,-1.0322,-1.0322,-1.0322,-1.0322,-1.0322,-1.0322,-1.0322,-1.0342,-1.0454,-1.0723,-1.0933,-1.1068,-1.1092,-1.1362,-1.1631,-1.2031,-1.2358,-1.2476,-1.2617,-1.2798,-1.291,-1.291,-1.291,-1.291,-1.291,-1.291,-1.291,-1.291,-1.291,-1.291,-1.291,-1.291,-1.292,-1.292,-1.2925,-1.2925,-1.3002,-1.3229,-1.3687,-1.4213,-1.479,-1.5373,-1.5737,-1.5832,-1.5709,-1.5674,-1.5586,-1.5392,-1.5153,-1.5332,-1.5415,-1.541,-1.5342,-1.5059,-1.4639,-1.4187,-1.3763,-1.3384,-1.3052,-1.2915,-1.2925,-1.291,-1.291,-1.291,-1.291,-1.291,-1.291,-1.289,-1.2622,-1.2155,-1.1765,-1.1349,-1.083,-1.0474,-1.0312,-1.0322,-1.0322,-1.0322,-1.0322,-1.0322,-1.0322,-1.0322,-1.0322,-1.0322,-1.0078,-0.9482,-0.9048,-0.8906,-0.8207,-0.7783,-0.77,-0.7695,-0.7695,-0.7695,-0.7695,-0.7695,-0.7695,-0.7695,-0.7695,-0.7695,-0.7695,-0.7695,-0.7695,-0.7695,-0.7695,-0.7695,-0.7695,-0.7695,-0.7778,-0.8402,-0.8833,-0.9148,-0.9648,-1.0107,-1.0268,-1.0322,-1.0322,-1.0322,-1.0322,-1.0322,-1.0322,-1.0322,-1.0488,-1.0679,-1.0913,-1.1221,-1.1721,-1.1931,-1.1935,-1.2129,-1.2476,-1.272,-1.2739,-1.2783,-1.2851,-1.291,-1.291,-1.291,-1.291,-1.291,-1.291,-1.291,-1.291,-1.291,-1.291,-1.291,-1.2915,-1.2935,-1.2939,-1.2959,-1.2949,-1.292,-1.3162,-1.3602,-1.4194,-1.4841,-1.5379,-1.5883,-1.6132,-1.6137,-1.6149,-1.6162,-1.589,-1.5614,-1.5601,-1.5415,-1.5415,-1.5415,-1.5166,-1.479,-1.4565,-1.4202,-1.3778,-1.3394,-1.3208,-1.3164,-1.3023,-1.291,-1.291,-1.291,-1.291,-1.291,-1.291,-1.2505,-1.1985,-1.1663,-1.1208,-1.0689,-1.0361,-1.0327,-1.0322,-1.0322,-1.0322,-1.0322,-1.0322,-1.0322,-1.0322,-1.0322,-1.0322,-1.0175,-0.9678,-0.9243,-0.8919,-0.8403,-0.792,-0.772,-0.7695,-0.7695,-0.7695,-0.7695,-0.7695,-0.7695,-0.7695,-0.7695,-0.7695,-0.7695,-0.7695,-0.7695,-0.7695,-0.77,-0.7705,-0.7715,-0.7705,-0.7773,-0.8324,-0.8726,-0.9048,-0.9634,-1.0039,-1.0234,-1.0322,-1.0322,-1.0322,-1.0322,-1.0322,-1.0322,-1.0332,-1.0508,-1.084,-1.1103,-1.1558,-1.2047,-1.2379,-1.2476,-1.252,-1.2686,-1.2817,-1.2871,-1.2886,-1.2905,-1.291,-1.291,-1.291,-1.291,-1.291,-1.291,-1.291,-1.291,-1.291,-1.291,-1.291,-1.2988,-1.3013,-1.3062,-1.3081,-1.3101,-1.3164,-1.3267,-1.357,-1.4181,-1.4914,-1.5427,-1.5959,-1.6253,-1.6506,-1.6391,-1.6286,-1.6195,-1.612,-1.5879,-1.5415,-1.5415,-1.5415,-1.5215,-1.4927,-1.481,-1.459,-1.4197,-1.3782,-1.3574,-1.3436,-1.3174,-1.2998,-1.2925,-1.291,-1.291,-1.29,-1.2817,-1.2299,-1.1758,-1.1452,-1.1012,-1.0503,-1.0322,-1.0322,-1.0322,-1.0322,-1.0322,-1.0322,-1.0322,-1.0322,-1.0322,-1.0322,-1.0322,-1.019,-0.9776,-0.9421,-0.9106,-0.862,-0.8169,-0.7807,-0.7695,-0.7695,-0.7695,-0.7695,-0.7695,-0.7695,-0.7695,-0.7695,-0.7695,-0.7695,-0.7695,-0.7695,-0.7695,-0.7734,-0.7822,-0.7856,-0.7827,-0.7983,-0.8426,-0.895,-0.9204,-0.9533,-0.9927,-1.0175,-1.0322,-1.0322,-1.0322,-1.0322,-1.0322,-1.0337,-1.04,-1.0655,-1.1046,-1.1482,-1.1893,-1.2305,-1.2617,-1.2764,-1.2842,-1.291,-1.291,-1.291,-1.291,-1.291,-1.291,-1.291,-1.291,-1.291,-1.291,-1.291,-1.291,-1.291,-1.291,-1.291,-1.291,-1.3013,-1.3164,-1.3267,-1.335,-1.3408,-1.3472,-1.3671,-1.3916,-1.4402,-1.5117,-1.5575,-1.5966,-1.6278,-1.6479,-1.6457,-1.6306,-1.6022,-1.568,-1.5384,-1.5415,-1.5415,-1.541,-1.5347,-1.5273,-1.4956,-1.4803,-1.4663,-1.4221,-1.3812,-1.356,-1.3412,-1.3203,-1.2979,-1.291,-1.291,-1.2783,-1.2471,-1.209,-1.1604,-1.1232,-1.0801,-1.0371,-1.0327,-1.0322,-1.0322,-1.0322,-1.0322,-1.0322,-1.0322,-1.0322,-1.0322,-1.0322,-1.0322,-1.0259,-0.9917,-0.9583,-0.9406,-0.8784,-0.8178,-0.7797,-0.7705,-0.769,-0.7666,-0.7661,-0.7652,-0.7652,-0.7656,-0.7671,-0.7695,-0.7695,-0.7695,-0.7695,-0.7695,-0.7939,-0.8184,-0.8316,-0.8306,-0.8413,-0.8855,-0.9299,-0.9469,-0.9858,-1.0166,-1.0288,-1.0322,-1.0322,-1.0322,-1.0322,-1.0322,-1.0371,-1.0635,-1.1017,-1.1418,-1.1804,-1.2241,-1.2671,-1.2705,-1.2886,-1.291,-1.291,-1.291,-1.291,-1.291,-1.291,-1.291,-1.291,-1.291,-1.291,-1.291,-1.291,-1.291,-1.291,-1.291,-1.2998,-1.2983,-1.313,-1.3325,-1.3589,-1.3711,-1.3745,-1.3875,-1.421,-1.4517,-1.4933,-1.5178,-1.5529,-1.5907,-1.63,-1.6365,-1.6278,-1.5994,-1.5625,-1.5277,-1.4852,-1.4902,-1.5395,-1.5156,-1.52,-1.5352,-1.5205,-1.5142,-1.5049,-1.4683,-1.4263,-1.3841,-1.3563,-1.3271,-1.2969,-1.291,-1.291,-1.2783,-1.2384,-1.1987,-1.1565,-1.1099,-1.0679,-1.0391,-1.0322,-1.0322,-1.0322,-1.0322,-1.0322,-1.0322,-1.0322,-1.0322,-1.0322,-1.0322,-1.0322,-1.0322,-1.0122,-0.9845,-0.9487,-0.8945,-0.8352,-0.7985,-0.778,-0.764,-0.7435,-0.744,-0.7474,-0.7547,-0.7573,-0.7608,-0.7642,-0.7676,-0.7695,-0.7695,-0.7725,-0.7905,-0.8356,-0.8613,-0.8716,-0.8784,-0.9114,-0.9382,-0.9573,-0.9825,-0.9966,-1.021,-1.0322,-1.0322,-1.0322,-1.0322,-1.0332,-1.0391,-1.0674,-1.1105,-1.1545,-1.2026,-1.2407,-1.2754,-1.2851,-1.291,-1.291,-1.291,-1.291,-1.291,-1.291,-1.291,-1.291,-1.291,-1.291,-1.291,-1.291,-1.291,-1.291,-1.291,-1.291,-1.3037,-1.3096,-1.332,-1.3594,-1.416,-1.4228,-1.4114,-1.4287,-1.4577,-1.4733,-1.4941,-1.5199,-1.5507,-1.5929,-1.6386,-1.6278,-1.6054,-1.5674,-1.5249,-1.4594,-1.4177,-1.3795,-1.4563,-1.4577,-1.4744,-1.5032,-1.5124,-1.5172,-1.5129,-1.4821,-1.4412,-1.3937,-1.3491,-1.312,-1.2944,-1.291,-1.2905,-1.2856,-1.231,-1.1914,-1.1516,-1.103,-1.0591,-1.0381,-1.0322,-1.0322,-1.0322,-1.0322,-1.0322,-1.0322,-1.0322,-1.0322,-1.0322,-1.0322,-1.0322,-1.0322,-1.0239,-1.003,-0.946,-0.8981,-0.8463,-0.8024,-0.777,-0.7531,-0.7348,-0.7269,-0.7304,-0.7449,-0.765,-0.7738,-0.7701,-0.786,-0.789,-0.7749,-0.7876,-0.8144,-0.8574,-0.8914,-0.9238,-0.9321,-0.9492,-0.9499,-0.9655,-0.9786,-1.0024,-1.0234,-1.0322,-1.0322,-1.0322,-1.0322,-1.0352,-1.0518,-1.085,-1.1309,-1.1775,-1.2178,-1.252,-1.2788,-1.2876,-1.291,-1.291,-1.291,-1.291,-1.291,-1.291,-1.291,-1.291,-1.291,-1.291,-1.292,-1.293,-1.3032,-1.3071,-1.3135,-1.3198,-1.3394,-1.3496,-1.3647,-1.3903,-1.4475,-1.4779,-1.4663,-1.4618,-1.477,-1.4909,-1.5067,-1.5366,-1.5736,-1.6116,-1.6429,-1.6163,-1.585,-1.535,-1.4823,-1.4125,-1.3624,-1.1931,-1.2423,-1.3492,-1.3939,-1.4023,-1.4411,-1.4535,-1.4418,-1.4457,-1.4048,-1.3473,-1.3046,-1.2827,-1.2891,-1.291,-1.291,-1.2871,-1.2015,-1.1726,-1.1359,-1.0811,-1.0459,-1.0322,-1.0322,-1.0322,-1.0322,-1.0322,-1.0322,-1.0322,-1.0322,-1.0322,-1.0322,-1.0322,-1.0322,-1.0303,-1.0244,-0.9935,-0.9422,-0.8953,-0.8467,-0.7977,-0.7641,-0.7419,-0.7377,-0.7364,-0.7463,-0.767,-0.7903,-0.8035,-0.792,-0.8189,-0.8192,-0.8051,-0.8203,-0.8535,-0.8924,-0.9255,-0.9601,-0.9887,-1.0009,-1.0156,-1.0224,-1.02,-1.0185,-1.0307,-1.0322,-1.0322,-1.0342,-1.0371,-1.0518,-1.0825,-1.126,-1.1689,-1.1997,-1.2349,-1.2665,-1.2866,-1.2881,-1.291,-1.291,-1.291,-1.291,-1.291,-1.291,-1.291,-1.291,-1.291,-1.291,-1.2959,-1.2998,-1.3174,-1.3296,-1.3412,-1.3597,-1.3919,-1.4051,-1.4141,-1.4397,-1.4838,-1.5129,-1.5243,-1.5214,-1.5126,-1.5322,-1.5556,-1.5757,-1.598,-1.6342,-1.6441,-1.6049,-1.5601,-1.5005,-1.4369,-1.3705,-1.3315,-1.1043,-1.091,-1.1775,-1.2369,-1.2813,-1.2948,-1.3009,-1.3009,-1.3033,-1.3018,-1.2852,-1.2599,-1.2603,-1.2808,-1.291,-1.291,-1.2827,-1.2275,-1.187,-1.1477,-1.1007,-1.0557,-1.043,-1.0337,-1.0322,-1.0322,-1.0322,-1.0322,-1.0322,-1.0322,-1.0322,-1.0322,-1.0322,-1.0322,-1.0303,-1.0166,-0.9775,-0.9351,-0.8932,-0.8479,-0.7913,-0.76,-0.7335,-0.7108,-0.7079,-0.7241,-0.7506,-0.7864,-0.8077,-0.8295,-0.8587,-0.8574,-0.8475,-0.8667,-0.895,-0.9279,-0.9552,-0.9863,-1.02,-1.0322,-1.0322,-1.0322,-1.0298,-1.0322,-1.0322,-1.0322,-1.0322,-1.0366,-1.0542,-1.0742,-1.0923,-1.1528,-1.2052,-1.2267,-1.2529,-1.2817,-1.291,-1.291,-1.291,-1.291,-1.291,-1.291,-1.291,-1.291,-1.291,-1.291,-1.291,-1.2935,-1.3018,-1.316,-1.3359,-1.3638,-1.3778,-1.3934,-1.4236,-1.4438,-1.4622,-1.4934,-1.5231,-1.5476,-1.5704,-1.5674,-1.5657,-1.5827,-1.5954,-1.6084,-1.6282,-1.6556,-1.6424,-1.5933,-1.5249,-1.4543,-1.3912,-1.3302,-1.3094,-1.0252,-0.9981,-1.0307,-1.0935,-1.163,-1.1861,-1.1886,-1.1852,-1.1975,-1.2032,-1.2219,-1.2108,-1.2278,-1.2578,-1.2656,-1.2656,-1.2517,-1.2162,-1.1905,-1.1513,-1.1085,-1.074,-1.0518,-1.0371,-1.0322,-1.0322,-1.0322,-1.0322,-1.0322,-1.0322,-1.0322,-1.0322,-1.0322,-1.0322,-1.0244,-0.9986,-0.9631,-0.9195,-0.8703,-0.831,-0.7724,-0.7449,-0.725,-0.6968,-0.6968,-0.7182,-0.7577,-0.7996,-0.8312,-0.8581,-0.8861,-0.906,-0.9065,-0.9128,-0.9333,-0.9542,-0.9767,-0.9976,-1.0205,-1.0322,-1.0322,-1.0322,-1.0322,-1.0322,-1.0322,-1.0312,-1.0337,-1.0532,-1.0762,-1.1006,-1.1156,-1.1857,-1.2281,-1.25,-1.2666,-1.291,-1.291,-1.291,-1.291,-1.291,-1.291,-1.292,-1.3008,-1.3023,-1.3032,-1.2993,-1.291,-1.3023,-1.3208,-1.3384,-1.3633,-1.3931,-1.4224,-1.4375,-1.4513,-1.477,-1.5032,-1.5402,-1.5701,-1.5948,-1.6104,-1.6073,-1.6,-1.606,-1.6177,-1.6376,-1.6456,-1.6545,-1.6214,-1.5747,-1.4971,-1.415,-1.3753,-1.3249,-1.3042,-0.9472,-0.9648,-0.9438,-0.9836,-1.0711,-1.1339,-1.1383,-1.1178,-1.1399,-1.1507,-1.151,-1.1477,-1.1694,-1.1993,-1.2038,-1.2042,-1.1998,-1.1767,-1.1635,-1.1521,-1.1192,-1.0863,-1.0702,-1.0572,-1.0391,-1.0337,-1.0322,-1.0322,-1.0322,-1.0322,-1.0322,-1.0322,-1.0322,-1.0283,-1.0244,-0.978,-0.9295,-0.8809,-0.8251,-0.7829,-0.7532,-0.7238,-0.7066,-0.6994,-0.697,-0.7177,-0.7619,-0.8155,-0.8491,-0.8745,-0.9281,-0.9402,-0.922,-0.9479,-0.963,-0.967,-1.0044,-1.0239,-1.0322,-1.0322,-1.0322,-1.0322,-1.0322,-1.0322,-1.0312,-1.0356,-1.0488,-1.0728,-1.1001,-1.1385,-1.1799,-1.2223,-1.25,-1.2666,-1.2851,-1.291,-1.291,-1.291,-1.291,-1.291,-1.291,-1.2935,-1.3062,-1.315,-1.3145,-1.3086,-1.2964,-1.3106,-1.3423,-1.374,-1.4033,-1.4263,-1.4585,-1.4795,-1.4938,-1.5186,-1.5462,-1.5843,-1.6125,-1.6384,-1.6425,-1.632,-1.6282,-1.6305,-1.6474,-1.6716,-1.6573,-1.6431,-1.5868,-1.5231,-1.4537,-1.386,-1.3487,-1.3315,-1.3257,-0.9589,-0.9696,-0.975,-0.988,-1.0027,-0.9995,-1.0091,-1.0197,-1.0297,-1.0377,-1.0425,-1.0561,-1.0859,-1.1133,-1.1263,-1.1267,-1.1253,-1.1411,-1.1394,-1.1388,-1.1231,-1.1111,-1.094,-1.0756,-1.0552,-1.0371,-1.0307,-1.0322,-1.0322,-1.0322,-1.0322,-1.0322,-1.0303,-1.0186,-0.9912,-0.9512,-0.9072,-0.8541,-0.7987,-0.7527,-0.7283,-0.7105,-0.6996,-0.6996,-0.6996,-0.7189,-0.7572,-0.8157,-0.852,-0.8872,-0.9428,-0.9696,-0.9651,-0.9924,-1.0024,-1.0044,-1.0288,-1.0293,-1.0322,-1.0322,-1.0322,-1.0322,-1.0322,-1.0322,-1.0307,-1.0576,-1.0762,-1.1014,-1.1409,-1.1809,-1.2112,-1.2496,-1.2754,-1.2817,-1.291,-1.291,-1.291,-1.291,-1.291,-1.291,-1.291,-1.291,-1.2993,-1.3335,-1.3433,-1.3603,-1.355,-1.3633,-1.3895,-1.4248,-1.4551,-1.4692,-1.4932,-1.5171,-1.5371,-1.54,-1.5623,-1.5984,-1.6374,-1.6775,-1.6747,-1.6663,-1.6746,-1.6874,-1.6949,-1.7036,-1.6508,-1.5984,-1.5326,-1.4651,-1.4243,-1.4048,-1.391,-1.3826,-1.3826,-0.9832,-1.002,-1.0074,-1.0074,-0.9973,-0.964,-0.9619,-0.967,-0.9546,-0.9516,-0.9699,-0.9917,-1.0188,-1.0466,-1.0542,-1.0517,-1.0542,-1.0804,-1.1103,-1.1151,-1.1296,-1.1282,-1.1192,-1.0961,-1.0716,-1.0488,-1.0361,-1.0322,-1.0322,-1.0322,-1.0322,-1.0322,-1.0303,-1.0098,-0.9763,-0.9297,-0.8785,-0.8234,-0.7697,-0.728,-0.7133,-0.7045,-0.6996,-0.6996,-0.7017,-0.7147,-0.7478,-0.7914,-0.8366,-0.8886,-0.9392,-0.9853,-0.9986,-1.0166,-1.0283,-1.0322,-1.0322,-1.0322,-1.0322,-1.0322,-1.0322,-1.0322,-1.0322,-1.0322,-1.0376,-1.066,-1.0942,-1.1304,-1.1833,-1.2174,-1.2437,-1.2803,-1.2871,-1.291,-1.291,-1.291,-1.291,-1.291,-1.291,-1.291,-1.291,-1.291,-1.3013,-1.3433,-1.3739,-1.3963,-1.4177,-1.428,-1.4358,-1.4624,-1.4893,-1.5039,-1.5137,-1.5293,-1.5391,-1.5405,-1.5681,-1.609,-1.6588,-1.7107,-1.7213,-1.7181,-1.7318,-1.7335,-1.7118,-1.6806,-1.6109,-1.5521,-1.5024,-1.4722,-1.4481,-1.4347,-1.4326,-1.4284,-1.4241,-1.005,-1.0502,-1.0247,-1.0287,-1.0472,-1.0094,-0.986,-0.9645,-0.9214,-0.9171,-0.9391,-0.9517,-0.9688,-0.9887,-0.9965,-0.9935,-0.9961,-1.0212,-1.055,-1.0873,-1.0978,-1.1216,-1.1324,-1.1113,-1.0902,-1.076,-1.0581,-1.0415,-1.0327,-1.0322,-1.0322,-1.0322,-1.0322,-1.0063,-0.9645,-0.9112,-0.8578,-0.8045,-0.7482,-0.7147,-0.7021,-0.6996,-0.6996,-0.6996,-0.7017,-0.7129,-0.7402,-0.7718,-0.8066,-0.8557,-0.9099,-0.9487,-0.9813,-1.0113,-1.0249,-1.0322,-1.0322,-1.0322,-1.0322,-1.0322,-1.0322,-1.0322,-1.0322,-1.0322,-1.0444,-1.0748,-1.1154,-1.154,-1.2012,-1.2417,-1.2783,-1.2851,-1.29,-1.291,-1.291,-1.291,-1.291,-1.291,-1.291,-1.291,-1.291,-1.2964,-1.313,-1.3485,-1.3963,-1.4351,-1.4585,-1.4777,-1.4825,-1.48,-1.5054,-1.5259,-1.5337,-1.5371,-1.5415,-1.5415,-1.5734,-1.6119,-1.6933,-1.7457,-1.7551,-1.7617,-1.7623,-1.75,-1.7083,-1.6643,-1.6195,-1.5582,-1.4934,-1.4698,-1.458,-1.4597,-1.4565,-1.4528,-1.4475,-0.9903,-1.0247,-1.0377,-1.0364,-1.0177,-0.9709,-0.9407,-0.9304,-0.9186,-0.9119,-0.8979,-0.9008,-0.9133,-0.9136,-0.9133,-0.9185,-0.9263,-0.9443,-0.9769,-1.0142,-1.058,-1.0957,-1.1203,-1.1278,-1.1134,-1.099,-1.0786,-1.061,-1.0396,-1.0342,-1.0371,-1.0322,-1.0366,-1.0106,-0.9614,-0.9032,-0.8517,-0.7955,-0.7349,-0.708,-0.6996,-0.6996,-0.6996,-0.6996,-0.6996,-0.7108,-0.7283,-0.7468,-0.7776,-0.8165,-0.8687,-0.911,-0.9439,-0.9848,-1.0137,-1.0303,-1.0322,-1.0322,-1.0322,-1.0322,-1.0322,-1.0312,-1.0327,-1.0322,-1.0488,-1.0899,-1.1415,-1.178,-1.224,-1.269,-1.2851,-1.2886,-1.291,-1.291,-1.291,-1.291,-1.291,-1.2886,-1.2886,-1.2798,-1.2798,-1.2947,-1.3135,-1.3603,-1.4083,-1.4574,-1.4922,-1.5113,-1.521,-1.5156,-1.5161,-1.5361,-1.5415,-1.5415,-1.5415,-1.5415,-1.5763,-1.6218,-1.7012,-1.7639,-1.7787,-1.7826,-1.7859,-1.7568,-1.6983,-1.6682,-1.6479,-1.5737,-1.4831,-1.4784,-1.4714,-1.4754,-1.4785,-1.4767,-1.4769,-0.9679,-0.9957,-1.0134,-1.004,-0.9704,-0.9364,-0.9154,-0.9061,-0.9038,-0.8924,-0.8791,-0.8804,-0.8781,-0.8831,-0.8831,-0.8831,-0.8887,-0.9087,-0.9387,-0.9747,-1.019,-1.0768,-1.1162,-1.1432,-1.1479,-1.133,-1.1226,-1.1095,-1.0811,-1.0767,-1.0797,-1.0577,-1.0557,-1.0188,-0.967,-0.9047,-0.8496,-0.7934,-0.7412,-0.708,-0.6996,-0.6996,-0.6996,-0.6996,-0.6996,-0.7045,-0.7115,-0.7276,-0.7464,-0.7759,-0.8247,-0.861,-0.9019,-0.9532,-1.0059,-1.0249,-1.0322,-1.0322,-1.0322,-1.0322,-1.0322,-1.0347,-1.0449,-1.0562,-1.0772,-1.1144,-1.155,-1.1946,-1.2484,-1.291,-1.291,-1.291,-1.291,-1.291,-1.291,-1.291,-1.2886,-1.2861,-1.2773,-1.2685,-1.274,-1.2865,-1.3197,-1.3662,-1.4101,-1.4406,-1.4768,-1.5076,-1.5245,-1.5269,-1.5274,-1.5395,-1.5415,-1.5415,-1.5415,-1.5502,-1.5821,-1.6299,-1.704,-1.7584,-1.7863,-1.7865,-1.7746,-1.7306,-1.6765,-1.6479,-1.6212,-1.5495,-1.475,-1.4768,-1.4785,-1.4814,-1.4894,-1.5002,-1.5037,-0.9374,-0.9646,-0.9678,-0.9529,-0.9206,-0.9178,-0.9024,-0.8824,-0.8808,-0.8781,-0.8781,-0.8781,-0.8781,-0.8781,-0.8781,-0.8781,-0.8808,-0.8933,-0.9084,-0.9391,-0.988,-1.0485,-1.1071,-1.1407,-1.1663,-1.1887,-1.1868,-1.1535,-1.1552,-1.142,-1.1183,-1.0962,-1.0859,-1.0489,-0.9828,-0.9062,-0.848,-0.7976,-0.7412,-0.6996,-0.6996,-0.6996,-0.6996,-0.6996,-0.6996,-0.6996,-0.6996,-0.7042,-0.7115,-0.7416,-0.7708,-0.809,-0.872,-0.9268,-0.9813,-1.0152,-1.0244,-1.0283,-1.0303,-1.0322,-1.0322,-1.043,-1.0649,-1.084,-1.11,-1.144,-1.1841,-1.2095,-1.2578,-1.2861,-1.291,-1.291,-1.291,-1.291,-1.291,-1.291,-1.2886,-1.2705,-1.2343,-1.2265,-1.2194,-1.2351,-1.2627,-1.3058,-1.3579,-1.4017,-1.4475,-1.4884,-1.5167,-1.5269,-1.5386,-1.5415,-1.5415,-1.5444,-1.5507,-1.5623,-1.5879,-1.6379,-1.7174,-1.776,-1.8186,-1.7949,-1.755,-1.7226,-1.6878,-1.6186,-1.5721,-1.5235,-1.4953,-1.4732,-1.4777,-1.4825,-1.4896,-1.4984,-1.4891,-0.9247,-0.9317,-0.9317,-0.9267,-0.9188,-0.8974,-0.8855,-0.8781,-0.8781,-0.8781,-0.8781,-0.8781,-0.8781,-0.8781,-0.8781,-0.8781,-0.8804,-0.8831,-0.8877,-0.9136,-0.9547,-1.0204,-1.0935,-1.137,-1.1794,-1.2071,-1.2065,-1.1946,-1.178,-1.1658,-1.1565,-1.1377,-1.1159,-1.0637,-0.9992,-0.9183,-0.8483,-0.7966,-0.737,-0.7017,-0.6996,-0.6996,-0.6996,-0.6996,-0.6996,-0.6996,-0.6996,-0.6996,-0.7094,-0.7269,-0.7468,-0.7976,-0.8707,-0.9159,-0.9607,-0.999,-1.0127,-1.0186,-1.0283,-1.0322,-1.0322,-1.044,-1.0674,-1.104,-1.1401,-1.1816,-1.2139,-1.2325,-1.252,-1.2759,-1.291,-1.291,-1.291,-1.291,-1.291,-1.291,-1.2886,-1.2417,-1.197,-1.1786,-1.1688,-1.1834,-1.2081,-1.251,-1.2997,-1.3532,-1.4053,-1.4494,-1.4893,-1.5123,-1.5357,-1.5415,-1.5415,-1.5444,-1.5565,-1.585,-1.6132,-1.6714,-1.7506,-1.8044,-1.8515,-1.8325,-1.804,-1.7532,-1.7066,-1.635,-1.5866,-1.5682,-1.5365,-1.5014,-1.481,-1.4898,-1.4614,-1.4596,-1.4467,-0.9018,-0.9045,-0.9018,-0.9024,-0.8991,-0.8841,-0.8781,-0.8781,-0.8781,-0.8781,-0.8781,-0.8781,-0.8781,-0.8781,-0.8781,-0.8781,-0.8781,-0.8781,-0.8804,-0.8959,-0.9312,-0.9943,-1.0609,-1.1225,-1.1839,-1.2182,-1.242,-1.2373,-1.2054,-1.1996,-1.1973,-1.1613,-1.1214,-1.0721,-1.0054,-0.9174,-0.8467,-0.7878,-0.7286,-0.7038,-0.6996,-0.6996,-0.6996,-0.6996,-0.6996,-0.6996,-0.6996,-0.6996,-0.7042,-0.7157,-0.7342,-0.7693,-0.8267,-0.87,-0.9199,-0.9646,-0.9907,-1.0074,-1.0249,-1.0376,-1.0386,-1.0518,-1.0928,-1.1403,-1.1589,-1.2,-1.248,-1.2686,-1.2705,-1.291,-1.291,-1.291,-1.291,-1.291,-1.2856,-1.2827,-1.2524,-1.2062,-1.1635,-1.1294,-1.1256,-1.1331,-1.1627,-1.2001,-1.253,-1.3113,-1.3636,-1.4197,-1.4588,-1.5064,-1.5269,-1.5415,-1.5415,-1.556,-1.5734,-1.607,-1.6464,-1.7124,-1.782,-1.8319,-1.8714,-1.8732,-1.8551,-1.7701,-1.6976,-1.6468,-1.6068,-1.5778,-1.5599,-1.5283,-1.509,-1.4982,-1.4606,-1.4116,-1.3709,-0.8788,-0.8781,-0.8785,-0.8785,-0.8781,-0.8781,-0.8781,-0.8781,-0.8781,-0.8781,-0.8781,-0.8781,-0.8781,-0.8781,-0.8781,-0.8781,-0.8781,-0.8781,-0.8781,-0.888,-0.9185,-0.9714,-1.0303,-1.0918,-1.1616,-1.2272,-1.2648,-1.2652,-1.2517,-1.231,-1.1967,-1.1619,-1.1165,-1.0701,-0.9792,-0.9057,-0.8448,-0.7854,-0.7349,-0.7048,-0.6996,-0.6996,-0.6996,-0.6996,-0.6996,-0.6996,-0.6996,-0.6996,-0.6996,-0.7087,-0.7241,-0.7555,-0.7961,-0.8395,-0.9017,-0.9508,-0.9999,-1.0258,-1.0501,-1.066,-1.0616,-1.0723,-1.131,-1.1687,-1.1873,-1.2225,-1.27,-1.2861,-1.2905,-1.291,-1.291,-1.291,-1.291,-1.2886,-1.2827,-1.27,-1.222,-1.1728,-1.1272,-1.0869,-1.0843,-1.0886,-1.1132,-1.1514,-1.2035,-1.2618,-1.323,-1.3812,-1.4355,-1.4947,-1.5357,-1.5415,-1.5415,-1.5613,-1.585,-1.6241,-1.6634,-1.7274,-1.7907,-1.8479,-1.8844,-1.8681,-1.8216,-1.7374,-1.672,-1.6299,-1.5907,-1.5536,-1.5415,-1.5415,-1.5098,-1.4784,-1.4176,-1.3627,-1.283,-0.8781,-0.8781,-0.8781,-0.8781,-0.8781,-0.8781,-0.8781,-0.8781,-0.8781,-0.8781,-0.8781,-0.8781,-0.8781,-0.8781,-0.8781,-0.8781,-0.8781,-0.8781,-0.8781,-0.8857,-0.911,-0.951,-1.002,-1.0719,-1.141,-1.2092,-1.2647,-1.2725,-1.25,-1.2147,-1.1789,-1.144,-1.0679,-1.0234,-0.9842,-0.9097,-0.8357,-0.7848,-0.7452,-0.711,-0.7066,-0.705,-0.7,-0.6996,-0.6996,-0.6996,-0.6996,-0.6996,-0.6996,-0.7045,-0.7184,-0.7409,-0.7765,-0.8274,-0.8956,-0.9606,-1.0103,-1.0677,-1.0935,-1.1108,-1.1126,-1.1188,-1.1707,-1.2002,-1.2212,-1.2489,-1.2793,-1.2895,-1.291,-1.291,-1.291,-1.291,-1.291,-1.2886,-1.2832,-1.2529,-1.2121,-1.1479,-1.0927,-1.0554,-1.0292,-1.0353,-1.0462,-1.0905,-1.137,-1.2039,-1.2864,-1.3472,-1.4236,-1.4799,-1.5415,-1.5415,-1.5415,-1.5599,-1.5836,-1.628,-1.6724,-1.7368,-1.7902,-1.8259,-1.8457,-1.8398,-1.7853,-1.7071,-1.6568,-1.6169,-1.5768,-1.5415,-1.5415,-1.5357,-1.4976,-1.4563,-1.3898,-1.3169,-1.2405]}]]